[[{"header":{"parameterUnit":"m.s-1","parameterCategory":1,"la1":31.0,"la2":29.5877,"lo1":-88.7671,"lo2":-86.6584,"dy":0.0162,"dx":0.0185,"nx":115,"ny":88,"refTime":"2023-07-15T12:00:00:Z","depth":0,"parameterNumber":2,"parameterNumberName":"U-component_of_WINDS"},"data":[0.0,0.0,0.0,0.0,0.0,0.0,0.0,0.0,0.0,0.0,0.0,0.0,0.0,0.0,0.0,0.0,0.0,0.0,0.0,0.0,0.0,0.0,0.0,0.0,0.0,0.0,0.0,0.0,0.0,0.0,0.0,0.0,0.0,0.0,0.0,0.0,0.0,0.0,0.0,0.0,0.0,0.0,0.0,0.0,0.0,0.0,0.0,0.0,0.0,0.0,0.0,0.0,0.0,0.0,0.0,0.0,0.0,0.0,0.0,0.0,0.0,0.0,0.0,0.0,0.0,0.0,0.0,0.0,0.0,0.0,0.0,0.0,0.0,0.0,0.0,0.0,0.0,0.0,0.0,0.0,0.0,0.0,0.0,0.0,0.0,0.0,0.0,0.0,0.0,0.0,0.0,0.0,0.0,0.0,0.0,0.0,0.0,0.0,0.0,0.0,0.0,0.0,0.0,0.0,0.0,0.0,0.0,0.0,0.0,0.0,0.0,0.0,0.0,0.0,0.0,0.0,0.0,0.0,0.0,0.0,0.0,0.0,0.0,0.0,0.0,0.0,0.0,0.0,0.0,0.0,0.0,0.0,0.0,0.0,0.0,0.0,0.0,0.0,0.0,0.0,0.0,0.0,0.0,0.0,0.0,0.0,0.0,0.0,0.0,0.0,0.0,0.0,0.0,0.0,0.0,0.0,0.0,0.0,0.0,0.0,0.0,0.0,0.0,0.0,0.0,0.0,0.0,0.0,0.0,0.0,0.0,0.0,0.0,0.0,0.0,0.0,0.0,0.0,0.0,0.0,0.0,0.0,0.0,0.0,0.0,0.0,0.0,0.0,0.0,0.0,0.0,0.0,0.0,0.0,0.0,0.0,0.0,0.0,0.0,0.0,0.0,0.0,0.0,0.0,0.0,0.0,0.0,0.0,0.0,0.0,0.0,0.0,0.0,0.0,0.0,0.0,0.0,0.0,0.0,0.0,0.0,0.0,0.0,0.0,0.0,0.0,0.0,0.0,0.0,0.0,0.0,0.0,0.0,0.0,0.0,0.0,0.0,0.0,0.0,0.0,0.0,0.0,0.0,0.0,0.0,0.0,0.0,0.0,0.0,0.0,0.0,0.0,0.0,0.0,0.0,0.0,0.0,0.0,0.0,0.0,0.0,0.0,0.0,0.0,0.0,0.0,0.0,0.0,0.0,0.0,0.0,0.0,0.0,0.0,0.0,0.0,0.0,0.0,0.0,0.0,0.0,0.0,0.0,0.0,0.0,0.0,0.0,0.0,0.0,0.0,0.0,0.0,0.0,0.0,0.0,0.0,0.0,0.0,0.0,0.0,0.0,0.0,0.0,0.0,0.0,0.0,0.0,0.0,0.0,0.0,0.0,0.0,0.0,0.0,0.0,0.0,0.0,0.0,0.0,0.0,0.0,0.0,0.0,0.0,0.0,0.0,0.0,0.0,0.0,0.0,0.0,0.0,0.0,0.0,0.0,0.0,0.0,0.0,0.0,0.0,0.0,0.0,0.0,0.0,0.0,0.0,0.0,0.0,0.0,0.0,0.0,0.0,0.0,0.0,0.0,0.0,0.0,0.0,0.0,0.0,0.0,0.0,0.0,0.0,0.0,0.0,0.0,0.0,0.0,0.0,0.0,0.0,0.0,0.0,0.0,0.0,0.0,0.0,0.0,0.0,0.0,0.0,0.0,0.0,0.0,0.0,0.0,0.0,0.0,0.0,0.0,0.0,0.0,0.0,0.0,0.0,0.0,0.0,0.0,0.0,0.0,0.0,0.0,0.0,0.0,0.0,0.0,0.0,0.0,0.0,0.0,0.0,0.0,0.0,0.0,0.0,0.0,0.0,0.0,0.0,0.0,0.0,0.0,0.0,0.0,0.0,0.0,0.0,0.0,0.0,0.0,0.0,0.0,0.0,0.0,0.0,0.0,0.0,0.0,0.0,0.0,0.0,0.0,0.0,0.0,0.0,0.0,0.0,0.0,0.0,0.0,0.0,0.0,0.0,0.0,0.0,0.0,0.0,0.0,0.0,0.0,0.0,0.0,0.0,0.0,0.0,0.0,0.0,0.0,0.0,0.0,0.0,0.0,0.0,0.0,0.0,0.0,0.0,0.0,0.0,0.0,0.0,0.0,0.0,0.0,0.0,0.0,0.0,0.0,0.0,0.0,0.0,0.0,0.0,0.0,0.0,0.0,0.0,0.0,0.0,0.0,0.0,0.0,0.0,0.0,0.0,0.0,0.0,0.0,0.0,0.0,0.0,0.0,0.0,0.0,0.0,0.0,0.0,0.0,0.0,0.0,0.0,0.0,0.0,0.0,0.0,0.0,0.0,0.0,0.0,0.0,0.0,0.0,0.0,0.0,0.0,0.0,0.0,0.0,0.0,0.0,0.0,0.0,0.0,0.0,0.0,0.0,0.0,0.0,0.0,0.0,0.0,0.0,0.0,0.0,0.0,0.0,0.0,0.0,0.0,0.0,0.0,0.0,0.0,0.0,0.0,0.0,0.0,0.0,0.0,0.0,0.0,0.0,0.0,0.0,0.0,0.0,0.0,0.0,0.0,0.0,0.0,0.0,0.0,0.0,0.0,0.0,0.0,0.0,0.0,0.0,0.0,0.0,0.0,0.0,0.0,0.0,0.0,0.0,0.0,0.0,0.0,0.0,0.0,0.0,0.0,0.0,0.0,0.0,0.0,0.0,0.0,0.0,0.0,0.0,0.0,0.0,0.0,0.0,0.0,0.0,0.0,0.0,0.0,0.0,0.0,0.0,0.0,0.0,0.0,0.0,0.0,0.0,0.0,0.0,0.0,0.0,0.0,0.0,0.0,0.0,0.0,0.0,0.0,0.0,0.0,0.0,0.0,0.0,0.0,0.0,0.0,0.0,0.0,0.0,0.0,0.0,0.0,0.0,0.0,0.0,0.0,0.0,0.0,0.0,0.0,0.0,0.0,0.0,0.0,0.0,0.0,0.0,0.0,0.0,0.0,0.0,0.0,0.0,0.0,0.0,0.0,0.0,0.0,0.0,0.0,0.0,0.0,0.0,0.0,0.0,0.0,0.0,0.0,0.0,0.0,0.0,0.0,0.0,0.0,0.0,0.0,0.0,0.0,0.0,0.0,0.0,0.0,0.0,0.0,0.0,0.0,0.0,0.0,0.0,0.0,0.0,0.0,0.0,0.0,0.0,0.0,0.0,0.0,0.0,0.0,0.0,0.0,0.0,0.0,0.0,0.0,0.0,0.0,0.0,0.0,0.0,0.0,0.0,0.0,0.0,0.0,0.0,0.0,0.0,0.0,0.0,0.0,0.0,0.0,0.0,0.0,0.0,0.0,0.0,0.0,0.0,0.0,0.0,0.0,0.0,0.0,0.0,0.0,0.0,0.0,0.0,0.0,0.0,0.0,0.0,0.0,0.0,0.0,0.0,0.0,0.0,0.0,0.0,0.0,0.0,0.0,0.0,0.0,0.0,0.0,0.0,0.0,0.0,0.0,0.0,0.0,0.0,0.0,0.0,0.0,0.0,0.0,0.0,0.0,0.0,0.0,0.0,0.0,0.0,0.0,0.0,0.0,0.0,0.0,0.0,0.0,0.0,0.0,0.0,0.0,0.0,0.0,0.0,0.0,0.0,0.0,0.0,0.0,0.0,0.0,0.0,0.0,0.0,0.0,0.0,0.0,0.0,0.0,0.0,0.0,0.0,0.0,0.0,0.0,0.0,0.0,0.0,0.0,0.0,0.0,0.0,0.0,0.0,0.0,0.0,0.0,0.0,0.0,0.0,0.0,0.0,0.0,0.0,0.0,0.0,0.0,0.0,0.0,0.0,0.0,0.0,0.0,0.0,0.0,0.0,0.0,0.0,0.0,0.0,0.0,0.0,0.0,0.0,0.0,0.0,0.0,0.0,0.0,0.0,0.0,0.0,0.0,0.0,0.0,0.0,0.0,0.0,0.0,0.0,0.0,0.0,0.0,0.0,0.0,0.0,0.0,0.0,0.0,0.0,0.0,0.0,0.0,0.0,0.0,0.0,0.0,0.0,0.0,0.0,0.0,0.0,0.0,0.0,0.0,0.0,0.0,0.0,0.0,0.0,0.0,0.0,0.0,0.0,0.0,0.0,0.0,0.0,0.0,0.0,0.0,0.0,0.0,0.0,0.0,0.0,0.0,0.0,0.0,0.0,0.0,0.0,0.0,0.0,0.0,0.0,0.0,0.0,0.0,0.0,0.0,0.0,0.0,0.0,0.0,0.0,0.0,0.0,0.0,0.0,0.0,-1.6687,0.0,0.0,0.0,0.0,0.0,0.0,0.0,0.0,0.0,0.0,0.0,0.0,0.0,0.0,0.0,0.0,0.0,0.0,0.0,0.0,0.0,0.0,0.0,0.0,0.0,0.0,0.0,0.0,0.0,0.0,0.0,0.0,0.0,0.0,0.0,0.0,0.0,0.0,0.0,0.0,0.0,0.0,0.0,0.0,0.0,0.0,0.0,0.0,0.0,0.0,0.0,0.0,0.0,0.0,0.0,0.0,0.0,0.0,0.0,0.0,0.0,0.0,0.0,0.0,0.0,0.0,0.0,0.0,0.0,0.0,0.0,0.0,0.0,0.0,0.0,0.0,0.0,0.0,0.0,0.0,0.0,0.0,0.0,0.0,0.0,0.0,0.0,0.0,0.0,0.0,0.0,0.0,0.0,0.0,0.0,0.0,0.0,0.0,0.0,0.0,0.0,0.0,0.0,0.0,0.0,0.0,0.0,0.0,0.0,0.0,-2.0797,-2.0904,-2.0256,-1.9083,-1.7448,0.0,0.0,0.0,0.0,0.0,0.0,0.0,0.0,0.0,0.0,0.0,0.0,0.0,0.0,0.0,0.0,0.0,0.0,0.0,0.0,0.0,0.0,0.0,0.0,0.0,0.0,0.0,0.0,0.0,0.0,0.0,0.0,0.0,0.0,0.0,0.0,0.0,0.0,0.0,0.0,0.0,0.0,0.0,0.0,0.0,0.0,0.0,0.0,0.0,0.0,0.0,0.0,0.0,0.0,0.0,0.0,0.0,0.0,0.0,0.0,0.0,0.0,0.0,0.0,0.0,0.0,0.0,0.0,0.0,0.0,0.0,0.0,0.0,0.0,0.0,0.0,0.0,0.0,0.0,0.0,0.0,0.0,0.0,0.0,0.0,0.0,0.0,0.0,0.0,0.0,0.0,0.0,0.0,0.0,0.0,0.0,0.0,0.0,0.0,0.0,0.0,0.0,0.0,0.0,0.0,0.0,0.0,0.0,0.0,0.0,0.0,0.0,-2.1486,-1.9885,-1.7472,0.0,0.0,0.0,0.0,0.0,0.0,0.0,0.0,0.0,0.0,0.0,0.0,0.0,0.0,0.0,0.0,0.0,0.0,0.0,0.0,0.0,0.0,0.0,0.0,0.0,0.0,0.0,0.0,0.0,0.0,0.0,0.0,0.0,0.0,0.0,0.0,0.0,0.0,0.0,0.0,0.0,0.0,0.0,0.0,0.0,0.0,0.0,0.0,0.0,0.0,0.0,0.0,0.0,0.0,0.0,0.0,0.0,0.0,0.0,0.0,0.0,0.0,0.0,0.0,0.0,0.0,0.0,0.0,0.0,0.0,0.0,0.0,0.0,0.0,0.0,0.0,0.0,0.0,0.0,0.0,0.0,0.0,0.0,0.0,0.0,0.0,0.0,0.0,0.0,0.0,0.0,0.0,0.0,0.0,0.0,0.0,0.0,0.0,0.0,0.0,0.0,0.0,0.0,0.0,0.0,0.0,0.0,0.0,0.0,0.0,-2.3313,-2.2936,-2.167,0.0,-1.5843,0.0,0.0,0.0,0.0,0.0,0.0,0.0,0.0,0.0,0.0,0.0,0.0,0.0,0.0,0.0,0.0,0.0,0.0,0.0,0.0,0.0,0.0,0.0,0.0,0.0,0.0,0.0,0.0,0.0,0.0,0.0,0.0,0.0,0.0,0.0,0.0,0.0,0.0,0.0,0.0,0.0,0.0,0.0,0.0,0.0,0.0,0.0,0.0,0.0,0.0,0.0,0.0,0.0,0.0,0.0,0.0,0.0,0.0,0.0,0.0,0.0,0.0,0.0,0.0,0.0,0.0,0.0,0.0,0.0,0.0,0.0,0.0,0.0,0.0,0.0,0.0,0.0,0.0,0.0,0.0,0.0,0.0,0.0,0.0,0.0,0.0,0.0,0.0,0.0,0.0,0.0,0.0,0.0,0.0,0.0,0.0,0.0,0.0,0.0,0.0,0.0,0.0,0.0,0.0,0.0,0.0,0.0,0.0,0.0,0.0,-2.4972,-2.453,-2.1798,-1.8973,0.0,0.0,0.0,0.0,0.0,0.0,0.0,0.0,0.0,0.0,0.0,0.0,0.0,0.0,0.0,0.0,0.0,0.0,0.0,0.0,0.0,0.0,0.0,0.0,0.0,0.0,0.0,0.0,0.0,0.0,0.0,0.0,0.0,0.0,0.0,0.0,0.0,0.0,0.0,0.0,0.0,0.0,0.0,0.0,0.0,0.0,0.0,0.0,0.0,0.0,0.0,0.0,0.0,0.0,0.0,0.0,0.0,0.0,0.0,0.0,0.0,0.0,0.0,0.0,0.0,0.0,0.0,0.0,0.0,0.0,0.0,0.0,0.0,0.0,0.0,0.0,0.0,0.0,0.0,0.0,0.0,0.0,0.0,0.0,0.0,0.0,0.0,0.0,0.0,0.0,0.0,0.0,0.0,0.0,0.0,0.0,0.0,0.0,0.0,0.0,0.0,0.0,0.0,0.0,0.0,0.0,0.0,0.0,0.0,0.0,-2.6299,-2.6287,-2.5121,-2.1872,-1.8987,-1.6534,0.0,0.0,0.0,0.0,0.0,0.0,0.0,0.0,0.0,0.0,0.0,0.0,0.0,0.0,0.0,0.0,0.0,0.0,0.0,0.0,0.0,0.0,0.0,0.0,0.0,0.0,0.0,0.0,0.0,0.0,0.0,0.0,0.0,0.0,0.0,0.0,0.0,0.0,0.0,0.0,0.0,0.0,0.0,0.0,0.0,0.0,0.0,0.0,0.0,0.0,0.0,0.0,0.0,0.0,0.0,0.0,0.0,0.0,0.0,0.0,0.0,0.0,0.0,0.0,0.0,0.0,0.0,0.0,0.0,0.0,0.0,0.0,0.0,0.0,0.0,0.0,0.0,0.0,0.0,0.0,0.0,0.0,0.0,0.0,0.0,0.0,0.0,0.0,0.0,0.0,0.0,0.0,0.0,0.0,0.0,0.0,0.0,0.0,0.0,0.0,0.0,0.0,0.0,0.0,0.0,0.0,0.0,0.0,-2.6741,-2.7813,-2.7018,-2.4266,-2.1885,-1.95,0.0,0.0,0.0,0.0,0.0,0.0,0.0,0.0,0.0,0.0,0.0,0.0,0.0,0.0,0.0,0.0,0.0,0.0,0.0,0.0,0.0,0.0,0.0,0.0,0.0,0.0,0.0,0.0,0.0,0.0,0.0,0.0,0.0,0.0,0.0,0.0,0.0,0.0,0.0,0.0,0.0,0.0,0.0,0.0,0.0,0.0,0.0,0.0,0.0,0.0,0.0,0.0,0.0,0.0,0.0,0.0,0.0,0.0,0.0,0.0,0.0,0.0,0.0,0.0,0.0,0.0,0.0,0.0,0.0,0.0,0.0,0.0,0.0,0.0,0.0,0.0,0.0,0.0,0.0,0.0,0.0,0.0,0.0,0.0,0.0,0.0,0.0,0.0,0.0,0.0,0.0,0.0,0.0,0.0,0.0,0.0,0.0,0.0,0.0,0.0,0.0,0.0,0.0,0.0,0.0,0.0,0.0,0.0,0.0,-2.8156,-2.8336,-2.7275,-2.4998,-2.267,-2.0344,0.0,0.0,0.0,0.0,0.0,0.0,0.0,0.0,0.0,0.0,0.0,0.0,0.0,0.0,0.0,0.0,0.0,0.0,0.0,0.0,0.0,0.0,0.0,0.0,0.0,0.0,0.0,0.0,0.0,0.0,0.0,0.0,0.0,0.0,0.0,0.0,0.0,0.0,0.0,0.0,0.0,0.0,0.0,0.0,0.0,0.0,0.0,0.0,0.0,0.0,0.0,0.0,0.0,0.0,0.0,0.0,0.0,0.0,0.0,0.0,0.0,0.0,0.0,0.0,0.0,0.0,0.0,0.0,0.0,0.0,0.0,0.0,0.0,0.0,0.0,0.0,0.0,0.0,0.0,0.0,0.0,0.0,0.0,0.0,0.0,0.0,0.0,0.0,0.0,0.0,0.0,0.0,0.0,0.0,0.0,0.0,0.0,0.0,0.0,0.0,0.0,0.0,0.0,0.0,0.0,0.0,0.0,0.0,0.0,-3.0099,0.0,-2.8255,-2.6308,-2.3962,-2.1467,0.0,0.0,0.0,0.0,0.0,0.0,0.0,0.0,0.0,0.0,0.0,0.0,0.0,0.0,0.0,0.0,0.0,0.0,0.0,0.0,0.0,0.0,0.0,0.0,0.0,0.0,0.0,0.0,0.0,0.0,0.0,0.0,0.0,0.0,0.0,0.0,0.0,0.0,0.0,0.0,0.0,0.0,0.0,0.0,0.0,0.0,0.0,0.0,0.0,0.0,0.0,0.0,0.0,0.0,0.0,0.0,0.0,0.0,0.0,0.0,0.0,0.0,0.0,0.0,0.0,0.0,0.0,0.0,0.0,0.0,0.0,0.0,0.0,0.0,0.0,0.0,0.0,0.0,0.0,0.0,0.0,0.0,0.0,0.0,0.0,0.0,0.0,0.0,0.0,0.0,0.0,0.0,0.0,0.0,0.0,0.0,0.0,0.0,0.0,0.0,0.0,0.0,0.0,0.0,0.0,0.0,0.0,0.0,-2.9193,-3.2572,-3.1574,-3.003,-2.815,-2.5666,-2.2936,0.0,0.0,0.0,0.0,0.0,0.0,0.0,0.0,0.0,0.0,0.0,0.0,0.0,0.0,0.0,0.0,0.0,0.0,0.0,0.0,0.0,0.0,0.0,0.0,0.0,0.0,0.0,0.0,0.0,0.0,0.0,0.0,0.0,0.0,0.0,0.0,0.0,0.0,0.0,0.0,0.0,0.0,0.0,0.0,0.0,0.0,0.0,0.0,0.0,0.0,0.0,0.0,0.0,0.0,0.0,0.0,0.0,0.0,0.0,0.0,0.0,0.0,0.0,0.0,0.0,0.0,0.0,0.0,0.0,0.0,0.0,0.0,0.0,0.0,0.0,0.0,0.0,0.0,0.0,0.0,0.0,0.0,0.0,0.0,0.0,0.0,0.0,0.0,0.0,0.0,0.0,0.0,0.0,0.0,0.0,0.0,0.0,0.0,0.0,0.0,0.0,0.0,0.0,0.0,0.0,0.0,0.0,0.0,0.0,-3.3806,-3.3184,-3.1891,-2.9871,-2.6914,-2.4159,0.0,0.0,0.0,0.0,0.0,0.0,0.0,0.0,0.0,0.0,0.0,0.0,0.0,0.0,0.0,0.0,0.0,0.0,0.0,0.0,0.0,0.0,0.0,0.0,0.0,0.0,0.0,0.0,0.0,0.0,0.0,0.0,0.0,0.0,0.0,0.0,0.0,0.0,0.0,0.0,0.0,0.0,0.0,0.0,0.0,0.0,0.0,0.0,0.0,0.0,0.0,0.0,0.0,0.0,0.0,0.0,0.0,0.0,0.0,0.0,0.0,0.0,0.0,0.0,0.0,0.0,0.0,0.0,0.0,0.0,0.0,0.0,0.0,0.0,0.0,0.0,0.0,0.0,0.0,0.0,0.0,0.0,0.0,0.0,0.0,0.0,0.0,0.0,0.0,0.0,0.0,0.0,0.0,0.0,0.0,0.0,0.0,0.0,0.0,0.0,0.0,0.0,0.0,0.0,0.0,0.0,0.0,0.0,0.0,-3.652,-3.5788,-3.454,-3.2684,-2.9564,-2.6544,-2.3614,0.0,0.0,0.0,0.0,0.0,0.0,0.0,0.0,0.0,0.0,0.0,0.0,0.0,0.0,0.0,0.0,0.0,0.0,0.0,0.0,0.0,0.0,0.0,0.0,0.0,0.0,0.0,0.0,0.0,0.0,0.0,0.0,0.0,0.0,0.0,0.0,0.0,0.0,0.0,0.0,0.0,0.0,0.0,0.0,0.0,0.0,0.0,0.0,0.0,0.0,0.0,0.0,0.0,0.0,0.0,0.0,0.0,0.0,0.0,0.0,0.0,0.0,0.0,0.0,0.0,0.0,0.0,0.0,0.0,0.0,0.0,0.0,0.0,0.0,0.0,0.0,0.0,0.0,0.0,0.0,0.0,0.0,0.0,0.0,0.0,0.0,0.0,0.0,0.0,0.0,0.0,0.0,0.0,0.0,0.0,0.0,0.0,0.0,0.0,0.0,0.0,0.0,0.0,0.0,0.0,0.0,0.0,0.0,-4.0488,-3.9238,-3.7756,-3.611,-3.3215,-2.9654,0.0,0.0,0.0,0.0,0.0,0.0,0.0,0.0,0.0,0.0,0.0,0.0,0.0,0.0,0.0,0.0,0.0,0.0,0.0,0.0,0.0,0.0,0.0,0.0,0.0,0.0,0.0,0.0,0.0,0.0,0.0,0.0,0.0,0.0,0.0,0.0,0.0,0.0,0.0,0.0,0.0,0.0,0.0,0.0,0.0,0.0,0.0,0.0,0.0,0.0,0.0,0.0,0.0,0.0,0.0,0.0,0.0,0.0,0.0,0.0,0.0,0.0,0.0,0.0,0.0,0.0,0.0,0.0,0.0,0.0,0.0,0.0,0.0,0.0,0.0,0.0,0.0,0.0,0.0,0.0,0.0,0.0,0.0,0.0,0.0,0.0,0.0,0.0,0.0,0.0,0.0,0.0,0.0,0.0,0.0,0.0,0.0,0.0,0.0,0.0,0.0,0.0,0.0,0.0,0.0,0.0,0.0,0.0,0.0,-4.1658,-4.196,-4.0735,-3.8581,-3.5119,-3.1399,0.0,0.0,0.0,0.0,0.0,0.0,0.0,0.0,0.0,0.0,0.0,0.0,0.0,0.0,0.0,0.0,0.0,0.0,0.0,0.0,0.0,0.0,0.0,0.0,0.0,0.0,0.0,0.0,0.0,0.0,0.0,0.0,0.0,0.0,0.0,0.0,0.0,0.0,0.0,0.0,0.0,0.0,0.0,0.0,0.0,0.0,0.0,0.0,0.0,0.0,0.0,0.0,0.0,0.0,0.0,0.0,0.0,0.0,0.0,0.0,0.0,0.0,0.0,0.0,0.0,0.0,0.0,0.0,0.0,0.0,0.0,0.0,0.0,0.0,0.0,0.0,0.0,0.0,0.0,0.0,0.0,0.0,0.0,0.0,0.0,0.0,0.0,0.0,0.0,0.0,0.0,0.0,0.0,0.0,0.0,0.0,0.0,0.0,0.0,0.0,0.0,0.0,0.0,0.0,0.0,0.0,0.0,0.0,-2.3046,-3.6029,-3.7202,-3.7493,-3.7183,-3.7072,-3.4809,0.0,0.0,0.0,0.0,0.0,0.0,0.0,0.0,0.0,0.0,0.0,0.0,0.0,0.0,0.0,0.0,0.0,0.0,0.0,0.0,0.0,0.0,0.0,0.0,0.0,0.0,0.0,0.0,0.0,0.0,0.0,0.0,0.0,0.0,0.0,0.0,0.0,0.0,0.0,0.0,0.0,0.0,0.0,0.0,0.0,0.0,0.0,0.0,0.0,0.0,0.0,0.0,0.0,0.0,0.0,0.0,0.0,0.0,0.0,0.0,0.0,0.0,0.0,0.0,0.0,0.0,0.0,0.0,0.0,0.0,0.0,0.0,0.0,0.0,0.0,0.0,0.0,0.0,0.0,0.0,0.0,0.0,0.0,0.0,0.0,0.0,0.0,0.0,0.0,0.0,0.0,0.0,0.0,0.0,0.0,0.0,0.0,0.0,0.0,0.0,0.0,0.0,0.0,0.0,0.0,0.0,0.0,0.0,-1.4312,-2.2433,-2.5429,-2.8459,-3.2015,-3.7464,-3.8083,0.0,0.0,0.0,0.0,0.0,0.0,0.0,0.0,0.0,0.0,0.0,0.0,0.0,0.0,0.0,0.0,0.0,0.0,0.0,0.0,0.0,0.0,0.0,0.0,0.0,0.0,0.0,0.0,0.0,0.0,0.0,0.0,0.0,0.0,0.0,0.0,0.0,0.0,0.0,0.0,0.0,0.0,0.0,0.0,0.0,0.0,0.0,0.0,0.0,0.0,0.0,0.0,0.0,0.0,0.0,0.0,0.0,0.0,0.0,0.0,0.0,0.0,0.0,0.0,0.0,0.0,0.0,0.0,0.0,0.0,0.0,0.0,0.0,0.0,0.0,0.0,0.0,0.0,0.0,0.0,0.0,0.0,0.0,0.0,0.0,0.0,0.0,0.0,0.0,0.0,0.0,0.0,0.0,0.0,0.0,0.0,0.0,0.0,0.0,0.0,0.0,0.0,0.0,0.0,0.0,0.0,0.0,0.0,1.1273,0.6997,-0.026,-0.8882,-1.8822,-2.9725,-3.5045,0.0,0.0,0.0,0.0,0.0,0.0,0.0,0.0,0.0,0.0,0.0,0.0,0.0,0.0,0.0,0.0,0.0,0.0,0.0,0.0,0.0,0.0,0.0,0.0,0.0,0.0,0.0,0.0,0.0,0.0,0.0,0.0,0.0,0.0,0.0,0.0,0.0,0.0,0.0,0.0,0.0,0.0,0.0,0.0,0.0,0.0,0.0,0.0,1.3009,0.0,0.0,0.0,0.0,0.0,0.0,0.0,0.0,0.0,0.0,0.0,0.0,0.0,0.0,0.0,0.0,0.0,0.0,0.0,0.0,0.0,0.0,0.0,0.0,0.0,0.0,0.0,0.0,0.0,0.0,0.0,0.0,0.0,0.0,0.0,0.0,0.0,0.0,0.0,0.0,0.0,0.0,0.0,0.0,0.0,0.0,0.0,0.0,0.0,0.0,0.0,0.0,0.0,0.0,0.0,0.0,0.0,0.0,0.0,2.2488,2.1205,1.4032,0.3926,-0.8799,-1.701,-2.5097,0.0,0.0,0.0,0.0,0.0,0.0,0.0,0.0,0.0,0.0,0.0,0.0,0.0,0.0,0.0,0.0,0.0,0.0,0.0,0.0,0.0,0.0,0.0,0.0,0.0,0.0,0.0,0.0,0.0,0.0,0.0,0.0,0.0,0.0,0.0,0.0,0.0,0.0,0.0,0.0,0.0,0.0,0.0,0.0,0.0,0.0,0.0,0.0,0.0,0.0,0.0,0.0,0.0,0.0,0.0,0.0,0.0,0.0,0.0,0.0,0.0,0.0,0.0,0.0,0.0,0.0,0.0,0.0,0.0,0.0,0.0,0.0,0.0,0.0,0.0,0.0,0.0,0.0,0.0,0.0,0.0,0.0,0.0,0.0,0.0,0.0,0.0,0.0,0.0,0.0,0.0,0.0,0.0,0.0,0.0,0.0,0.0,0.0,0.0,0.0,0.0,0.0,0.0,0.0,0.0,0.0,0.0,3.0633,2.8648,2.9891,2.3702,1.3958,0.0897,-0.2112,-1.1436,-2.7911,0.0,0.0,0.0,0.0,0.0,0.0,0.0,0.0,0.0,0.0,0.0,0.0,0.0,0.0,0.0,0.0,0.0,0.0,0.0,0.0,0.0,0.0,0.0,0.0,0.0,0.0,0.0,0.0,0.0,0.0,0.0,0.0,0.0,0.0,0.0,0.0,0.0,0.0,2.0256,1.9694,0.0,0.0,0.0,0.0,0.0,0.0,0.0,0.0,1.3106,0.0,0.0,0.0,0.0,0.0,0.0,0.0,0.0,0.0,0.0,0.0,0.0,0.0,0.0,0.0,0.0,0.0,0.0,0.0,0.0,0.0,0.0,0.0,0.0,0.0,0.0,0.0,0.0,0.0,0.0,0.0,0.0,0.0,0.0,0.0,0.0,0.0,0.0,0.0,0.0,0.0,0.0,0.0,0.0,0.0,0.0,0.0,0.0,0.0,0.0,0.0,0.0,0.0,0.0,0.0,0.0,3.5513,3.7025,3.9591,4.3229,3.4439,2.4906,1.5251,1.2621,0.4267,-1.0533,0.0,0.0,0.0,0.0,0.0,0.0,0.0,0.0,0.0,0.0,0.0,0.0,0.0,0.0,0.0,0.0,0.0,0.0,0.0,0.0,0.0,0.0,0.0,0.0,0.0,0.0,0.0,0.0,0.0,0.0,0.0,0.0,0.0,0.0,0.0,0.0,0.0,0.0,0.0,1.9666,1.8161,0.0,0.0,0.0,0.0,0.0,0.0,0.0,0.0,1.2904,0.0,0.0,0.0,0.0,0.0,0.0,0.0,0.0,0.0,0.0,0.0,0.0,0.0,0.0,0.0,0.0,0.0,0.0,0.0,0.0,0.0,0.0,0.0,0.0,0.0,0.0,0.0,0.0,0.0,0.0,0.0,0.0,0.0,0.0,0.0,0.0,0.0,0.0,0.0,0.0,0.0,0.0,0.0,0.0,0.0,0.0,0.0,0.0,0.0,0.0,0.0,0.0,0.0,0.0,0.0,2.7446,3.0311,3.3199,3.6798,3.4247,2.5342,1.0337,1.3553,1.1775,0.0,0.0,0.0,0.0,0.0,0.0,0.0,0.0,0.0,0.0,0.0,0.0,0.0,0.0,0.0,0.0,0.0,0.0,0.0,0.0,0.0,0.0,0.0,0.0,0.0,0.0,0.0,0.0,0.0,0.0,0.0,0.0,0.0,0.0,0.0,0.0,0.0,0.0,0.0,0.0,1.883,1.8097,1.6649,0.0,0.0,0.0,0.0,0.0,0.0,1.2801,1.2817,0.0,0.0,0.0,0.0,0.0,0.0,0.0,0.0,0.0,0.0,0.0,0.0,0.0,0.0,0.0,0.0,0.0,0.0,0.0,0.0,0.0,0.0,0.0,0.0,0.0,0.0,0.0,0.0,0.0,0.0,0.0,0.0,0.0,0.0,0.0,0.0,0.0,0.0,0.0,0.0,0.0,0.0,0.0,0.0,0.0,0.0,0.0,0.0,0.0,0.0,0.0,0.0,0.0,0.0,0.0,1.3767,1.7418,2.0973,2.4681,2.5935,1.8792,0.3029,1.1409,1.517,0.0,0.0,0.0,0.0,0.0,0.0,0.0,0.0,0.0,0.0,0.0,0.0,0.0,0.0,0.0,0.0,0.0,0.0,0.0,0.0,0.0,0.0,0.0,0.0,0.0,0.0,0.0,0.0,0.0,0.0,0.0,0.0,0.0,0.0,0.0,0.0,0.0,0.0,0.0,0.0,0.0,1.7441,1.5346,1.3236,0.0,0.0,0.0,0.0,1.0948,1.1663,0.0,0.0,0.0,0.0,0.0,0.0,0.0,0.0,0.0,0.0,0.0,0.0,0.0,0.0,0.0,0.0,0.0,0.0,0.0,0.0,0.0,0.0,0.0,0.0,0.0,0.0,0.0,0.0,0.0,0.0,0.0,0.0,0.0,0.0,0.0,0.0,0.0,0.0,0.0,0.0,0.0,0.0,0.0,0.0,0.0,0.0,0.0,0.0,0.0,0.0,0.0,0.0,0.0,0.0,0.0,0.0,-0.9448,-0.0096,0.7871,1.3387,0.6718,0.3471,0.5222,1.2184,1.4689,0.0,0.0,0.0,0.0,0.0,0.0,0.0,0.0,0.0,0.0,0.0,0.0,0.0,0.0,0.0,0.0,0.0,0.0,0.0,0.0,0.0,0.0,0.0,0.0,0.0,0.0,0.0,0.0,0.0,0.0,0.0,0.0,0.0,0.0,0.0,0.0,0.0,0.0,0.0,0.0,0.0,1.5135,1.3769,1.212,1.0091,0.0,0.0,0.8506,0.9456,1.0325,0.0,0.0,0.0,0.0,0.0,0.0,0.0,0.0,0.0,0.0,0.0,0.0,0.0,0.0,0.0,0.0,0.0,0.0,0.0,0.0,0.0,0.0,0.0,0.0,0.0,0.0,0.0,0.0,0.0,0.0,0.0,0.0,0.0,0.0,0.0,0.0,0.0,0.0,0.0,0.0,0.0,0.0,0.0,0.0,0.0,0.0,0.0,0.0,0.0,0.0,0.0,0.0,0.0,0.0,0.0,-1.4862,-1.0301,-0.4169,0.1585,0.6746,0.6168,0.4261,0.1326,1.0862,1.4736,0.0,0.0,0.0,0.0,0.0,0.0,0.0,0.0,0.0,0.0,0.0,0.0,0.0,0.0,0.0,0.0,0.0,0.0,0.0,0.0,0.0,0.0,0.0,0.0,0.0,0.0,0.0,0.0,0.0,0.0,0.0,0.0,0.0,0.0,0.0,0.0,0.0,0.0,0.0,0.0,0.0,0.0,1.2526,1.0906,0.0,0.0,0.0,0.7355,0.7951,0.0,0.0,0.0,0.0,0.0,0.0,0.0,0.0,0.0,0.0,0.0,0.0,0.0,0.0,0.0,0.0,0.0,0.0,0.0,0.0,0.0,0.0,0.0,0.0,0.0,0.0,0.0,0.0,0.0,0.0,0.0,0.0,0.0,0.0,0.0,0.0,0.0,0.0,0.0,0.0,0.0,0.0,0.0,0.0,0.0,0.0,0.0,0.0,0.0,0.0,0.0,0.0,0.0,0.0,0.0,0.0,0.0,-1.1625,-0.9514,-0.6294,-0.1821,0.2699,0.234,-0.3056,0.721,0.0,0.0,0.0,0.0,0.0,0.0,0.0,0.0,0.0,0.0,0.0,0.0,0.0,0.0,0.0,0.0,0.0,0.0,0.0,0.0,0.0,0.0,0.0,0.0,0.0,0.0,0.0,0.9998,0.0,0.0,0.0,0.0,0.0,0.0,0.0,0.0,0.0,0.0,0.0,0.0,0.0,0.0,1.1687,1.126,0.9708,0.822,0.0,0.0,0.6279,0.6918,0.5455,0.4258,0.0,0.0,0.0,0.0,0.0,0.0,0.0,0.0,0.0,0.0,0.0,0.0,0.0,0.0,0.0,0.0,0.0,0.0,0.0,0.0,0.0,0.0,0.0,0.0,0.0,0.0,0.0,0.0,0.0,0.0,0.0,0.0,0.0,0.0,0.0,0.0,0.0,0.0,0.0,0.0,0.0,0.0,0.0,0.0,0.0,0.0,0.0,0.0,0.0,0.0,0.0,0.0,0.0,0.0,-2.1745,-2.2137,-2.1707,-1.896,-1.4532,-1.2446,-0.9963,-0.6951,0.0213,0.3834,0.0,0.0,0.0,0.0,0.0,0.0,0.0,0.0,0.0,0.0,0.0,0.0,0.0,0.0,0.0,0.0,0.0,0.0,0.0,0.0,0.0,0.0,0.0,0.0,0.0,0.0,0.0,0.0,0.0,0.0,0.0,0.0,0.0,0.0,0.0,0.0,0.0,0.0,0.0,0.0,0.0,1.1194,0.9861,0.8991,0.8075,0.0,0.5848,0.5586,0.6672,-0.0382,-0.457,-0.1058,0.0,0.0,0.0,0.0,0.0,0.0,0.0,0.0,0.0,0.0,0.0,0.0,0.0,0.0,0.0,0.0,0.0,0.0,0.0,0.0,0.0,0.0,0.0,0.0,0.0,0.0,0.0,0.0,0.0,0.0,0.0,0.0,0.0,0.0,0.0,0.0,0.0,0.0,0.0,0.0,0.0,0.0,0.0,0.0,0.0,0.0,0.0,0.0,0.0,0.0,0.0,0.0,0.0,-1.9965,-2.0736,-1.9421,-1.7205,-1.4088,-1.1066,-0.833,-0.5851,-0.188,0.0144,0.0,0.0,0.0,0.0,0.0,0.0,0.0,0.0,0.0,0.0,0.0,0.0,0.0,0.0,0.0,0.0,0.0,0.0,0.0,0.0,0.0,0.0,0.0,0.0,0.0,0.0,0.0,0.0,0.8826,0.8863,0.9154,0.0,0.0,0.0,0.0,0.0,0.0,0.0,0.0,0.0,0.0,1.0723,1.0025,0.9151,0.0,0.0,0.6825,0.5125,0.1433,-0.6445,-1.1069,-0.7826,-0.76,0.0,0.0,0.0,0.0,0.0,0.0,0.0,0.0,0.0,0.0,0.0,0.0,0.0,0.0,0.0,0.0,0.0,0.0,0.0,0.0,0.0,0.0,0.0,0.0,0.0,0.0,0.0,0.0,0.0,0.0,0.0,0.0,0.0,0.0,0.0,0.0,0.0,0.0,0.0,0.0,0.0,0.0,0.0,0.0,0.0,0.0,0.0,0.0,0.0,0.0,0.0,0.0,-1.8653,-1.9307,-1.7585,-1.5891,-1.4255,-1.1284,-0.9169,-0.7816,-0.6379,-0.5587,0.0,0.0,0.0,0.0,0.0,0.0,0.0,0.0,0.0,0.0,0.0,0.0,0.0,0.0,0.0,0.0,0.0,0.0,0.0,0.0,0.0,0.0,0.0,0.0,0.0,0.0,0.0,0.0,0.7273,0.7337,0.8612,0.0,0.0,0.0,0.0,0.0,0.0,0.0,0.0,0.0,0.0,1.0689,1.0409,0.9491,0.8604,0.8119,0.6909,0.3971,-0.1986,-0.9494,-1.395,-1.2127,0.0,0.0,0.0,0.0,0.0,0.0,0.0,0.0,0.0,0.0,0.0,0.0,0.0,0.0,0.0,0.0,0.0,0.0,0.0,0.0,0.0,0.0,0.0,0.0,0.0,0.0,0.0,0.0,0.0,0.0,1.1268,0.0,0.0,0.0,0.0,0.0,0.0,0.0,0.0,0.0,0.0,0.0,0.0,0.0,0.0,0.0,0.0,0.0,0.0,0.0,0.0,0.0,0.0,-1.8745,-1.9288,-1.8326,-1.7512,-1.6937,-1.6062,-1.5166,-1.4546,-1.4806,-1.434,-1.2951,0.0,0.0,0.0,0.0,0.0,0.0,0.0,0.0,0.0,0.0,0.0,0.0,0.0,0.0,0.0,0.0,0.0,0.0,0.0,0.0,0.0,0.0,0.0,0.0,0.0,0.0,0.652,0.5311,0.5259,0.0,0.0,0.0,0.0,0.0,0.0,0.0,0.0,0.0,0.0,1.1776,1.0889,1.0823,0.9808,0.9021,0.8761,0.5552,0.1597,-0.2607,-0.8472,-1.2656,0.0,0.0,0.0,0.0,0.0,0.0,0.0,0.0,0.0,0.0,0.0,0.0,0.0,0.0,0.0,0.0,0.0,0.0,0.0,0.0,0.0,0.0,0.0,0.0,0.0,0.0,0.0,0.6599,0.6904,0.0,0.0,0.0,0.0,0.0,0.0,0.0,0.0,0.0,0.0,0.0,-0.4293,-0.5308,0.0,0.0,0.0,0.0,0.0,0.0,0.0,0.0,0.0,0.0,0.0,0.0,-2.0076,-2.137,-2.0552,-2.0522,-2.1447,-2.0342,-1.9642,-1.9364,-1.8822,-1.7508,-1.5264,0.0,0.0,0.0,0.0,0.0,0.0,0.0,0.0,0.0,0.0,0.0,0.0,0.0,0.0,0.0,0.0,0.0,0.0,0.0,0.0,0.0,0.0,0.0,0.0,0.0,0.5632,0.0,0.0,0.0,0.0,0.0,0.0,0.0,0.0,0.0,0.0,0.0,1.1313,1.1308,1.0904,1.0313,0.9816,0.8811,0.8178,0.0,0.0,0.0,0.0,0.0,0.0,0.0,0.0,0.0,0.0,0.0,0.0,0.0,0.0,0.0991,0.3846,0.5141,0.6208,0.7611,0.0,0.0,0.0,0.0,0.0,0.0,0.0,0.0,0.0,0.0,0.0,0.0,0.0,0.0,0.3124,0.0,0.285,0.0,0.0,0.0,0.0,0.0,0.0,0.0,0.0,-0.3697,-0.4306,-0.6333,-0.7671,-0.9453,0.0,-1.3008,-1.3702,0.0,0.0,0.0,0.0,0.0,0.0,0.0,0.0,-2.1428,-2.2499,-2.2207,-2.2581,-2.3432,-2.2611,-2.2148,-2.2148,-2.1105,-1.9482,-1.7234,-1.5241,-1.338,0.0,0.0,0.0,0.0,0.0,0.0,0.0,0.0,0.0,0.0,0.0,0.0,0.0,0.0,0.0,0.0,0.0,0.0,0.0,0.0,0.0,0.0,0.0,0.3562,0.0,0.0,0.0,0.0,0.0,0.0,0.0,0.0,0.0,1.0642,1.0548,1.0272,1.0464,1.0203,0.992,0.9355,0.0,0.0,0.0,0.0,0.0,0.0,0.0,-1.2378,-1.1603,-0.9469,-0.7159,-0.5028,-0.4716,-0.5024,-0.5769,0.0,0.0,0.2522,0.476,0.6636,0.8228,0.9724,1.1325,1.3327,1.3889,1.479,0.0,0.0,0.0,0.0,0.0,0.0,0.0,0.0,-0.0,-0.0867,0.0,-0.1862,0.0,0.0,0.0,0.0,0.0,0.0521,0.0,0.0,-0.3997,-0.5976,-0.6953,-0.9521,-1.216,-1.4909,-1.6189,-1.7788,-1.9532,-1.8331,0.0,0.0,0.0,0.0,0.0,0.0,-2.2631,-2.2595,-2.3241,-2.3432,-2.3163,-2.3125,-2.3047,-2.295,-2.1774,-2.0339,-1.8912,-1.6915,-1.5049,-1.3345,-1.2037,0.0,0.0,0.0,0.0,0.0,0.0,0.0,0.0,0.0,0.0,0.0,0.0,0.0,0.0,0.0,0.0,0.0,0.0,0.0,0.0,0.2155,0.0,0.0,0.0,0.0,0.0,0.0,0.0,0.0,0.0,0.0,0.897,0.8747,0.8594,0.9709,0.0,0.0,0.0,0.0,0.5101,0.0955,-0.2697,-0.6681,-1.2064,-1.2297,-1.1123,-0.923,0.0,0.0,0.66,0.3191,-0.0834,-0.2061,-0.2307,-0.1735,-0.0259,0.3088,0.6054,0.7198,0.9905,1.2644,1.408,1.4794,1.6566,-0.4884,0.0,0.0,0.0,0.0,-0.3219,-0.4587,-0.5858,-0.7401,-0.8498,-0.9045,-0.8051,0.0,0.0,0.0,0.0,0.0,0.0,-0.4491,-0.6772,-0.7067,-0.7957,-0.968,-1.1979,-1.4378,-1.6844,-1.8046,-1.9636,-2.1607,-2.0551,-2.0369,-2.1007,0.0,0.0,0.0,0.0,-2.2934,-2.3569,-2.3158,-2.3058,-2.3591,-2.3229,-2.2677,-2.1845,-2.13,-2.0116,-1.8123,-1.7243,-1.5938,-1.4084,-1.3436,0.0,0.0,0.0,0.0,0.0,0.0,0.0,0.0,0.0,0.0,0.0,0.0,0.0,0.0,0.0,0.0,0.0,0.0,0.0,0.1009,-0.082,-0.1876,0.0,0.0,0.0,0.0,0.0,0.0,0.0,0.0,0.0,0.3462,0.6704,0.8059,0.0,0.0,0.5013,0.4259,0.3002,0.1085,-0.1906,-0.4983,0.0,0.0,-1.3962,-1.2689,-1.2627,-0.5104,0.2295,0.6103,0.5167,0.2653,-0.1389,-0.2049,-0.1868,-0.1428,-0.0515,0.1796,0.5625,0.7801,0.9311,1.1623,1.4524,1.8344,-1.411,-1.0887,-0.8571,-0.7872,-0.8396,-0.9202,-1.0348,-1.1768,-1.32,-1.4001,-1.4441,-1.3383,-1.2339,-1.1072,-0.7962,0.0,0.0,0.0,-0.7556,-0.9413,-0.9189,-1.0301,-1.2432,-1.4187,-1.6445,-1.9099,-1.976,-2.0975,-2.2654,-2.178,-2.1544,-2.1722,0.0,0.0,-2.2422,-2.2457,-2.2785,-2.3347,-2.2794,-2.2744,-2.3238,-2.2998,-2.2325,-2.1212,-2.0683,-1.9513,-1.7777,-1.6996,-1.6015,-1.4767,-1.4199,-1.3554,0.0,0.0,0.0,0.0,0.0,0.0,0.0,0.0,0.0,0.0,0.0,0.2403,0.202,0.0,0.0,0.0,0.0808,0.0304,-0.0611,-0.197,0.0,0.0,0.0,0.0,0.0,0.0,0.0,0.025,0.0763,0.0775,0.0131,0.0264,0.0663,0.1469,0.1344,0.0677,-0.0547,0.0,-0.416,-0.7486,-0.967,-1.229,-1.5946,-1.4755,-1.2418,-0.9412,-0.2969,0.2928,0.5776,0.5968,0.4158,0.0687,-0.1624,-0.2643,-0.1913,-0.2279,-0.1389,0.3268,0.4542,0.5541,0.8321,1.2088,1.6374,-2.3294,-2.3706,-1.792,-1.5752,-1.6102,-1.5411,-1.6163,-1.7761,-1.7782,-1.8222,-1.8926,-1.7953,-1.6867,-1.5432,-1.244,0.0,-1.0233,-1.029,-1.0246,-0.9972,-1.1071,-1.2816,-1.5005,-1.6076,-1.8122,-2.1285,-2.1501,-2.1951,-2.2592,-2.2292,-2.2097,-2.2106,-2.2264,-2.2353,-2.2353,-2.2432,-2.2441,-2.2353,-2.2432,-2.2432,-2.2441,-2.2315,-2.1845,-2.0863,-1.9977,-1.888,-1.7584,-1.6408,-1.5695,-1.5351,-1.4665,-1.4093,-1.3767,0.0,0.0,0.0,0.0,0.0,0.0,0.0,0.0,0.0,0.0,0.0,0.0,0.0,0.0,0.0,-0.0907,0.0,-0.1958,-0.2314,0.0,0.0,0.0,-0.2794,-0.3362,-0.2198,-0.162,-0.1795,0.0,0.0,-0.1972,-0.8143,-0.9965,-0.2931,-0.2926,-0.3989,-0.5328,-0.7139,-0.9967,-1.3983,-1.5169,-1.5571,-1.6321,-1.523,-1.1638,-0.4373,0.0127,0.2324,0.4956,0.5022,0.4066,0.1879,-0.1457,-0.3765,-0.2486,-0.321,-0.2952,0.0245,0.0867,0.174,0.4626,0.7733,1.1732,-3.11,-3.081,-2.902,-2.5678,-2.1378,-2.1306,-2.1777,-2.2693,-2.2733,-2.3269,-2.3916,-2.2399,-2.0476,-1.8215,-1.7421,-1.6573,-1.563,-1.5642,-1.5427,-1.5047,-1.5329,-1.6112,-1.7171,-1.8273,-1.9623,-2.1286,-2.1848,-2.2236,-2.2401,-2.2023,-2.183,-2.183,-2.183,-2.1998,-2.2176,-2.2353,-2.2353,-2.2185,-2.2353,-2.2441,-2.2344,-2.1867,-2.0952,-1.9579,-1.9147,-1.8141,-1.6292,-1.5954,-1.5617,-1.5097,-1.493,-1.4474,-1.3775,-1.3188,0.0,0.0,0.0,0.0,0.0,0.0,0.0,0.0,0.0,-0.1,-0.1407,0.0,-0.1797,0.0,-0.2812,-0.332,-0.4244,-0.4577,0.0,0.0,-0.6012,-0.5873,-0.5628,-0.5108,-0.5319,-0.6683,-0.6717,-0.6631,-0.683,-0.8502,-0.9754,-0.9695,-1.0437,-1.0737,-1.035,-1.1585,-1.3567,-1.5612,-1.6177,-1.6619,-1.7587,-1.6842,-1.3717,-0.7657,-0.522,-0.2976,0.0513,-0.0,-0.1168,-0.2349,-0.335,-0.4418,-0.4817,-0.4396,-0.3623,-0.2747,-0.2047,-0.1089,0.0476,0.3449,0.7606,-3.5505,-3.4853,-3.5108,-3.2687,-2.8711,-2.7286,-2.6999,-2.7507,-2.7232,-2.6976,-2.6597,-2.4813,-2.2898,-2.1097,-2.085,-2.0613,-2.0177,-1.9876,-1.9683,-1.959,-1.9292,-1.9646,-2.0605,-2.0445,-2.1002,-2.2249,-2.2062,-2.2061,-2.2052,-2.1841,-2.1731,-2.1731,-2.1731,-2.1741,-2.1919,-2.2008,-2.1998,-2.1919,-2.1998,-2.2087,-2.2078,-2.1697,-2.0766,-1.9222,-1.9063,-1.8048,-1.6021,-1.5927,-1.5779,-1.5371,-1.5224,-1.492,-1.4513,-1.4065,-1.3483,0.0,0.0,0.0,0.0,0.0,0.0,0.0,0.0,0.0,0.0,0.0,-0.4648,-0.5295,-0.5501,-0.5744,-0.6057,-0.6282,-0.6744,-0.7801,-0.7547,-0.7426,-0.7546,-0.7096,-0.7232,-0.8234,-0.8638,-0.8767,-0.8391,-0.9401,-1.0739,-1.2292,-1.3839,-1.4723,-1.4143,-1.5322,-1.6775,-1.7437,-1.7859,-1.7991,-1.7938,-1.7036,-1.5022,-1.1082,-0.9215,-0.7233,-0.4286,-0.4345,-0.501,-0.5052,-0.502,-0.5192,-0.5692,-0.4438,-0.3199,-0.3022,-0.2333,-0.1766,-0.153,0.166,0.5939,-3.7686,-3.6884,-3.7788,-3.7273,-3.5713,-3.2531,-3.124,-3.147,-3.0694,-2.9432,-2.7815,-2.6042,-2.465,-2.379,-2.3466,-2.3628,-2.3925,-2.3304,-2.3134,-2.3403,-2.2709,-2.3017,-2.4003,-2.2407,-2.2218,-2.3223,-2.2354,-2.183,-2.1731,-2.1731,-2.1731,-2.1731,-2.1731,-2.1731,-2.1731,-2.1731,-2.1731,-2.1731,-2.1731,-2.1731,-2.1731,-2.1651,-2.0907,-1.9338,-1.9155,-1.8241,-1.6312,-1.6224,-1.6008,-1.5765,-1.5538,-1.5378,-1.5337,-1.4942,-1.439,0.0,-1.3174,0.0,0.0,0.0,0.0,0.0,0.0,0.0,0.0,-0.8426,-0.7804,-0.8371,-0.8386,-0.8102,-0.7553,-0.7482,-0.793,-0.8889,-0.8584,-0.8442,-0.9084,-0.8702,-0.8381,-0.8366,-0.9025,-0.9227,-0.86,-1.0478,-1.215,-1.2812,-1.4729,-1.6385,-1.6954,-1.8221,-1.9024,-1.8835,-1.953,-1.9104,-1.7573,-1.6839,-1.563,-1.3372,-1.2215,-1.0944,-0.8936,-0.8625,-0.8486,-0.7422,-0.6945,-0.6533,-0.6009,-0.4226,-0.2793,-0.2391,-0.1601,-0.1156,-0.1051,0.1653,0.5558,-3.8256,-3.7514,-3.7762,-3.7296,-3.62,-3.4636,-3.3259,-3.2129,-3.0287,-2.8722,-2.7368,-2.6576,-2.6186,-2.602,-2.635,-2.635,-2.6244,-2.6137,-2.5549,-2.4766,-2.4608,-2.4295,-2.3899,-2.3466,-2.3144,-2.2909,-2.2665,-2.2274,-2.1731,-2.1731,-2.1731,-2.1731,-2.1731,-2.1731,-2.1731,0.0,0.0,0.0,-2.1731,-2.1731,-2.1642,-2.1562,-2.0826,-1.953,-1.9063,0.0,-1.6588,-1.6312,-1.6014,-1.5498,-1.5424,0.0,0.0,0.0,0.0,0.0,0.0,0.0,0.0,0.0,0.0,0.0,-1.2068,-1.1681,-1.1142,-1.1007,-1.0905,-1.0667,-1.0378,-0.992,-0.9214,-0.9341,-0.9565,-1.0015,-1.012,-1.0351,-1.0651,-1.0635,-1.0563,-1.059,-1.0722,-1.0715,-1.0582,-1.1185,-1.235,-1.4172,-1.5136,-1.636,-1.8519,-1.9386,-1.9855,-1.9417,-1.8988,-1.868,-1.8286,-1.7643,-1.6673,-1.5261,-1.5001,-1.4707,-1.3836,-1.333,-1.2997,-1.1748,-1.0813,-0.9295,-0.75,-0.5927,-0.4266,-0.2674,-0.1618,-0.046,0.1267,0.3021,0.5725,-3.8172,0.0,-3.7416,-3.6916,0.0,-3.4882,-3.4015,-3.3052,-3.1438,-2.9753,-2.8236,-2.7524,-2.7205,-2.7238,-2.7265,-2.7423,-2.7533,-2.7264,-2.6962,-2.6702,-2.6334,-2.5962,-2.549,-2.4716,-2.4155,-2.3831,-2.3144,-2.2627,-2.2274,-2.183,-2.1731,-2.1731,-2.1731,-2.1731,-2.1731,-2.1731,-2.1731,-2.1731,-2.1731,-2.1731,-2.1731,-2.1651,-2.1105,-2.0093,0.0,0.0,0.0,0.0,0.0,0.0,0.0,0.0,0.0,0.0,0.0,-1.4471,-1.422,-1.3945,-1.3541,-1.355,-1.3573,-1.3553,-1.4034,-1.3998,-1.3307,-1.3596,-1.3499,-1.2829,-1.2145,-1.1413,-1.0536,-1.0134,-0.9994,-1.0274,-1.0534,-1.0773,-1.0944,-1.1118,-1.122,-1.1212,-1.1147,-1.1094,-1.1098,-1.1171,-1.2029,-1.3848,-1.4619,-1.5626,-1.7331,-1.851,-1.8926,-1.8452,-1.7884,-1.7644,-1.7759,-1.7452,-1.7061,-1.6516,-1.6605,-1.6367,-1.5748,-1.5528,-1.4899,-1.3223,-1.1846,-1.0345,-0.8574,-0.6776,-0.5031,-0.3469,-0.2225,-0.0666,0.1899,0.423,0.6852,-3.7466,-3.6238,-3.6726,-3.6147,-3.4916,-3.4359,-3.3931,-3.3446,0.0,0.0,0.0,-2.8208,-2.7836,-2.7775,-2.7576,-2.7679,-2.8142,-2.7601,-2.7613,-2.7974,-2.7388,-2.7063,-2.7031,-2.5744,-2.502,-2.4765,-2.3744,-2.295,-2.258,-2.2078,-2.183,-2.1741,-2.1731,-2.1731,-2.1642,-2.1544,-2.1463,-2.1454,-2.1651,-2.1553,-2.1186,-2.1275,-2.0997,-2.0167,-1.9338,-1.8419,-1.7505,-1.6683,-1.6028,-1.573,-1.5547,-1.5445,-1.5452,-1.5267,-1.4885,-1.4496,-1.4394,-1.4201,-1.3708,-1.4082,-1.4303,-1.4372,-1.476,-1.5077,-1.5178,-1.5547,-1.535,-1.4394,-1.3318,-1.2325,-1.1416,-1.0436,-0.9912,-1.0095,-1.0371,-1.0554,-1.0611,-1.0879,-1.1041,-1.1029,-1.0919,-1.0875,-1.0867,-1.0867,-1.1325,-1.2682,-1.3886,-1.5043,-1.5931,-1.7073,-1.7649,-1.7304,-1.7069,-1.684,-1.6974,-1.6914,-1.6914,-1.7178,-1.7145,-1.6911,-1.6237,-1.6196,-1.5482,-1.351,-1.2119,-1.0961,-0.9403,-0.7539,-0.5603,-0.4256,-0.3185,-0.1703,0.1294,0.4344,0.7177,-3.5882,-3.4827,-3.5111,-3.4786,-3.4126,-3.3621,-3.2908,-3.209,-3.0929,-2.9721,-2.8607,-2.8057,-2.7836,-2.7859,-2.8168,-2.8094,-2.7679,-2.7591,-2.7239,0.0,-2.652,-2.6335,-2.6092,-2.5877,-2.5348,-2.4607,-2.4573,-2.3654,-2.2077,-2.2375,-2.2362,-2.1731,-2.1731,-2.1731,-2.1642,-2.0898,-2.0529,-2.0529,-2.1275,-2.0907,-1.9255,-1.9795,-1.9621,-1.8511,-1.787,-1.7326,-1.677,-1.6407,-1.6028,-1.554,-1.554,-1.5356,-1.5172,-1.5083,-1.5083,-1.4987,-1.479,-1.4573,-1.4543,-1.4382,-1.4382,-1.4638,-1.4771,-1.4975,-1.5356,-1.5547,-1.5159,-1.4394,-1.3318,-1.2252,-1.1311,-1.0255,-0.9742,-0.9896,-0.9969,-1.0059,-1.0229,-1.0432,-1.0517,-1.0383,-1.021,-1.0289,-1.0413,-1.0289,-1.0762,-1.2167,-1.3204,-1.4415,-1.5922,-1.6607,-1.6847,-1.678,-1.6734,-1.6727,-1.6747,-1.674,-1.6627,-1.6572,-1.6892,-1.6925,-1.638,-1.6749,-1.6478,-1.4694,-1.3782,-1.2629,-1.0569,-0.9043,-0.7416,-0.5695,-0.4432,-0.2952,-0.0834,0.1692,0.4642,-3.5626,-3.5058,-3.4421,-3.4047,-3.3841,-3.3231,-3.2562,-3.1903,-3.1437,-3.0639,-2.9635,-2.9415,-2.9193,-2.8859,-2.8068,-2.7736,-2.7678,-2.6922,-2.6429,-2.6285,-2.6128,-2.6077,-2.6107,-2.5678,-2.5443,-2.5242,-2.4509,-2.3704,-2.2843,-2.2394,-2.2008,-2.1741,-2.1731,-2.1731,-2.1642,-2.0808,-2.0068,-1.9513,-1.9894,-1.9712,-1.8796,-1.9155,-1.9063,-1.8519,-1.7692,-1.7232,-1.6958,-1.6204,-1.5737,-1.5547,-1.5261,-1.4975,-1.4885,-1.4783,-1.4688,-1.4688,-1.4592,-1.4496,-1.4496,-1.4394,-1.4394,-1.449,-1.4496,-1.4688,-1.5064,-1.5356,-1.535,-1.4968,-1.3607,-1.2533,-1.2047,-1.06,-0.9561,-0.9538,-0.9625,-0.9615,-0.9606,-0.9762,-0.9832,-0.9758,-0.9619,-0.965,-0.9855,-0.9778,-0.9987,-1.0974,-1.2219,-1.4032,-1.5999,-1.6135,-1.6135,-1.6135,-1.6233,-1.6306,-1.6426,-1.6319,-1.6268,-1.6514,-1.6667,-1.6687,-1.656,-1.6974,-1.6438,-1.5226,-1.4657,-1.3799,-1.1962,-1.0804,-0.943,-0.8109,-0.6779,-0.5315,-0.3458,-0.1026,0.2508,-3.5391,-3.512,-3.4024,-3.3482,-3.3295,-3.271,-3.2302,-3.2029,-3.2174,-3.1793,-3.1022,-3.0733,-3.0369,-2.9836,-2.8191,-2.7533,-2.7451,-2.6238,-2.577,-2.5978,-2.5749,-2.584,-2.5991,-2.5456,-2.5369,-2.5538,-2.4262,-2.3541,-2.3221,-2.2138,-2.1544,-2.1374,-2.1374,-2.1374,-2.1186,-2.0257,-1.9438,-1.8627,-1.8241,-1.8141,-1.8141,-1.8334,-1.8334,-1.8048,-1.7318,-1.6857,-1.6857,-1.592,-1.5356,-1.5261,-1.4879,-1.4694,-1.4592,-1.44,-1.4298,-1.4298,-1.4298,-1.4298,-1.4298,-1.4298,-1.4298,-1.4298,-1.4298,-1.4394,-1.4592,-1.4771,-1.5057,-1.5159,-1.3601,-1.2533,-1.2242,-1.0592,-0.9331,-0.9141,-0.9241,-0.9311,-0.9135,-0.9175,-0.9361,-0.9216,-0.9134,-0.9142,-0.932,-0.9366,-0.9658,-1.0566,-1.2005,-1.4004,-1.5583,-1.5671,-1.556,-1.5547,-1.5642,-1.5836,-1.6126,-1.5909,-1.5853,-1.617,-1.6301,-1.617,-1.6282,-1.6374,-1.6308,-1.5426,-1.5038,-1.4153,-1.2961,-1.1909,-1.0757,-0.9557,-0.835,-0.7235,-0.5529,-0.3442,-0.0103,-3.4888,-3.3896,-3.3671,-3.284,-3.2034,-3.1862,-3.2077,-3.2302,-3.2389,-3.2326,-3.1989,-3.1035,-3.0595,-3.0311,-2.901,-2.7846,-2.7161,-2.6229,-2.554,-2.5093,-2.503,-2.5105,-2.5285,-2.5221,-2.5179,-2.4978,-2.4135,-2.3114,-2.2127,-2.1542,-2.1087,-2.0473,-2.0473,-2.0192,-1.9712,-1.8788,-1.8172,-1.786,-1.669,-1.6103,-1.6109,-1.6951,-1.7044,-1.6103,-1.5825,-1.5635,-1.573,-1.5369,-1.4987,-1.4783,-1.4694,-1.4592,-1.4394,-1.4298,-1.4298,-1.4298,-1.4298,-1.4298,-1.4298,-1.4298,-1.4298,-1.4298,-1.4298,-1.4298,-1.4298,-1.3709,-1.3902,-1.4394,-1.3221,-1.2047,-1.1955,-1.0194,-0.8928,-0.8825,-0.8847,-0.8847,-0.8777,-0.8996,-0.9041,-0.8885,-0.8798,-0.8882,-0.8991,-0.8874,-0.9681,-1.151,-1.272,-1.4034,-1.5107,-1.5402,-1.5356,-1.5267,-1.5172,-1.5274,-1.5701,-1.5675,-1.5408,-1.4908,-1.5544,-1.5771,-1.546,-1.5842,-1.6467,-1.5778,-1.5083,-1.4103,-1.2747,-1.1463,-1.0923,-1.0027,-0.8916,-0.7723,-0.652,-0.5427,-0.2941,-3.5526,-3.5301,-3.4097,-3.3083,-3.2363,-3.2438,-3.245,-3.24,-3.255,-3.2587,-3.2604,-3.1562,-3.0909,-3.0503,-2.853,-2.7476,-2.6976,-2.5684,-2.4946,-2.47,-2.4711,-2.4786,-2.4946,-2.4861,-2.4861,-2.4925,-2.3694,-2.2698,-2.2221,-2.1221,-2.0555,-2.0292,-2.0292,-2.0011,-1.9247,-1.8334,-1.7598,-1.7044,-1.5927,-1.5363,-1.5458,-1.592,-1.6008,-1.5635,-1.5363,-1.5267,-1.5267,-1.4981,-1.479,-1.4688,-1.4592,-1.4394,-1.4298,-1.4298,-1.4298,-1.4298,-1.4298,-1.4298,-1.4298,-1.4298,-1.4298,-1.4298,-1.4298,-1.4094,-1.342,-1.3022,-1.2926,-1.263,-1.1755,-1.1077,-1.0877,-0.9702,-0.8726,-0.8627,-0.8528,-0.8528,-0.8336,-0.8392,-0.8396,-0.8347,-0.8289,-0.8334,-0.8431,-0.8532,-0.9526,-1.15,-1.261,-1.3459,-1.4706,-1.5077,-1.507,-1.4981,-1.4298,-1.4292,-1.5064,-1.5363,-1.5077,-1.5006,-1.5358,-1.5447,-1.5364,-1.5588,-1.6079,-1.5763,-1.4986,-1.4237,-1.363,-1.2032,-1.0979,-1.0301,-0.9719,-0.8726,-0.8322,-0.7518,-0.5952,-3.5902,-3.5798,-3.4134,-3.3031,-3.245,-3.2624,-3.2537,-3.2276,-3.2302,-3.25,-3.2657,-3.158,-3.0891,-3.0318,-2.8115,-2.7139,-2.6894,-2.5274,-2.455,-2.455,-2.455,-2.4615,-2.4786,-2.4625,-2.47,-2.469,-2.3096,-2.2031,-2.1587,-2.0538,-1.9928,-1.9928,-1.992,-1.9546,-1.8888,-1.7963,-1.7008,-1.6035,-1.5432,-1.5077,-1.507,-1.5166,-1.5356,-1.5356,-1.5172,-1.4987,-1.4981,-1.4688,-1.4592,-1.4586,-1.4394,-1.4298,-1.4298,-1.4298,-1.4298,-1.4298,-1.4298,-1.4298,-1.4298,-1.4298,-1.4298,-1.4298,-1.41,-1.3511,-1.2823,-1.2145,-1.156,-1.0877,-1.0096,-0.9801,-1.0096,-0.9217,-0.8528,-0.8333,-0.8333,-0.8237,-0.8038,-0.8038,-0.8041,-0.8038,-0.8045,-0.8038,-0.8038,-0.824,-0.913,-1.0974,-1.1868,-1.2549,-1.4004,-1.4298,-1.4202,-1.4106,-1.3022,-1.3221,-1.4592,-1.4298,-1.44,-1.44,-1.431,-1.4304,-1.449,-1.4484,-1.4771,-1.4094,-1.3902,-1.3511,-1.2727,-1.1658,-1.0979,-1.069,-1.0109,-0.9529,-0.9324,-0.8821,-0.8524,-3.5854,-3.4713,-3.3313,-3.245,-3.1749,-3.1813,-3.1925,-3.1928,-3.154,-3.1491,-3.1791,-3.0904,-3.0473,-3.0411,-2.8115,-2.7139,-2.6905,-2.5274,-2.455,-2.455,-2.455,-2.455,-2.454,-2.455,-2.455,-2.4444,-2.2668,-2.0881,-1.9271,-1.9012,-1.8827,-1.892,-1.892,-1.8635,-1.8164,-1.7412,-1.6331,-1.5227,-1.5032,-1.4981,-1.4867,-1.4783,-1.4879,-1.5077,-1.4885,-1.4688,-1.4688,-1.449,-1.4298,-1.4298,-1.4298,-1.4298,-1.4298,-1.4298,-1.4298,-1.4298,-1.4298,-1.4298,-1.4298,-1.4298,-1.4298,-1.4106,-1.3414,-1.2727,-1.2339,-1.0974,-1.0002,-0.9702,-0.8825,-0.8627,-0.9312,-0.8726,-0.8137,-0.8038,-0.8038,-0.8038,-0.8038,-0.8038,-0.8038,-0.8038,-0.8038,-0.8038,-0.8038,-0.8038,-0.8612,-1.0066,-1.157,-1.2586,-1.2737,-1.3022,-1.2732,-1.1955,-1.1663,-1.215,-1.4202,-1.3516,-1.2344,-1.2339,-1.2528,-1.2042,-1.1458,-1.1365,-1.2042,-1.2533,-1.2533,-1.2242,-1.156,-1.1077,-1.0498,-1.0109,-0.9817,-0.9525,-0.9422,-0.9525,-0.9327,-3.5827,-3.4647,-3.3713,-3.2957,-3.2326,-3.1982,-3.1737,-3.1442,-3.0907,-3.094,-3.1257,-3.0586,-3.0436,-3.0503,-2.8115,-2.7139,-2.6905,-2.5274,-2.455,-2.455,-2.455,-2.455,-2.455,-2.455,-2.455,-2.4186,-2.258,-2.0718,-1.9004,-1.8827,-1.8827,-1.8827,-1.8827,-1.845,-1.7792,-1.7138,-1.6177,-1.5292,-1.4854,-1.4586,-1.449,-1.449,-1.4496,-1.4592,-1.4496,-1.449,-1.44,-1.4394,-1.4298,-1.4298,-1.4298,-1.4298,-1.4298,-1.4298,-1.4298,-1.4298,-1.4298,-1.4298,-1.4298,-1.4298,-1.4004,-1.3318,-1.2926,-1.2047,-1.0872,-0.9998,-0.9316,-0.8627,-0.8333,-0.8237,-0.8333,-0.8233,-0.8038,-0.8038,-0.8038,-0.8038,-0.8038,-0.8038,-0.8038,-0.8038,-0.8038,-0.8038,-0.8038,-0.8038,-0.8219,-0.8776,-0.9882,-1.0886,-1.1565,-1.1853,-1.1658,-1.1272,-1.0685,-1.0685,-1.2247,-1.2052,-1.1361,-1.1151,-1.1142,-1.1239,-1.0951,-1.1063,-1.175,-1.1653,-1.1556,-1.117,-1.0685,-1.0297,-0.9813,-0.9517,-0.9126,-0.9225,-0.9122,-0.9225,-0.9331,-3.5156,-3.4327,-3.3445,-3.2785,-3.2289,-3.1846,-3.1357,-3.1028,-3.0445,-3.0388,-3.0548,-3.0238,-3.0002,-2.9622,-2.7963,-2.6905,-2.6577,-2.5189,-2.455,-2.455,-2.455,-2.455,-2.455,-2.455,-2.455,-2.4196,-2.258,-2.0718,-1.9004,-1.8827,-1.8827,-1.8827,-1.8827,-1.8542,-1.7978,-1.7044,-1.6292,-1.5724,-1.4771,-1.4298,-1.4298,-1.4298,-1.4298,-1.4298,-1.4298,-1.4298,-1.4298,-1.4298,-1.4298,-1.4298,-1.4298,-1.4298,-1.4298,-1.4298,-1.4298,-1.4298,-1.4298,-1.4298,-1.4202,-1.4004,-1.3414,-1.2727,-1.2047,-1.0974,-0.9702,-0.9316,-0.8726,-0.8137,-0.8038,-0.8038,-0.8038,-0.8038,-0.8038,-0.8038,-0.8038,-0.8038,-0.8038,-0.8038,-0.8038,-0.8038,-0.8038,-0.8038,-0.8038,-0.8038,-0.8223,-0.8587,-0.9296,-0.9899,-1.0485,-1.0685,-1.0489,-1.019,-0.9509,-0.941,-1.0096,-0.9998,-1.0293,-1.0181,-0.9882,-1.007,-1.0266,-1.0667,-1.0774,-1.0681,-1.0485,-1.0194,-0.9903,-0.9418,-0.9126,-0.8825,-0.8825,-0.8924,-0.8928,-0.8928,-0.9031,-3.3725,-3.3556,-3.2251,-3.1813,-3.1604,-3.1098,-3.0917,-3.0664,-2.9949,-2.9756,-2.9868,-2.9522,-2.9113,-2.8486,-2.7499,-2.6565,-2.583,-2.4946,-2.455,-2.455,-2.455,-2.455,-2.455,-2.455,-2.4368,-2.41,-2.2492,-2.0709,-1.892,-1.8827,-1.8827,-1.8827,-1.8827,-1.8735,-1.8743,-1.7333,-1.6588,-1.6204,-1.5057,-1.4298,-1.4298,-1.4298,-1.4298,-1.4298,-1.4298,-1.4298,-1.4298,-1.4298,-1.4298,-1.4298,-1.4298,-1.4298,-1.4298,-1.4298,-1.4298,-1.4298,-1.4298,-1.4298,-1.4106,-1.3318,-1.2829,-1.2145,-1.0779,-0.9805,-0.9414,-0.8627,-0.8137,-0.8038,-0.8038,-0.8038,-0.8038,-0.8038,-0.8048,-0.8041,-0.8055,-0.8041,-0.8055,-0.8041,-0.8038,-0.8038,-0.8038,-0.8038,-0.8038,-0.8038,-0.8333,-0.9221,-0.9513,-0.941,-0.9509,-0.9608,-0.9118,-0.8528,-0.8333,-0.8627,-0.8333,-0.8137,-0.8726,-0.9118,-0.8722,-0.8619,-0.8814,-0.9015,-0.9213,-0.9213,-0.941,-0.9118,-0.9316,-0.8928,-0.8829,-0.863,-0.8726,-0.8627,-0.863,-0.8634,-0.873,-3.3043,-3.2871,-3.2101,-3.1444,-3.1072,-3.0555,-3.0146,-2.9737,-2.9258,-2.9126,-2.9181,-2.8773,-2.8462,-2.8131,-2.6894,-2.6069,-2.5746,-2.4935,-2.455,-2.455,-2.455,-2.455,-2.455,-2.4464,-2.3831,-2.258,-2.132,-2.0076,-1.9004,-1.8827,-1.8827,-1.8827,-1.8827,-1.8827,-1.8735,-1.7333,-1.6588,-1.6393,-1.5057,-1.4298,-1.4298,-1.4298,-1.4298,-1.4298,-1.4298,-1.4298,-1.4298,-1.4298,-1.4298,-1.4298,-1.4298,-1.4298,-1.4298,-1.4298,-1.4298,-1.4298,-1.4298,-1.3902,-1.3318,-1.2829,-1.195,-1.0877,-0.9899,-0.9213,-0.8627,-0.8233,-0.8038,-0.8038,-0.8038,-0.8038,-0.8038,-0.8038,-0.8082,-0.8184,-0.8106,-0.8082,-0.8143,-0.8096,-0.8048,-0.8038,-0.8038,-0.8038,-0.8038,-0.8038,-0.8237,-0.8634,-0.863,-0.8528,-0.8528,-0.8627,-0.8432,-0.8038,-0.8038,-0.8038,-0.8038,-0.8038,-0.8333,-0.8627,-0.8233,-0.8038,-0.8038,-0.8038,-0.8038,-0.8137,-0.8233,-0.8333,-0.8531,-0.8531,-0.8432,-0.8333,-0.8333,-0.8233,-0.8233,-0.8333,-0.8531,-3.2711,-3.2599,-3.1794,-3.1291,-3.0893,-3.0206,-2.9699,-2.9488,-2.9114,-2.8882,-2.8645,-2.8395,-2.7959,-2.7383,-2.6235,-2.5663,-2.5253,-2.469,-2.455,-2.455,-2.455,-2.455,-2.4454,-2.409,-2.3018,-2.1418,-2.0619,-1.9812,-1.8827,-1.8827,-1.8827,-1.8827,-1.8827,-1.8827,-1.8643,-1.7333,-1.6588,-1.6393,-1.5057,-1.4298,-1.4298,-1.4298,-1.4298,-1.4298,-1.4298,-1.4298,-1.4298,-1.4395,-1.4401,-1.4322,-1.4298,-1.4298,-1.4298,-1.4298,-1.4298,-1.4202,-1.3908,-1.3414,-1.2732,-1.1945,-1.1072,-0.9801,-0.9213,-0.8726,-0.8137,-0.8038,-0.8038,-0.8038,-0.8038,-0.8038,-0.8038,-0.8038,-0.8109,-0.8248,-0.813,-0.8092,-0.8153,-0.8102,-0.8048,-0.8038,-0.8038,-0.8038,-0.8038,-0.8038,-0.8038,-0.8038,-0.8038,-0.8038,-0.8038,-0.8038,-0.8038,-0.8038,-0.8038,-0.8038,-0.8038,-0.8038,-0.8038,-0.8137,-0.8038,-0.8038,-0.8038,-0.8038,-0.8038,-0.8038,-0.8137,-0.8137,-0.8237,-0.8237,-0.8233,-0.8038,-0.8038,-0.8038,-0.8137,-0.8137,-0.8233,-3.2612,-3.2513,-3.1478,-3.1051,-3.0968,-2.9963,-2.9516,-2.9621,-2.9193,-2.8554,-2.8131,-2.8039,-2.7395,-2.6152,-2.5746,-2.5263,-2.4625,-2.454,-2.455,-2.455,-2.4464,-2.4454,-2.4176,-2.328,-2.1943,-2.061,-2.0249,-1.9629,-1.8827,-1.8827,-1.8827,-1.8827,-1.8827,-1.8735,-1.8357,-1.7239,-1.6581,-1.6204,-1.5057,-1.4298,-1.4298,-1.4298,-1.4298,-1.4298,-1.4298,-1.4316,-1.4395,-1.4594,-1.4606,-1.437,-1.4358,-1.4346,-1.431,-1.4298,-1.4298,-1.41,-1.3221,-1.263,-1.2145,-1.0877,-0.9706,-0.9316,-0.8627,-0.8038,-0.8038,-0.8038,-0.8038,-0.8038,-0.8038,-0.7939,-0.7839,-0.7939,-0.8006,-0.8204,-0.8143,-0.8085,-0.8045,-0.8041,-0.8038,-0.8038,-0.8038,-0.8038,-0.8038,-0.8038,-0.8038,-0.8038,-0.8038,-0.8038,-0.8038,-0.8038,-0.8038,-0.8038,-0.8038,-0.8038,-0.8038,-0.8038,-0.8038,-0.8528,-0.8333,-0.8038,-0.8038,-0.8038,-0.8038,-0.8038,-0.8038,-0.8038,-0.8038,-0.8038,-0.8038,-0.8038,-0.8038,-0.8038,-0.8038,-0.8038,-0.8134,-3.2043,-3.1798,-3.1969,-3.1308,-3.033,-3.0294,-2.9564,-2.8462,-2.8375,-2.7891,-2.7232,-2.6648,-2.6318,-2.5746,-2.5105,-2.47,-2.454,-2.455,-2.455,-2.455,-2.455,-2.409,-2.3193,-2.1854,-2.0791,-2.0249,-1.9538,-1.9004,-1.8827,-1.8827,-1.8827,-1.8827,-1.8735,-1.845,-1.7885,-1.7052,-1.6298,-1.5717,-1.4867,-1.4298,-1.4298,-1.4298,-1.4298,-1.4298,-1.4298,-1.4407,-1.4594,-1.4748,-1.4766,-1.463,-1.4606,-1.4503,-1.434,-1.4316,-1.3919,-1.3216,-1.2829,-1.195,-1.0681,-0.9899,-0.9217,-0.8531,-0.8237,-0.8038,-0.8038,-0.8038,-0.8038,-0.8038,-0.7939,-0.7637,-0.7135,-0.754,-0.7869,-0.8099,-0.8157,-0.8153,-0.8065,-0.8038,-0.8038,-0.8038,-0.8038,-0.8038,-0.8038,-0.8038,-0.8038,-0.8038,-0.8038,-0.8038,-0.8038,-0.8137,-0.8233,-0.8038,-0.8038,-0.8038,-0.8038,-0.8038,-0.8233,-0.892,-0.8726,-0.8137,-0.8038,-0.8038,-0.8038,-0.8038,-0.8038,-0.8038,-0.8038,-0.8038,-0.8038,-0.8038,-0.8038,-0.8038,-0.8038,-0.8038,-0.8233,-3.2017,-3.1896,-3.2007,-3.1464,-3.0417,-3.0056,-2.9174,-2.8158,-2.7637,-2.7151,-2.64,-2.5997,-2.5589,-2.5179,-2.47,-2.455,-2.455,-2.455,-2.455,-2.4358,-2.3647,-2.3028,-2.2227,-2.097,-2.0076,-1.9629,-1.9096,-1.8827,-1.8827,-1.8827,-1.8635,-1.835,-1.8357,-1.7978,-1.7232,-1.648,-1.5913,-1.5337,-1.4675,-1.4298,-1.4298,-1.4298,-1.4298,-1.4298,-1.431,-1.4461,-1.4835,-1.5017,-1.5035,-1.4837,-1.476,-1.4652,-1.4412,-1.3969,-1.343,-1.2754,-1.195,-1.0779,-0.9805,-0.9217,-0.8627,-0.8137,-0.8038,-0.8038,-0.8038,-0.8038,-0.7939,-0.7338,-0.7338,-0.6734,-0.6134,-0.6736,-0.7469,-0.8046,-0.8218,-0.8208,-0.8058,-0.8038,-0.8038,-0.8038,-0.8038,-0.8038,-0.7939,-0.7939,-0.7939,-0.8038,-0.8038,-0.8038,-0.8038,-0.8333,-0.8627,-0.8726,-0.9023,-0.9312,-0.941,-0.941,-0.9209,-0.9698,-0.9899,-0.9118,-0.8535,-0.8435,-0.8233,-0.8233,-0.8137,-0.8038,-0.8233,-0.8233,-0.8038,-0.8038,-0.8038,-0.8233,-0.8432,-0.8432,-0.8528,-3.2413,-3.2265,-3.1859,-3.1363,-3.0589,-2.9366,-2.8573,-2.803,-2.7139,-2.6318,-2.5746,-2.5663,-2.5179,-2.455,-2.454,-2.455,-2.455,-2.455,-2.4368,-2.3831,-2.2853,-2.1774,-2.1427,-2.0529,-1.9637,-1.9004,-1.8827,-1.8827,-1.8735,-1.8735,-1.835,-1.7878,-1.7692,-1.7131,-1.648,-1.5818,-1.5432,-1.5153,-1.458,-1.4298,-1.4298,-1.4298,-1.4298,-1.431,-1.4455,-1.4654,-1.504,-1.5342,-1.5427,-1.5203,-1.5053,-1.4903,-1.47,-1.3729,-1.2934,-1.2387,-1.0969,-0.9756,-0.9343,-0.8556,-0.8055,-0.8072,-0.8058,-0.8055,-0.8069,-0.8062,-0.764,-0.6637,-0.6437,-0.6032,-0.5632,-0.5939,-0.6911,-0.7919,-0.8275,-0.8225,-0.8106,-0.8062,-0.7959,-0.7839,-0.7839,-0.7836,-0.7839,-0.7839,-0.7839,-0.8038,-0.8038,-0.8237,-0.8531,-0.8924,-0.9414,-0.9805,-1.0293,-1.0979,-1.0974,-1.0974,-1.0676,-1.0672,-1.1068,-1.0685,-0.962,-0.9229,-0.8829,-0.8627,-0.9118,-0.9217,-0.892,-0.8722,-0.8528,-0.8333,-0.8627,-0.892,-0.9217,-0.9118,-0.9217,-3.2214,-3.1622,-3.1934,-3.0894,-2.9221,-2.9112,-2.8117,-2.64,-2.6152,-2.5589,-2.4946,-2.4775,-2.47,-2.455,-2.455,-2.455,-2.4454,-2.4454,-2.4186,-2.329,-2.2315,-2.1239,-2.0619,-1.9629,-1.9096,-1.8827,-1.8827,-1.8827,-1.8735,-1.8257,-1.7885,-1.7598,-1.6951,-1.648,-1.5724,-1.5439,-1.5051,-1.4675,-1.4394,-1.4304,-1.4322,-1.4304,-1.4298,-1.4334,-1.4684,-1.495,-1.5161,-1.5553,-1.5765,-1.5692,-1.5627,-1.5409,-1.4874,-1.3881,-1.2908,-1.1909,-1.058,-0.9423,-0.87,-0.832,-0.8092,-0.8184,-0.8119,-0.8089,-0.8204,-0.8116,-0.7556,-0.6637,-0.6134,-0.5939,-0.5734,-0.5503,-0.6374,-0.7564,-0.8163,-0.828,-0.8262,-0.8116,-0.7753,-0.7068,-0.6836,-0.6736,-0.6736,-0.6936,-0.7238,-0.7739,-0.8237,-0.8531,-0.9027,-0.9616,-1.0199,-1.0779,-1.1365,-1.195,-1.195,-1.195,-1.1848,-1.1838,-1.2139,-1.2344,-1.1282,-1.06,-1.0395,-1.0391,-1.0587,-1.0391,-0.9899,-1.0096,-0.9998,-0.9608,-0.9312,-0.9706,-0.9899,-0.9899,-1.0293,-3.2231,-3.1718,-3.1385,-3.033,-2.8886,-2.828,-2.7194,-2.5895,-2.5337,-2.4946,-2.4529,-2.455,-2.455,-2.455,-2.455,-2.455,-2.4368,-2.3993,-2.3637,-2.2833,-2.1774,-2.0791,-2.0257,-1.9363,-1.8827,-1.8827,-1.8827,-1.8643,-1.8257,-1.7878,-1.7311,-1.6655,-1.6197,-1.5629,-1.4962,-1.4962,-1.4682,-1.4394,-1.4304,-1.4346,-1.4467,-1.4358,-1.4298,-1.4401,-1.4805,-1.5113,-1.5149,-1.5608,-1.5837,-1.5861,-1.587,-1.5682,-1.5033,-1.3713,-1.2516,-1.1676,-1.0067,-0.9039,-0.8367,-0.8204,-0.8187,-0.8265,-0.8191,-0.8252,-0.8316,-0.8286,-0.7394,-0.6228,-0.5599,-0.5385,-0.5044,-0.5627,-0.6107,-0.6503,-0.7229,-0.7272,-0.6992,-0.7205,-0.7283,-0.6573,-0.6437,-0.6437,-0.6437,-0.6634,-0.7235,-0.8038,-0.892,-0.9217,-0.9706,-1.0297,-1.1272,-1.195,-1.2441,-1.2829,-1.2829,-1.292,-1.292,-1.3017,-1.3312,-1.3414,-1.3039,-1.2549,-1.2247,-1.1955,-1.1468,-1.1175,-1.0779,-1.1175,-1.1272,-1.0681,-1.0386,-1.0583,-1.0877,-1.1268,-1.1853,-3.2114,-3.1843,-3.0707,-2.9699,-2.8751,-2.7436,-2.637,-2.5549,-2.4871,-2.454,-2.455,-2.455,-2.455,-2.455,-2.455,-2.455,-2.4272,-2.3551,-2.3096,-2.257,-2.1141,-2.0339,-1.9803,-1.9188,-1.8643,-1.8643,-1.855,-1.8257,-1.7878,-1.7404,-1.656,-1.5622,-1.5248,-1.4962,-1.4484,-1.4298,-1.4437,-1.4395,-1.4413,-1.4527,-1.4714,-1.4582,-1.4485,-1.4491,-1.4829,-1.5101,-1.5215,-1.5578,-1.5885,-1.5885,-1.5885,-1.5665,-1.4884,-1.352,-1.2188,-1.1803,-0.9902,-0.8689,-0.8508,-0.8336,-0.8313,-0.8323,-0.8306,-0.8374,-0.8472,-0.8364,-0.7449,-0.615,-0.5184,-0.4444,-0.3467,-0.4334,-0.5035,-0.5419,-0.5943,-0.5969,-0.5721,-0.611,-0.6476,-0.6194,-0.6253,-0.6437,-0.6734,-0.7033,-0.7633,-0.8333,-0.9217,-0.9998,-1.0489,-1.1072,-1.2047,-1.2829,-1.3318,-1.3516,-1.3516,-1.3511,-1.3607,-1.3703,-1.3998,-1.4004,-1.4106,-1.3715,-1.3125,-1.2538,-1.2052,-1.1858,-1.1955,-1.2247,-1.215,-1.1658,-1.1463,-1.156,-1.2047,-1.263,-1.3221,-3.17,-3.0871,-3.0623,-2.9331,-2.7568,-2.7113,-2.6096,-2.4882,-2.4625,-2.455,-2.455,-2.455,-2.455,-2.455,-2.455,-2.455,-2.4272,-2.3464,-2.2658,-2.1952,-2.0709,-1.9894,-1.9188,-1.8819,-1.845,-1.7978,-1.7785,-1.7692,-1.7217,-1.6466,-1.5812,-1.5343,-1.4777,-1.4394,-1.4394,-1.431,-1.4413,-1.4564,-1.4606,-1.4745,-1.4956,-1.4974,-1.4781,-1.466,-1.4944,-1.5107,-1.5221,-1.559,-1.5885,-1.5885,-1.5885,-1.5322,-1.4303,-1.2994,-1.2313,-1.1603,-0.9892,-0.8645,-0.8587,-0.8401,-0.8421,-0.8567,-0.8516,-0.8526,-0.8601,-0.8557,-0.7737,-0.6532,-0.4946,-0.3793,-0.3377,-0.399,-0.4257,-0.4951,-0.5903,-0.6409,-0.6378,-0.6495,-0.6497,-0.6042,-0.6191,-0.6734,-0.7325,-0.8018,-0.8715,-0.941,-1.0194,-1.0974,-1.156,-1.2047,-1.2732,-1.342,-1.41,-1.4202,-1.4202,-1.4106,-1.4004,-1.4004,-1.4202,-1.4196,-1.4202,-1.4298,-1.3908,-1.3221,-1.3221,-1.342,-1.3516,-1.342,-1.3125,-1.2635,-1.2538,-1.2533,-1.2829,-1.3119,-1.3414,-3.1085,-3.0515,-2.9806,-2.8623,-2.7174,-2.6577,-2.5673,-2.4625,-2.455,-2.455,-2.455,-2.455,-2.455,-2.455,-2.455,-2.455,-2.4176,-2.294,-2.2227,-2.1427,-2.0257,-1.9363,-1.8719,-1.8434,-1.8071,-1.7505,-1.703,-1.656,-1.6466,-1.5812,-1.5242,-1.4771,-1.4394,-1.4298,-1.4298,-1.4304,-1.4461,-1.466,-1.4745,-1.4926,-1.527,-1.5306,-1.5065,-1.4757,-1.5004,-1.5209,-1.5215,-1.5614,-1.5553,-1.5018,-1.4443,-1.3804,-1.3171,-1.2309,-1.1542,-1.1197,-0.9836,-0.8675,-0.8726,-0.8525,-0.8638,-0.8679,-0.8638,-0.8682,-0.8743,-0.8585,-0.8114,-0.6824,-0.611,-0.4755,-0.4224,-0.4384,-0.4626,-0.455,-0.5615,-0.6263,-0.6553,-0.6975,-0.6918,-0.6573,-0.7095,-0.7826,-0.84,-0.9091,-0.9788,-1.0485,-1.1077,-1.176,-1.2436,-1.2737,-1.3033,-1.3329,-1.3721,-1.3913,-1.4016,-1.4112,-1.4202,-1.4298,-1.4298,-1.4298,-1.4298,-1.4298,-1.4298,-1.4004,-1.4298,-1.4298,-1.4202,-1.3908,-1.3811,-1.3613,-1.3516,-1.3414,-1.3511,-1.3703,-1.3806,-3.0557,-3.0328,-2.9224,-2.8131,-2.7069,-2.64,-2.5505,-2.4615,-2.455,-2.455,-2.455,-2.455,-2.455,-2.455,-2.4529,-2.4423,-2.417,-2.2446,-2.1627,-2.1148,-1.9552,-1.8597,-1.8517,-1.8157,-1.7657,-1.7072,-1.6553,-1.5527,-1.5534,-1.5248,-1.4867,-1.4586,-1.4298,-1.4298,-1.4298,-1.4389,-1.4533,-1.4721,-1.4877,-1.5131,-1.5457,-1.5487,-1.5191,-1.4582,-1.5131,-1.5342,-1.5089,-1.5584,-1.5258,-1.4067,-1.2744,-1.1774,-1.1851,-1.1219,-1.0566,-1.0241,-0.9372,-0.8986,-0.8845,-0.8815,-0.8845,-0.891,-0.8832,-0.8876,-0.8879,-0.8685,-0.8165,-0.699,-0.6489,-0.586,-0.4977,-0.5281,-0.511,-0.4822,-0.5275,-0.6218,-0.6804,-0.7555,-0.8571,-0.851,-0.8549,-0.8916,-0.9493,-0.9887,-1.0489,-1.0886,-1.1575,-1.1965,-1.2549,-1.2651,-1.2851,-1.2953,-1.3147,-1.334,-1.363,-1.3919,-1.4112,-1.4298,-1.4298,-1.4298,-1.4298,-1.4298,-1.4298,-1.4298,-1.4298,-1.4298,-1.4298,-1.4298,-1.4106,-1.4004,-1.4202,-1.4202,-1.4004,-1.4004,-1.41,-3.0344,-2.9892,-2.9739,-2.8645,-2.7232,-2.6987,-2.6008,-2.4615,-2.454,-2.455,-2.454,-2.4519,-2.4498,-2.4447,-2.4457,-2.4271,-2.3558,-2.2179,-2.1227,-2.086,-1.915,-1.8208,-1.8351,-1.8359,-1.7447,-1.6771,-1.6397,-1.5994,-1.5439,-1.4771,-1.449,-1.4298,-1.4298,-1.4298,-1.422,-1.4358,-1.4799,-1.504,-1.5173,-1.5425,-1.5617,-1.5503,-1.5227,-1.4951,-1.5173,-1.5124,-1.4761,-1.5198,-1.5039,-1.3588,-1.089,-1.0097,-1.0639,-1.0781,-1.0021,-0.9482,-0.895,-0.8984,-0.9049,-0.9052,-0.9089,-0.9133,-0.9123,-0.9117,-0.9106,-0.8931,-0.8391,-0.6895,-0.6829,-0.6711,-0.5996,-0.5396,-0.512,-0.549,-0.6147,-0.7044,-0.7715,-0.8585,-0.9581,-1.0164,-1.0109,-1.0105,-1.0391,-1.0792,-1.1194,-1.1585,-1.198,-1.237,-1.2565,-1.2565,-1.2662,-1.2662,-1.2953,-1.3147,-1.3443,-1.3732,-1.4016,-1.4202,-1.4298,-1.4298,-1.4298,-1.4298,-1.4298,-1.4298,-1.4298,-1.4298,-1.4298,-1.4298,-1.4298,-1.4298,-1.4298,-1.4298,-1.4298,-1.4298,-1.4298,-3.0005,-2.9792,-2.9779,-2.9052,-2.7971,-2.7891,-2.6905,-2.5505,-2.5263,-2.4946,-2.4478,-2.425,-2.4033,-2.3867,-2.3774,-2.3826,-2.3398,-2.1931,-2.108,-2.0638,-1.9171,-1.8225,-1.8182,-1.7869,-1.7182,-1.6992,-1.6296,-1.571,-1.5242,-1.4771,-1.4298,-1.4298,-1.4304,-1.4106,-1.3949,-1.3945,-1.4027,-1.427,-1.4526,-1.4724,-1.4735,-1.4718,-1.4361,-1.3491,-1.4344,-1.4184,-1.3882,-1.4406,-1.3997,-1.2383,-1.0329,-0.9486,-0.9559,-0.9585,-0.9372,-0.9051,-0.8802,-0.8864,-0.9137,-0.9161,-0.9218,-0.9225,-0.9067,-0.896,-0.9137,-0.9359,-0.9463,-0.9072,-0.8955,-0.8656,-0.8426,-0.8537,-0.8231,-0.8103,-0.7782,-0.8459,-0.9306,-0.983,-1.0663,-1.117,-1.159,-1.1315,-1.1133,-1.1325,-1.1609,-1.1878,-1.1975,-1.2073,-1.2268,-1.2268,-1.2268,-1.2273,-1.2662,-1.3147,-1.3346,-1.3636,-1.3919,-1.4202,-1.4298,-1.4298,-1.4298,-1.4298,-1.4298,-1.4298,-1.4298,-1.4298,-1.4298,-1.4298,-1.4298,-1.4298,-1.4298,-1.4298,-1.4298,-1.4202,-1.4202,-2.9779,-2.9779,-2.9779,-2.9287,-2.8542,-2.8462,-2.7476,-2.5902,-2.5735,-2.5199,-2.4429,-2.3908,-2.3505,-2.3267,-2.3246,-2.3268,-2.3063,-2.157,-2.0848,-2.0157,-1.9222,-1.837,-1.8174,-1.7779,-1.7606,-1.7579,-1.6432,-1.571,-1.5242,-1.458,-1.4016,-1.4112,-1.411,-1.3825,-1.3556,-1.3582,-1.3629,-1.3795,-1.4172,-1.4163,-1.3997,-1.3864,-1.3249,-1.2841,-1.2906,-1.3026,-1.2355,-1.2961,-1.2534,-1.0847,-0.973,-0.8896,-0.8623,-0.8676,-0.8742,-0.8673,-0.8536,-0.8749,-0.8931,-0.9086,-0.9161,-0.9242,-0.9089,-0.9058,-0.9058,-0.963,-1.0162,-1.0107,-1.0103,-1.0344,-1.0771,-1.0649,-1.0042,-0.973,-0.9941,-1.0614,-1.1002,-1.0998,-1.1086,-1.1492,-1.1737,-1.1712,-1.1613,-1.188,-1.2041,-1.2186,-1.217,-1.1975,-1.1975,-1.217,-1.2273,-1.2467,-1.2856,-1.3244,-1.3443,-1.3636,-1.3919,-1.4106,-1.4202,-1.4298,-1.4298,-1.4298,-1.4298,-1.4298,-1.4208,-1.4298,-1.4298,-1.4298,-1.4298,-1.4298,-1.4298,-1.4298,-1.4298,-1.41,-1.41,-2.9779,-2.9779,-2.9779,-2.9287,-2.8542,-2.8462,-2.7476,-2.5902,-2.5819,-2.5091,-2.3961,-2.3453,-2.3194,-2.3111,-2.2837,-2.2413,-2.1458,-2.0791,-2.0162,-1.9333,-1.8349,-1.8145,-1.8119,-1.8131,-1.7892,-1.737,-1.6729,-1.6089,-1.5242,-1.4292,-1.3817,-1.3556,-1.3665,-1.3512,-1.3303,-1.319,-1.3298,-1.3503,-1.38,-1.3943,-1.3685,-1.3367,-1.2622,-1.2297,-1.1903,-1.1389,-1.0786,-1.1453,-1.1146,-0.9429,-0.8735,-0.8192,-0.8047,-0.8112,-0.8196,-0.8307,-0.8375,-0.8502,-0.8756,-0.8673,-0.9084,-0.9469,-0.9532,-0.9204,-0.919,-0.9556,-0.9884,-1.0294,-1.0589,-1.0535,-1.0459,-1.0178,-1.0584,-1.073,-1.0959,-1.1171,-1.1377,-1.1283,-1.1368,-1.1747,-1.1821,-1.1749,-1.1692,-1.1883,-1.1771,-1.192,-1.1986,-1.178,-1.2273,-1.2467,-1.2662,-1.2861,-1.3244,-1.3539,-1.3539,-1.3823,-1.4112,-1.4202,-1.4298,-1.4298,-1.4298,-1.4298,-1.3908,-1.4118,-1.4027,-1.4208,-1.4106,-1.3715,-1.3522,-1.4106,-1.4202,-1.3811,-1.3516,-1.3125,-1.3516,-2.9779,-2.9779,-2.9779,-2.9624,-2.9287,-2.8712,-2.7799,-2.6648,-2.6058,-2.4898,-2.3422,-2.2977,-2.2604,-2.2261,-2.1738,-2.161,-2.1279,-2.0132,-1.9685,-1.9261,-1.866,-1.8273,-1.8295,-1.8359,-1.8226,-1.7949,-1.7368,-1.6243,-1.4975,-1.4298,-1.3335,-1.2997,-1.3117,-1.2769,-1.2595,-1.2598,-1.2595,-1.2745,-1.3001,-1.3083,-1.2871,-1.2209,-1.1407,-1.0812,-1.0711,-1.0039,-0.9567,-1.0066,-0.9608,-0.8918,-0.8415,-0.8019,-0.7731,-0.7907,-0.8015,-0.8154,-0.8114,-0.8266,-0.8257,-0.776,-0.7519,-0.9034,-0.941,-0.9534,-0.9614,-1.0365,-1.101,-1.1299,-1.1226,-1.1207,-1.1705,-1.1761,-1.1875,-1.1806,-1.1741,-1.1766,-1.1795,-1.162,-1.1563,-1.1793,-1.188,-1.1792,-1.1704,-1.1699,-1.1567,-1.1539,-1.1604,-1.1883,-1.237,-1.2861,-1.3152,-1.3346,-1.363,-1.3823,-1.3919,-1.4112,-1.4298,-1.4298,-1.4298,-1.4298,-1.4202,-1.342,-1.3227,-1.3437,-1.3346,-1.284,-1.2635,-1.2543,-1.2743,-1.313,-1.3227,-1.2931,-1.2538,-1.215,-1.2635,-2.9779,-2.9767,-2.9359,-2.9307,-2.9287,-2.8779,-2.781,-2.6707,-2.5903,-2.4609,-2.2956,-2.249,-2.1963,-2.1409,-2.1075,-2.0528,-2.0476,-1.9777,-1.9366,-1.9032,-1.8644,-1.8438,-1.8462,-1.8502,-1.8522,-1.8519,-1.7807,-1.6553,-1.5905,-1.4684,-1.3814,-1.3078,-1.248,-1.2213,-1.2113,-1.1971,-1.1968,-1.2016,-1.2219,-1.2432,-1.2327,-1.1341,-1.057,-0.9783,-0.935,-0.8756,-0.8375,-0.8583,-0.8557,-0.8215,-0.7916,-0.7856,-0.768,-0.7633,-0.785,-0.7867,-0.7883,-0.7895,-0.7703,-0.7246,-0.6822,-0.8559,-0.9525,-0.9937,-1.0496,-1.1128,-1.1536,-1.1928,-1.2064,-1.2339,-1.2647,-1.2284,-1.2143,-1.1894,-1.1663,-1.1682,-1.1919,-1.1846,-1.1802,-1.1849,-1.1841,-1.1912,-1.1869,-1.1846,-1.1875,-1.1908,-1.2097,-1.2391,-1.2953,-1.3346,-1.363,-1.3823,-1.4016,-1.4208,-1.4298,-1.4298,-1.4298,-1.4298,-1.4298,-1.4298,-1.4004,-1.3221,-1.2425,-1.2415,-1.2124,-1.1356,-1.1091,-1.1119,-1.1595,-1.2155,-1.2063,-1.1883,-1.176,-1.1463,-1.1853,-2.9792,-2.9626,-2.8399,-2.8071,-2.8378,-2.8438,-2.7406,-2.5848,-2.524,-2.4138,-2.2573,-2.201,-2.1399,-2.079,-2.0671,-2.007,-1.934,-1.9341,-1.9171,-1.8677,-1.8704,-1.8756,-1.868,-1.868,-1.8664,-1.8527,-1.7673,-1.7056,-1.7042,-1.4851,-1.3891,-1.342,-1.2531,-1.1947,-1.1831,-1.22,-1.2299,-1.2191,-1.2337,-1.2309,-1.1891,-1.0789,-1.0017,-0.9357,-0.8367,-0.7671,-0.7515,-0.7494,-0.7569,-0.7405,-0.7371,-0.7301,-0.7205,-0.7269,-0.7407,-0.7309,-0.7293,-0.752,-0.7728,-0.7288,-0.7746,-0.8507,-0.9366,-1.0071,-1.0458,-1.115,-1.177,-1.1947,-1.1987,-1.2116,-1.2154,-1.214,-1.2072,-1.1995,-1.1756,-1.1794,-1.193,-1.2125,-1.2087,-1.2016,-1.2077,-1.212,-1.2058,-1.2073,-1.2191,-1.2284,-1.2625,-1.3008,-1.3494,-1.3732,-1.4016,-1.4112,-1.4208,-1.4208,-1.4298,-1.4298,-1.4298,-1.4298,-1.4202,-1.4196,-1.3709,-1.2829,-1.2221,-1.1706,-1.0849,-1.01,-0.9945,-0.9888,-1.0332,-1.078,-1.0959,-1.0833,-1.0708,-1.0783,-1.117,-2.8961,-2.8834,-2.7494,-2.6667,-2.6279,-2.5961,-2.544,-2.4803,-2.3855,-2.3087,-2.2371,-2.1454,-2.0867,-2.0449,-1.9732,-1.9235,-1.9042,-1.8529,-1.8449,-1.8653,-1.8788,-1.8727,-1.8658,-1.8566,-1.8582,-1.8163,-1.7399,-1.6155,-1.4857,-1.4107,-1.3239,-1.2535,-1.2377,-1.2045,-1.1921,-1.2096,-1.2181,-1.2186,-1.221,-1.211,-1.145,-1.046,-0.9578,-0.903,-0.782,-0.7241,-0.7089,-0.7084,-0.7051,-0.7027,-0.7122,-0.7192,-0.7118,-0.7169,-0.7059,-0.7143,-0.7088,-0.723,-0.7447,-0.7297,-0.7627,-0.8336,-0.9183,-1.0016,-1.0427,-1.125,-1.1704,-1.1841,-1.1945,-1.1997,-1.1902,-1.1907,-1.1925,-1.185,-1.1765,-1.1878,-1.2063,-1.2195,-1.2285,-1.2295,-1.2337,-1.2304,-1.2252,-1.2216,-1.2343,-1.2782,-1.3047,-1.3599,-1.4056,-1.4093,-1.4214,-1.4208,-1.4298,-1.4298,-1.431,-1.4268,-1.4334,-1.4298,-1.41,-1.38,-1.3216,-1.2478,-1.1614,-1.0946,-0.9842,-0.8947,-0.8978,-0.9097,-0.9153,-0.9362,-0.9803,-0.9899,-0.9754,-0.9987,-1.0391,-2.7945,-2.7676,-2.6542,-2.5665,-2.4996,-2.4609,-2.4233,-2.3777,-2.2997,-2.2656,-2.2323,-2.1342,-2.0767,-2.023,-1.9445,-1.87,-1.8862,-1.8677,-1.8533,-1.8819,-1.8743,-1.8658,-1.8574,-1.8404,-1.8396,-1.8097,-1.7574,-1.6531,-1.5967,-1.4653,-1.3517,-1.2499,-1.2162,-1.2167,-1.2143,-1.2209,-1.2271,-1.2299,-1.229,-1.2001,-1.1232,-1.0241,-0.9361,-0.8592,-0.7709,-0.7149,-0.7154,-0.7154,-0.7157,-0.719,-0.7258,-0.7345,-0.7281,-0.6803,-0.607,-0.5272,-0.6462,-0.6842,-0.7359,-0.7322,-0.7553,-0.7826,-0.8931,-0.9888,-1.0628,-1.1494,-1.1887,-1.1992,-1.1983,-1.2016,-1.2025,-1.2006,-1.2011,-1.2049,-1.2087,-1.2098,-1.214,-1.237,-1.2398,-1.2427,-1.2432,-1.2417,-1.2365,-1.2461,-1.2504,-1.306,-1.3592,-1.407,-1.4535,-1.4478,-1.4352,-1.4158,-1.4199,-1.4264,-1.4246,-1.4296,-1.4243,-1.4316,-1.3835,-1.3186,-1.2665,-1.1939,-1.1051,-1.0088,-0.9236,-0.8494,-0.8294,-0.8381,-0.8748,-0.8973,-0.9256,-0.9146,-0.8812,-0.9493,-1.0362,-2.6875,-2.6382,-2.5525,-2.4869,-2.4497,-2.4364,-2.3699,-2.2642,-2.2977,-2.2915,-2.2484,-2.1937,-2.1313,-2.0559,-1.9895,-1.9352,-1.9001,-1.906,-1.9115,-1.8996,-1.9012,-1.8843,-1.8558,-1.8288,-1.8209,-1.824,-1.7963,-1.7351,-1.8002,-1.576,-1.3916,-1.2768,-1.2361,-1.2356,-1.2356,-1.2365,-1.2384,-1.2398,-1.2304,-1.1891,-1.1126,-1.0351,-0.9691,-0.8809,-0.8039,-0.7598,-0.7376,-0.7265,-0.7265,-0.7195,-0.7269,-0.7339,-0.6972,-0.5922,-0.3229,-0.2765,-0.553,-0.6667,-0.7415,-0.7494,-0.7426,-0.7615,-0.8762,-0.984,-1.0617,-1.1272,-1.1795,-1.2005,-1.2014,-1.221,-1.238,-1.2361,-1.2346,-1.2361,-1.2361,-1.2398,-1.2398,-1.2432,-1.2432,-1.2436,-1.2436,-1.2403,-1.2313,-1.2316,-1.2641,-1.3082,-1.3543,-1.3998,-1.4375,-1.4736,-1.4436,-1.3939,-1.399,-1.4176,-1.4142,-1.3945,-1.327,-1.2996,-1.2734,-1.2256,-1.1825,-1.1199,-1.0323,-0.9366,-0.8643,-0.8197,-0.803,-0.8327,-0.8747,-0.8956,-0.943,-0.964,-0.9684,-1.0399,-1.126,-2.6063,-2.5837,-2.473,-2.4187,-2.403,-2.3714,-2.3154,-2.2584,-2.2977,-2.308,-2.2917,-2.2187,-2.1748,-2.1451,-2.0983,-2.0542,-2.0545,-2.0651,-2.0828,-2.0529,-1.982,-1.9446,-1.8904,-1.8373,-1.7976,-1.7625,-1.7412,-1.74,-1.6888,-1.5383,-1.4035,-1.2639,-1.2436,-1.2436,-1.2436,-1.2436,-1.2436,-1.2436,-1.2436,-1.1891,-1.135,-1.0794,-1.0021,-0.9361,-0.8478,-0.8149,-0.8039,-0.7485,-0.7263,-0.7287,-0.7274,-0.7369,-0.7383,-0.6186,-0.4566,-0.5658,-0.6975,-0.7538,-0.7551,-0.7521,-0.7481,-0.7506,-0.8439,-0.8792,-0.9588,-1.0421,-1.1424,-1.162,-1.1937,-1.2091,-1.2327,-1.2436,-1.2436,-1.2436,-1.2436,-1.2436,-1.2436,-1.2436,-1.2436,-1.2436,-1.2436,-1.2417,-1.2318,-1.2431,-1.2759,-1.3143,-1.3482,-1.3838,-1.4207,-1.4587,-1.4292,-1.3785,-1.3647,-1.3729,-1.347,-1.318,-1.2297,-1.1527,-1.1456,-1.1235,-1.0625,-1.0071,-0.9372,-0.8811,-0.8272,-0.7996,-0.7917,-0.8327,-0.8958,-0.9697,-1.0178,-1.0391,-1.0678,-1.1396,-1.175,-2.5471,-2.4986,-2.442,-2.4043,-2.3867,-2.3764,-2.3463,-2.3153,-2.335,-2.3463,-2.3402,-2.2715,-2.2428,-2.2233,-2.168,-2.1355,-2.1374,-2.138,-2.1516,-2.1248,-2.0791,-2.0068,-1.9347,-1.8658,-1.8199,-1.7654,-1.7456,-1.7647,-1.6806,-1.5475,-1.4024,-1.2545,-1.2436,-1.2436,-1.2436,-1.2436,-1.2436,-1.2436,-1.2219,-1.1891,-1.1455,-1.1126,-1.0574,-0.9908,-0.9137,-0.8916,-0.8809,-0.8036,-0.7485,-0.7502,-0.761,-0.7396,-0.754,-0.6712,-0.6517,-0.737,-0.7462,-0.7676,-0.7619,-0.7603,-0.7548,-0.7602,-0.8002,-0.8253,-0.893,-0.985,-1.0594,-1.1114,-1.1555,-1.2001,-1.2219,-1.2436,-1.2436,-1.2436,-1.2436,-1.2436,-1.2436,-1.2436,-1.2436,-1.2436,-1.2436,-1.2436,-1.2427,-1.2659,-1.2866,-1.3141,-1.3316,-1.3347,-1.3846,-1.4244,-1.3844,-1.3081,-1.3059,-1.3141,-1.2755,-1.2258,-1.1444,-1.0755,-1.0475,-1.0182,-0.9564,-0.921,-0.8817,-0.8344,-0.7985,-0.801,-0.8131,-0.8616,-0.923,-1.0077,-1.082,-1.119,-1.1482,-1.2115,-1.2422,-2.5185,-2.4148,-2.4364,-2.4302,-2.4022,-2.4322,-2.426,-2.395,-2.3929,-2.3939,-2.3813,-2.3438,-2.3181,-2.3016,-2.2475,-2.2152,-2.2133,-2.2208,-2.2227,-2.1872,-2.132,-2.0692,-1.9795,-1.9004,-1.8356,-1.8268,-1.8222,-1.7925,-1.7754,-1.6361,-1.4272,-1.2625,-1.2436,-1.246,-1.2517,-1.2455,-1.2465,-1.2526,-1.2365,-1.211,-1.1564,-1.1126,-1.0794,-1.0233,-0.9677,-0.934,-0.9354,-0.8696,-0.7817,-0.8097,-0.8191,-0.7878,-0.7696,-0.7595,-0.7752,-0.7774,-0.7744,-0.7712,-0.7701,-0.7695,-0.7793,-0.7743,-0.7696,-0.8366,-0.9133,-0.9539,-1.0257,-1.1017,-1.1568,-1.2005,-1.2332,-1.2327,-1.2436,-1.2436,-1.2436,-1.2436,-1.2436,-1.2436,-1.2436,-1.2436,-1.2436,-1.2436,-1.2441,-1.2659,-1.2663,-1.3088,-1.3285,-1.3254,-1.2984,-1.3503,-1.3123,-1.2327,-1.1959,-1.1795,-1.1563,-1.1061,-1.0547,-1.0055,-0.97,-0.9531,-0.9223,-0.8737,-0.8343,-0.8262,-0.8182,-0.8323,-0.8569,-0.9357,-1.0017,-1.0562,-1.1319,-1.1773,-1.2295,-1.2625,-1.269,-2.6251,-2.5271,-2.4734,-2.4478,-2.4405,-2.4498,-2.4478,-2.4385,-2.4385,-2.4353,-2.431,-2.4211,-2.4003,-2.3744,-2.3484,-2.3309,-2.3222,-2.3038,-2.3212,-2.2765,-2.2217,-2.1132,-2.024,-1.9255,-1.8396,-1.794,-1.7901,-1.8046,-1.7327,-1.6072,-1.4757,-1.3391,-1.2856,-1.2564,-1.2606,-1.2526,-1.2493,-1.2583,-1.2393,-1.2332,-1.2001,-1.2001,-1.1887,-1.145,-1.1114,-1.0574,-1.0504,-1.0036,-0.9622,-0.968,-0.9695,-0.9384,-0.8838,-0.8202,-0.79,-0.7936,-0.7812,-0.7771,-0.7856,-0.7976,-0.8196,-0.8428,-0.8674,-0.905,-0.9497,-0.9672,-1.0135,-1.1017,-1.1568,-1.2005,-1.2332,-1.2327,-1.2436,-1.2436,-1.2436,-1.2436,-1.2436,-1.2436,-1.2436,-1.2436,-1.2436,-1.2441,-1.255,-1.255,-1.2663,-1.2876,-1.3192,-1.2955,-1.1864,-1.1801,-1.1882,-1.1203,-1.0357,-1.0171,-1.0167,-0.9926,-0.9518,-0.9092,-0.876,-0.8699,-0.8852,-0.8633,-0.8414,-0.8443,-0.8582,-0.892,-0.9578,-1.0562,-1.1223,-1.145,-1.1564,-1.211,-1.2219,-1.2505,-1.2514,-2.6976,-2.5746,-2.4861,-2.455,-2.454,-2.4935,-2.5105,-2.5094,-2.5009,-2.4935,-2.485,-2.4529,-2.4282,-2.4024,-2.4034,-2.3937,-2.3754,-2.3754,-2.3667,-2.3387,-2.257,-2.1489,-2.0503,-1.9338,-1.8505,-1.783,-1.8028,-1.7903,-1.6921,-1.633,-1.5312,-1.3898,-1.3128,-1.2842,-1.2698,-1.2512,-1.2498,-1.2597,-1.2493,-1.245,-1.2436,-1.2436,-1.2436,-1.2114,-1.201,-1.1709,-1.1487,-1.1143,-1.0755,-1.0402,-1.0088,-0.959,-0.9001,-0.8359,-0.7933,-0.7847,-0.785,-0.7815,-0.799,-0.8196,-0.8656,-0.9082,-0.9398,-0.9759,-1.0393,-1.0568,-1.0582,-1.1236,-1.1236,-1.1673,-1.2219,-1.2436,-1.2436,-1.2436,-1.2436,-1.2436,-1.2436,-1.2436,-1.2436,-1.2436,-1.2436,-1.2436,-1.2436,-1.2323,-1.2323,-1.21,-1.2531,-1.1878,-1.1008,-1.068,-1.0558,-1.0441,-0.9892,-0.9354,-0.9457,-0.9013,-0.8446,-0.8143,-0.8048,-0.8472,-0.8779,-0.8575,-0.8481,-0.914,-0.9578,-1.0017,-1.0781,-1.1542,-1.1769,-1.1891,-1.211,-1.2327,-1.2436,-1.2436,-1.2413,-2.7567,-2.5902,-2.4946,-2.4625,-2.4775,-2.5421,-2.583,-2.583,-2.5579,-2.5411,-2.5158,-2.4444,-2.4024,-2.3851,-2.3754,-2.3754,-2.3657,-2.358,-2.3667,-2.3125,-2.2394,-2.1132,-2.0141,-1.9255,-1.8426,-1.797,-1.7969,-1.7626,-1.6939,-1.6347,-1.5543,-1.4129,-1.3641,-1.3316,-1.2729,-1.2455,-1.2484,-1.2531,-1.2493,-1.2446,-1.2436,-1.2436,-1.2436,-1.2436,-1.2455,-1.2554,-1.2349,-1.2136,-1.1646,-1.1224,-1.0688,-0.9825,-0.9039,-0.8383,-0.8306,-0.8102,-0.8238,-0.8389,-0.8525,-0.8982,-0.9359,-0.9687,-1.0004,-1.049,-1.1123,-1.1372,-1.127,-1.1345,-1.1345,-1.1568,-1.2114,-1.2455,-1.2455,-1.2446,-1.2446,-1.2436,-1.2436,-1.2327,-1.2327,-1.2327,-1.2219,-1.2219,-1.1882,-1.1878,-1.1655,-1.1546,-1.1109,-1.0347,-0.9911,-1.0127,-1.0233,-1.0339,-1.0229,-0.9691,-0.8937,-0.8602,-0.8045,-0.8048,-0.8159,-0.8484,-0.8923,-0.9578,-1.0014,-1.0453,-1.0891,-1.1337,-1.166,-1.2309,-1.2427,-1.2332,-1.2327,-1.2436,-1.2436,-1.2436,-1.2436,-2.8053,-2.673,-2.5189,-2.4861,-2.5505,-2.56,-2.5924,-2.6412,-2.5673,-2.5179,-2.4829,-2.4079,-2.359,-2.359,-2.358,-2.3493,-2.3309,-2.3222,-2.2589,-2.205,-2.1596,-2.0503,-1.9513,-1.8804,-1.8364,-1.8028,-1.7706,-1.7486,-1.7211,-1.6562,-1.5693,-1.4645,-1.397,-1.3459,-1.2827,-1.2702,-1.2711,-1.2755,-1.2716,-1.2654,-1.255,-1.2441,-1.2436,-1.2436,-1.2441,-1.2583,-1.2622,-1.2805,-1.2882,-1.2691,-1.1736,-1.0513,-0.947,-0.8636,-0.8412,-0.8675,-0.8815,-0.9274,-0.9523,-0.9845,-1.0316,-1.0799,-1.1135,-1.1363,-1.1864,-1.211,-1.2032,-1.2005,-1.2005,-1.2023,-1.2474,-1.2507,-1.2517,-1.2479,-1.2465,-1.2446,-1.2436,-1.2223,-1.2114,-1.1782,-1.1345,-1.1122,-1.0566,-1.0562,-1.0562,-1.0343,-1.0233,-0.9691,-0.9695,-0.9798,-1.0014,-1.0343,-1.0562,-0.9361,-0.8377,-0.8602,-0.8266,-0.8159,-0.839,-0.9296,-1.0173,-1.1219,-1.1769,-1.1982,-1.2484,-1.2896,-1.3212,-1.3034,-1.2767,-1.2673,-1.2441,-1.2436,-1.2441,-1.245,-1.246]},{"header":{"parameterUnit":"m.s-1","parameterCategory":1,"la1":31.0,"la2":29.5877,"lo1":-88.7671,"lo2":-86.6584,"dy":0.0162,"dx":0.0185,"nx":115,"ny":88,"refTime":"2023-07-15T12:00:00:Z","depth":0,"parameterNumber":3,"parameterNumberName":"V-component_of_WINDS"},"data":[0.0,0.0,0.0,0.0,0.0,0.0,0.0,0.0,0.0,0.0,0.0,0.0,0.0,0.0,0.0,0.0,0.0,0.0,0.0,0.0,0.0,0.0,0.0,0.0,0.0,0.0,0.0,0.0,0.0,0.0,0.0,0.0,0.0,0.0,0.0,0.0,0.0,0.0,0.0,0.0,0.0,0.0,0.0,0.0,0.0,0.0,0.0,0.0,0.0,0.0,0.0,0.0,0.0,0.0,0.0,0.0,0.0,0.0,0.0,0.0,0.0,0.0,0.0,0.0,0.0,0.0,0.0,0.0,0.0,0.0,0.0,0.0,0.0,0.0,0.0,0.0,0.0,0.0,0.0,0.0,0.0,0.0,0.0,0.0,0.0,0.0,0.0,0.0,0.0,0.0,0.0,0.0,0.0,0.0,0.0,0.0,0.0,0.0,0.0,0.0,0.0,0.0,0.0,0.0,0.0,0.0,0.0,0.0,0.0,0.0,0.0,0.0,0.0,0.0,0.0,0.0,0.0,0.0,0.0,0.0,0.0,0.0,0.0,0.0,0.0,0.0,0.0,0.0,0.0,0.0,0.0,0.0,0.0,0.0,0.0,0.0,0.0,0.0,0.0,0.0,0.0,0.0,0.0,0.0,0.0,0.0,0.0,0.0,0.0,0.0,0.0,0.0,0.0,0.0,0.0,0.0,0.0,0.0,0.0,0.0,0.0,0.0,0.0,0.0,0.0,0.0,0.0,0.0,0.0,0.0,0.0,0.0,0.0,0.0,0.0,0.0,0.0,0.0,0.0,0.0,0.0,0.0,0.0,0.0,0.0,0.0,0.0,0.0,0.0,0.0,0.0,0.0,0.0,0.0,0.0,0.0,0.0,0.0,0.0,0.0,0.0,0.0,0.0,0.0,0.0,0.0,0.0,0.0,0.0,0.0,0.0,0.0,0.0,0.0,0.0,0.0,0.0,0.0,0.0,0.0,0.0,0.0,0.0,0.0,0.0,0.0,0.0,0.0,0.0,0.0,0.0,0.0,0.0,0.0,0.0,0.0,0.0,0.0,0.0,0.0,0.0,0.0,0.0,0.0,0.0,0.0,0.0,0.0,0.0,0.0,0.0,0.0,0.0,0.0,0.0,0.0,0.0,0.0,0.0,0.0,0.0,0.0,0.0,0.0,0.0,0.0,0.0,0.0,0.0,0.0,0.0,0.0,0.0,0.0,0.0,0.0,0.0,0.0,0.0,0.0,0.0,0.0,0.0,0.0,0.0,0.0,0.0,0.0,0.0,0.0,0.0,0.0,0.0,0.0,0.0,0.0,0.0,0.0,0.0,0.0,0.0,0.0,0.0,0.0,0.0,0.0,0.0,0.0,0.0,0.0,0.0,0.0,0.0,0.0,0.0,0.0,0.0,0.0,0.0,0.0,0.0,0.0,0.0,0.0,0.0,0.0,0.0,0.0,0.0,0.0,0.0,0.0,0.0,0.0,0.0,0.0,0.0,0.0,0.0,0.0,0.0,0.0,0.0,0.0,0.0,0.0,0.0,0.0,0.0,0.0,0.0,0.0,0.0,0.0,0.0,0.0,0.0,0.0,0.0,0.0,0.0,0.0,0.0,0.0,0.0,0.0,0.0,0.0,0.0,0.0,0.0,0.0,0.0,0.0,0.0,0.0,0.0,0.0,0.0,0.0,0.0,0.0,0.0,0.0,0.0,0.0,0.0,0.0,0.0,0.0,0.0,0.0,0.0,0.0,0.0,0.0,0.0,0.0,0.0,0.0,0.0,0.0,0.0,0.0,0.0,0.0,0.0,0.0,0.0,0.0,0.0,0.0,0.0,0.0,0.0,0.0,0.0,0.0,0.0,0.0,0.0,0.0,0.0,0.0,0.0,0.0,0.0,0.0,0.0,0.0,0.0,0.0,0.0,0.0,0.0,0.0,0.0,0.0,0.0,0.0,0.0,0.0,0.0,0.0,0.0,0.0,0.0,0.0,0.0,0.0,0.0,0.0,0.0,0.0,0.0,0.0,0.0,0.0,0.0,0.0,0.0,0.0,0.0,0.0,0.0,0.0,0.0,0.0,0.0,0.0,0.0,0.0,0.0,0.0,0.0,0.0,0.0,0.0,0.0,0.0,0.0,0.0,0.0,0.0,0.0,0.0,0.0,0.0,0.0,0.0,0.0,0.0,0.0,0.0,0.0,0.0,0.0,0.0,0.0,0.0,0.0,0.0,0.0,0.0,0.0,0.0,0.0,0.0,0.0,0.0,0.0,0.0,0.0,0.0,0.0,0.0,0.0,0.0,0.0,0.0,0.0,0.0,0.0,0.0,0.0,0.0,0.0,0.0,0.0,0.0,0.0,0.0,0.0,0.0,0.0,0.0,0.0,0.0,0.0,0.0,0.0,0.0,0.0,0.0,0.0,0.0,0.0,0.0,0.0,0.0,0.0,0.0,0.0,0.0,0.0,0.0,0.0,0.0,0.0,0.0,0.0,0.0,0.0,0.0,0.0,0.0,0.0,0.0,0.0,0.0,0.0,0.0,0.0,0.0,0.0,0.0,0.0,0.0,0.0,0.0,0.0,0.0,0.0,0.0,0.0,0.0,0.0,0.0,0.0,0.0,0.0,0.0,0.0,0.0,0.0,0.0,0.0,0.0,0.0,0.0,0.0,0.0,0.0,0.0,0.0,0.0,0.0,0.0,0.0,0.0,0.0,0.0,0.0,0.0,0.0,0.0,0.0,0.0,0.0,0.0,0.0,0.0,0.0,0.0,0.0,0.0,0.0,0.0,0.0,0.0,0.0,0.0,0.0,0.0,0.0,0.0,0.0,0.0,0.0,0.0,0.0,0.0,0.0,0.0,0.0,0.0,0.0,0.0,0.0,0.0,0.0,0.0,0.0,0.0,0.0,0.0,0.0,0.0,0.0,0.0,0.0,0.0,0.0,0.0,0.0,0.0,0.0,0.0,0.0,0.0,0.0,0.0,0.0,0.0,0.0,0.0,0.0,0.0,0.0,0.0,0.0,0.0,0.0,0.0,0.0,0.0,0.0,0.0,0.0,0.0,0.0,0.0,0.0,0.0,0.0,0.0,0.0,0.0,0.0,0.0,0.0,0.0,0.0,0.0,0.0,0.0,0.0,0.0,0.0,0.0,0.0,0.0,0.0,0.0,0.0,0.0,0.0,0.0,0.0,0.0,0.0,0.0,0.0,0.0,0.0,0.0,0.0,0.0,0.0,0.0,0.0,0.0,0.0,0.0,0.0,0.0,0.0,0.0,0.0,0.0,0.0,0.0,0.0,0.0,0.0,0.0,0.0,0.0,0.0,0.0,0.0,0.0,0.0,0.0,0.0,0.0,0.0,0.0,0.0,0.0,0.0,0.0,0.0,0.0,0.0,0.0,0.0,0.0,0.0,0.0,0.0,0.0,0.0,0.0,0.0,0.0,0.0,0.0,0.0,0.0,0.0,0.0,0.0,0.0,0.0,0.0,0.0,0.0,0.0,0.0,0.0,0.0,0.0,0.0,0.0,0.0,0.0,0.0,0.0,0.0,0.0,0.0,0.0,0.0,0.0,0.0,0.0,0.0,0.0,0.0,0.0,0.0,0.0,0.0,0.0,0.0,0.0,0.0,0.0,0.0,0.0,0.0,0.0,0.0,0.0,0.0,0.0,0.0,0.0,0.0,0.0,0.0,0.0,0.0,0.0,0.0,0.0,0.0,0.0,0.0,0.0,0.0,0.0,0.0,0.0,0.0,0.0,0.0,0.0,0.0,0.0,0.0,0.0,0.0,0.0,0.0,0.0,0.0,0.0,0.0,0.0,0.0,0.0,0.0,0.0,0.0,0.0,0.0,0.0,0.0,0.0,0.0,0.0,0.0,0.0,0.0,0.0,0.0,0.0,0.0,0.0,0.0,0.0,0.0,0.0,0.0,0.0,0.0,0.0,0.0,0.0,0.0,0.0,0.0,0.0,0.0,0.0,0.0,0.0,0.0,0.0,0.0,0.0,0.0,0.0,0.0,0.0,0.0,0.0,0.0,0.0,0.0,0.0,0.0,0.0,0.0,0.0,0.0,0.0,0.0,0.0,0.0,0.0,0.0,0.0,0.0,0.0,0.0,0.0,0.0,0.0,0.0,0.0,0.0,0.0,0.0,0.0,0.0,0.0,0.0,0.0,0.0,0.0,0.0,0.0,0.0,0.0,0.0,0.0,0.0,0.0,0.0,0.0,0.0,0.0,0.0,0.0,0.0,0.0,0.0,0.0,0.0,0.0,0.0,0.0,0.0,-2.5819,0.0,0.0,0.0,0.0,0.0,0.0,0.0,0.0,0.0,0.0,0.0,0.0,0.0,0.0,0.0,0.0,0.0,0.0,0.0,0.0,0.0,0.0,0.0,0.0,0.0,0.0,0.0,0.0,0.0,0.0,0.0,0.0,0.0,0.0,0.0,0.0,0.0,0.0,0.0,0.0,0.0,0.0,0.0,0.0,0.0,0.0,0.0,0.0,0.0,0.0,0.0,0.0,0.0,0.0,0.0,0.0,0.0,0.0,0.0,0.0,0.0,0.0,0.0,0.0,0.0,0.0,0.0,0.0,0.0,0.0,0.0,0.0,0.0,0.0,0.0,0.0,0.0,0.0,0.0,0.0,0.0,0.0,0.0,0.0,0.0,0.0,0.0,0.0,0.0,0.0,0.0,0.0,0.0,0.0,0.0,0.0,0.0,0.0,0.0,0.0,0.0,0.0,0.0,0.0,0.0,0.0,0.0,0.0,0.0,0.0,-2.3924,-2.4476,-2.5014,-2.5556,-2.6113,0.0,0.0,0.0,0.0,0.0,0.0,0.0,0.0,0.0,0.0,0.0,0.0,0.0,0.0,0.0,0.0,0.0,0.0,0.0,0.0,0.0,0.0,0.0,0.0,0.0,0.0,0.0,0.0,0.0,0.0,0.0,0.0,0.0,0.0,0.0,0.0,0.0,0.0,0.0,0.0,0.0,0.0,0.0,0.0,0.0,0.0,0.0,0.0,0.0,0.0,0.0,0.0,0.0,0.0,0.0,0.0,0.0,0.0,0.0,0.0,0.0,0.0,0.0,0.0,0.0,0.0,0.0,0.0,0.0,0.0,0.0,0.0,0.0,0.0,0.0,0.0,0.0,0.0,0.0,0.0,0.0,0.0,0.0,0.0,0.0,0.0,0.0,0.0,0.0,0.0,0.0,0.0,0.0,0.0,0.0,0.0,0.0,0.0,0.0,0.0,0.0,0.0,0.0,0.0,0.0,0.0,0.0,0.0,0.0,0.0,0.0,0.0,-2.5493,-2.615,-2.6776,0.0,0.0,0.0,0.0,0.0,0.0,0.0,0.0,0.0,0.0,0.0,0.0,0.0,0.0,0.0,0.0,0.0,0.0,0.0,0.0,0.0,0.0,0.0,0.0,0.0,0.0,0.0,0.0,0.0,0.0,0.0,0.0,0.0,0.0,0.0,0.0,0.0,0.0,0.0,0.0,0.0,0.0,0.0,0.0,0.0,0.0,0.0,0.0,0.0,0.0,0.0,0.0,0.0,0.0,0.0,0.0,0.0,0.0,0.0,0.0,0.0,0.0,0.0,0.0,0.0,0.0,0.0,0.0,0.0,0.0,0.0,0.0,0.0,0.0,0.0,0.0,0.0,0.0,0.0,0.0,0.0,0.0,0.0,0.0,0.0,0.0,0.0,0.0,0.0,0.0,0.0,0.0,0.0,0.0,0.0,0.0,0.0,0.0,0.0,0.0,0.0,0.0,0.0,0.0,0.0,0.0,0.0,0.0,0.0,0.0,-2.3724,-2.417,-2.526,0.0,-2.7861,0.0,0.0,0.0,0.0,0.0,0.0,0.0,0.0,0.0,0.0,0.0,0.0,0.0,0.0,0.0,0.0,0.0,0.0,0.0,0.0,0.0,0.0,0.0,0.0,0.0,0.0,0.0,0.0,0.0,0.0,0.0,0.0,0.0,0.0,0.0,0.0,0.0,0.0,0.0,0.0,0.0,0.0,0.0,0.0,0.0,0.0,0.0,0.0,0.0,0.0,0.0,0.0,0.0,0.0,0.0,0.0,0.0,0.0,0.0,0.0,0.0,0.0,0.0,0.0,0.0,0.0,0.0,0.0,0.0,0.0,0.0,0.0,0.0,0.0,0.0,0.0,0.0,0.0,0.0,0.0,0.0,0.0,0.0,0.0,0.0,0.0,0.0,0.0,0.0,0.0,0.0,0.0,0.0,0.0,0.0,0.0,0.0,0.0,0.0,0.0,0.0,0.0,0.0,0.0,0.0,0.0,0.0,0.0,0.0,0.0,-2.3594,-2.4745,-2.6326,-2.7865,0.0,0.0,0.0,0.0,0.0,0.0,0.0,0.0,0.0,0.0,0.0,0.0,0.0,0.0,0.0,0.0,0.0,0.0,0.0,0.0,0.0,0.0,0.0,0.0,0.0,0.0,0.0,0.0,0.0,0.0,0.0,0.0,0.0,0.0,0.0,0.0,0.0,0.0,0.0,0.0,0.0,0.0,0.0,0.0,0.0,0.0,0.0,0.0,0.0,0.0,0.0,0.0,0.0,0.0,0.0,0.0,0.0,0.0,0.0,0.0,0.0,0.0,0.0,0.0,0.0,0.0,0.0,0.0,0.0,0.0,0.0,0.0,0.0,0.0,0.0,0.0,0.0,0.0,0.0,0.0,0.0,0.0,0.0,0.0,0.0,0.0,0.0,0.0,0.0,0.0,0.0,0.0,0.0,0.0,0.0,0.0,0.0,0.0,0.0,0.0,0.0,0.0,0.0,0.0,0.0,0.0,0.0,0.0,0.0,0.0,-2.2166,-2.3462,-2.5452,-2.7374,-2.896,-3.0293,0.0,0.0,0.0,0.0,0.0,0.0,0.0,0.0,0.0,0.0,0.0,0.0,0.0,0.0,0.0,0.0,0.0,0.0,0.0,0.0,0.0,0.0,0.0,0.0,0.0,0.0,0.0,0.0,0.0,0.0,0.0,0.0,0.0,0.0,0.0,0.0,0.0,0.0,0.0,0.0,0.0,0.0,0.0,0.0,0.0,0.0,0.0,0.0,0.0,0.0,0.0,0.0,0.0,0.0,0.0,0.0,0.0,0.0,0.0,0.0,0.0,0.0,0.0,0.0,0.0,0.0,0.0,0.0,0.0,0.0,0.0,0.0,0.0,0.0,0.0,0.0,0.0,0.0,0.0,0.0,0.0,0.0,0.0,0.0,0.0,0.0,0.0,0.0,0.0,0.0,0.0,0.0,0.0,0.0,0.0,0.0,0.0,0.0,0.0,0.0,0.0,0.0,0.0,0.0,0.0,0.0,0.0,0.0,-1.9878,-2.115,-2.328,-2.6136,-2.8011,-2.9323,0.0,0.0,0.0,0.0,0.0,0.0,0.0,0.0,0.0,0.0,0.0,0.0,0.0,0.0,0.0,0.0,0.0,0.0,0.0,0.0,0.0,0.0,0.0,0.0,0.0,0.0,0.0,0.0,0.0,0.0,0.0,0.0,0.0,0.0,0.0,0.0,0.0,0.0,0.0,0.0,0.0,0.0,0.0,0.0,0.0,0.0,0.0,0.0,0.0,0.0,0.0,0.0,0.0,0.0,0.0,0.0,0.0,0.0,0.0,0.0,0.0,0.0,0.0,0.0,0.0,0.0,0.0,0.0,0.0,0.0,0.0,0.0,0.0,0.0,0.0,0.0,0.0,0.0,0.0,0.0,0.0,0.0,0.0,0.0,0.0,0.0,0.0,0.0,0.0,0.0,0.0,0.0,0.0,0.0,0.0,0.0,0.0,0.0,0.0,0.0,0.0,0.0,0.0,0.0,0.0,0.0,0.0,0.0,0.0,-1.917,-2.0777,-2.2887,-2.5327,-2.7379,-2.9054,0.0,0.0,0.0,0.0,0.0,0.0,0.0,0.0,0.0,0.0,0.0,0.0,0.0,0.0,0.0,0.0,0.0,0.0,0.0,0.0,0.0,0.0,0.0,0.0,0.0,0.0,0.0,0.0,0.0,0.0,0.0,0.0,0.0,0.0,0.0,0.0,0.0,0.0,0.0,0.0,0.0,0.0,0.0,0.0,0.0,0.0,0.0,0.0,0.0,0.0,0.0,0.0,0.0,0.0,0.0,0.0,0.0,0.0,0.0,0.0,0.0,0.0,0.0,0.0,0.0,0.0,0.0,0.0,0.0,0.0,0.0,0.0,0.0,0.0,0.0,0.0,0.0,0.0,0.0,0.0,0.0,0.0,0.0,0.0,0.0,0.0,0.0,0.0,0.0,0.0,0.0,0.0,0.0,0.0,0.0,0.0,0.0,0.0,0.0,0.0,0.0,0.0,0.0,0.0,0.0,0.0,0.0,0.0,0.0,-1.8354,0.0,-2.2175,-2.4425,-2.673,-2.8748,0.0,0.0,0.0,0.0,0.0,0.0,0.0,0.0,0.0,0.0,0.0,0.0,0.0,0.0,0.0,0.0,0.0,0.0,0.0,0.0,0.0,0.0,0.0,0.0,0.0,0.0,0.0,0.0,0.0,0.0,0.0,0.0,0.0,0.0,0.0,0.0,0.0,0.0,0.0,0.0,0.0,0.0,0.0,0.0,0.0,0.0,0.0,0.0,0.0,0.0,0.0,0.0,0.0,0.0,0.0,0.0,0.0,0.0,0.0,0.0,0.0,0.0,0.0,0.0,0.0,0.0,0.0,0.0,0.0,0.0,0.0,0.0,0.0,0.0,0.0,0.0,0.0,0.0,0.0,0.0,0.0,0.0,0.0,0.0,0.0,0.0,0.0,0.0,0.0,0.0,0.0,0.0,0.0,0.0,0.0,0.0,0.0,0.0,0.0,0.0,0.0,0.0,0.0,0.0,0.0,0.0,0.0,0.0,-1.7889,-1.741,-1.8972,-2.1027,-2.3516,-2.6232,-2.8323,0.0,0.0,0.0,0.0,0.0,0.0,0.0,0.0,0.0,0.0,0.0,0.0,0.0,0.0,0.0,0.0,0.0,0.0,0.0,0.0,0.0,0.0,0.0,0.0,0.0,0.0,0.0,0.0,0.0,0.0,0.0,0.0,0.0,0.0,0.0,0.0,0.0,0.0,0.0,0.0,0.0,0.0,0.0,0.0,0.0,0.0,0.0,0.0,0.0,0.0,0.0,0.0,0.0,0.0,0.0,0.0,0.0,0.0,0.0,0.0,0.0,0.0,0.0,0.0,0.0,0.0,0.0,0.0,0.0,0.0,0.0,0.0,0.0,0.0,0.0,0.0,0.0,0.0,0.0,0.0,0.0,0.0,0.0,0.0,0.0,0.0,0.0,0.0,0.0,0.0,0.0,0.0,0.0,0.0,0.0,0.0,0.0,0.0,0.0,0.0,0.0,0.0,0.0,0.0,0.0,0.0,0.0,0.0,0.0,-1.4875,-1.7,-1.9543,-2.2509,-2.5207,-2.7548,0.0,0.0,0.0,0.0,0.0,0.0,0.0,0.0,0.0,0.0,0.0,0.0,0.0,0.0,0.0,0.0,0.0,0.0,0.0,0.0,0.0,0.0,0.0,0.0,0.0,0.0,0.0,0.0,0.0,0.0,0.0,0.0,0.0,0.0,0.0,0.0,0.0,0.0,0.0,0.0,0.0,0.0,0.0,0.0,0.0,0.0,0.0,0.0,0.0,0.0,0.0,0.0,0.0,0.0,0.0,0.0,0.0,0.0,0.0,0.0,0.0,0.0,0.0,0.0,0.0,0.0,0.0,0.0,0.0,0.0,0.0,0.0,0.0,0.0,0.0,0.0,0.0,0.0,0.0,0.0,0.0,0.0,0.0,0.0,0.0,0.0,0.0,0.0,0.0,0.0,0.0,0.0,0.0,0.0,0.0,0.0,0.0,0.0,0.0,0.0,0.0,0.0,0.0,0.0,0.0,0.0,0.0,0.0,0.0,-0.8936,-1.3917,-1.8076,-2.1428,-2.4808,-2.7367,-2.9031,0.0,0.0,0.0,0.0,0.0,0.0,0.0,0.0,0.0,0.0,0.0,0.0,0.0,0.0,0.0,0.0,0.0,0.0,0.0,0.0,0.0,0.0,0.0,0.0,0.0,0.0,0.0,0.0,0.0,0.0,0.0,0.0,0.0,0.0,0.0,0.0,0.0,0.0,0.0,0.0,0.0,0.0,0.0,0.0,0.0,0.0,0.0,0.0,0.0,0.0,0.0,0.0,0.0,0.0,0.0,0.0,0.0,0.0,0.0,0.0,0.0,0.0,0.0,0.0,0.0,0.0,0.0,0.0,0.0,0.0,0.0,0.0,0.0,0.0,0.0,0.0,0.0,0.0,0.0,0.0,0.0,0.0,0.0,0.0,0.0,0.0,0.0,0.0,0.0,0.0,0.0,0.0,0.0,0.0,0.0,0.0,0.0,0.0,0.0,0.0,0.0,0.0,0.0,0.0,0.0,0.0,0.0,0.0,0.0088,-0.933,-1.6124,-2.0222,-2.469,-2.7653,0.0,0.0,0.0,0.0,0.0,0.0,0.0,0.0,0.0,0.0,0.0,0.0,0.0,0.0,0.0,0.0,0.0,0.0,0.0,0.0,0.0,0.0,0.0,0.0,0.0,0.0,0.0,0.0,0.0,0.0,0.0,0.0,0.0,0.0,0.0,0.0,0.0,0.0,0.0,0.0,0.0,0.0,0.0,0.0,0.0,0.0,0.0,0.0,0.0,0.0,0.0,0.0,0.0,0.0,0.0,0.0,0.0,0.0,0.0,0.0,0.0,0.0,0.0,0.0,0.0,0.0,0.0,0.0,0.0,0.0,0.0,0.0,0.0,0.0,0.0,0.0,0.0,0.0,0.0,0.0,0.0,0.0,0.0,0.0,0.0,0.0,0.0,0.0,0.0,0.0,0.0,0.0,0.0,0.0,0.0,0.0,0.0,0.0,0.0,0.0,0.0,0.0,0.0,0.0,0.0,0.0,0.0,0.0,0.0,0.7909,0.1007,-0.7642,-1.7684,-2.2373,-2.6115,0.0,0.0,0.0,0.0,0.0,0.0,0.0,0.0,0.0,0.0,0.0,0.0,0.0,0.0,0.0,0.0,0.0,0.0,0.0,0.0,0.0,0.0,0.0,0.0,0.0,0.0,0.0,0.0,0.0,0.0,0.0,0.0,0.0,0.0,0.0,0.0,0.0,0.0,0.0,0.0,0.0,0.0,0.0,0.0,0.0,0.0,0.0,0.0,0.0,0.0,0.0,0.0,0.0,0.0,0.0,0.0,0.0,0.0,0.0,0.0,0.0,0.0,0.0,0.0,0.0,0.0,0.0,0.0,0.0,0.0,0.0,0.0,0.0,0.0,0.0,0.0,0.0,0.0,0.0,0.0,0.0,0.0,0.0,0.0,0.0,0.0,0.0,0.0,0.0,0.0,0.0,0.0,0.0,0.0,0.0,0.0,0.0,0.0,0.0,0.0,0.0,0.0,0.0,0.0,0.0,0.0,0.0,0.0,1.5182,1.7865,1.354,0.6695,-0.2763,-1.5736,-2.4487,0.0,0.0,0.0,0.0,0.0,0.0,0.0,0.0,0.0,0.0,0.0,0.0,0.0,0.0,0.0,0.0,0.0,0.0,0.0,0.0,0.0,0.0,0.0,0.0,0.0,0.0,0.0,0.0,0.0,0.0,0.0,0.0,0.0,0.0,0.0,0.0,0.0,0.0,0.0,0.0,0.0,0.0,0.0,0.0,0.0,0.0,0.0,0.0,0.0,0.0,0.0,0.0,0.0,0.0,0.0,0.0,0.0,0.0,0.0,0.0,0.0,0.0,0.0,0.0,0.0,0.0,0.0,0.0,0.0,0.0,0.0,0.0,0.0,0.0,0.0,0.0,0.0,0.0,0.0,0.0,0.0,0.0,0.0,0.0,0.0,0.0,0.0,0.0,0.0,0.0,0.0,0.0,0.0,0.0,0.0,0.0,0.0,0.0,0.0,0.0,0.0,0.0,0.0,0.0,0.0,0.0,0.0,0.0,2.1725,2.558,2.3506,2.0206,1.5356,-0.6522,-2.0893,0.0,0.0,0.0,0.0,0.0,0.0,0.0,0.0,0.0,0.0,0.0,0.0,0.0,0.0,0.0,0.0,0.0,0.0,0.0,0.0,0.0,0.0,0.0,0.0,0.0,0.0,0.0,0.0,0.0,0.0,0.0,0.0,0.0,0.0,0.0,0.0,0.0,0.0,0.0,0.0,0.0,0.0,0.0,0.0,0.0,0.0,0.0,0.0,0.0,0.0,0.0,0.0,0.0,0.0,0.0,0.0,0.0,0.0,0.0,0.0,0.0,0.0,0.0,0.0,0.0,0.0,0.0,0.0,0.0,0.0,0.0,0.0,0.0,0.0,0.0,0.0,0.0,0.0,0.0,0.0,0.0,0.0,0.0,0.0,0.0,0.0,0.0,0.0,0.0,0.0,0.0,0.0,0.0,0.0,0.0,0.0,0.0,0.0,0.0,0.0,0.0,0.0,0.0,0.0,0.0,0.0,0.0,0.0,1.3614,1.5997,1.1911,0.9821,1.0113,0.1883,-0.6179,0.0,0.0,0.0,0.0,0.0,0.0,0.0,0.0,0.0,0.0,0.0,0.0,0.0,0.0,0.0,0.0,0.0,0.0,0.0,0.0,0.0,0.0,0.0,0.0,0.0,0.0,0.0,0.0,0.0,0.0,0.0,0.0,0.0,0.0,0.0,0.0,0.0,0.0,0.0,0.0,0.0,0.0,0.0,0.0,0.0,0.0,0.0,0.0,-4.3568,0.0,0.0,0.0,0.0,0.0,0.0,0.0,0.0,0.0,0.0,0.0,0.0,0.0,0.0,0.0,0.0,0.0,0.0,0.0,0.0,0.0,0.0,0.0,0.0,0.0,0.0,0.0,0.0,0.0,0.0,0.0,0.0,0.0,0.0,0.0,0.0,0.0,0.0,0.0,0.0,0.0,0.0,0.0,0.0,0.0,0.0,0.0,0.0,0.0,0.0,0.0,0.0,0.0,0.0,0.0,0.0,0.0,0.0,0.0,1.3312,1.7325,1.5381,1.6512,2.0984,1.6936,0.8397,0.0,0.0,0.0,0.0,0.0,0.0,0.0,0.0,0.0,0.0,0.0,0.0,0.0,0.0,0.0,0.0,0.0,0.0,0.0,0.0,0.0,0.0,0.0,0.0,0.0,0.0,0.0,0.0,0.0,0.0,0.0,0.0,0.0,0.0,0.0,0.0,0.0,0.0,0.0,0.0,0.0,0.0,0.0,0.0,0.0,0.0,0.0,0.0,0.0,0.0,0.0,0.0,0.0,0.0,0.0,0.0,0.0,0.0,0.0,0.0,0.0,0.0,0.0,0.0,0.0,0.0,0.0,0.0,0.0,0.0,0.0,0.0,0.0,0.0,0.0,0.0,0.0,0.0,0.0,0.0,0.0,0.0,0.0,0.0,0.0,0.0,0.0,0.0,0.0,0.0,0.0,0.0,0.0,0.0,0.0,0.0,0.0,0.0,0.0,0.0,0.0,0.0,0.0,0.0,0.0,0.0,0.0,0.9292,1.4284,1.9597,2.1342,2.6113,3.4246,3.02,2.0525,0.5236,0.0,0.0,0.0,0.0,0.0,0.0,0.0,0.0,0.0,0.0,0.0,0.0,0.0,0.0,0.0,0.0,0.0,0.0,0.0,0.0,0.0,0.0,0.0,0.0,0.0,0.0,0.0,0.0,0.0,0.0,0.0,0.0,0.0,0.0,0.0,0.0,0.0,0.0,-4.2229,-4.3975,0.0,0.0,0.0,0.0,0.0,0.0,0.0,0.0,-4.7259,0.0,0.0,0.0,0.0,0.0,0.0,0.0,0.0,0.0,0.0,0.0,0.0,0.0,0.0,0.0,0.0,0.0,0.0,0.0,0.0,0.0,0.0,0.0,0.0,0.0,0.0,0.0,0.0,0.0,0.0,0.0,0.0,0.0,0.0,0.0,0.0,0.0,0.0,0.0,0.0,0.0,0.0,0.0,0.0,0.0,0.0,0.0,0.0,0.0,0.0,0.0,0.0,0.0,0.0,0.0,0.0,0.1939,0.5699,0.7696,0.8012,1.228,1.8939,2.7656,2.646,2.4197,2.0784,0.0,0.0,0.0,0.0,0.0,0.0,0.0,0.0,0.0,0.0,0.0,0.0,0.0,0.0,0.0,0.0,0.0,0.0,0.0,0.0,0.0,0.0,0.0,0.0,0.0,0.0,0.0,0.0,0.0,0.0,0.0,0.0,0.0,0.0,0.0,0.0,0.0,0.0,0.0,-4.6331,-4.7004,0.0,0.0,0.0,0.0,0.0,0.0,0.0,0.0,-4.774,0.0,0.0,0.0,0.0,0.0,0.0,0.0,0.0,0.0,0.0,0.0,0.0,0.0,0.0,0.0,0.0,0.0,0.0,0.0,0.0,0.0,0.0,0.0,0.0,0.0,0.0,0.0,0.0,0.0,0.0,0.0,0.0,0.0,0.0,0.0,0.0,0.0,0.0,0.0,0.0,0.0,0.0,0.0,0.0,0.0,0.0,0.0,0.0,0.0,0.0,0.0,0.0,0.0,0.0,0.0,0.1378,0.6098,0.9285,1.09,1.2804,1.9622,3.1347,2.7332,2.4549,0.0,0.0,0.0,0.0,0.0,0.0,0.0,0.0,0.0,0.0,0.0,0.0,0.0,0.0,0.0,0.0,0.0,0.0,0.0,0.0,0.0,0.0,0.0,0.0,0.0,0.0,0.0,0.0,0.0,0.0,0.0,0.0,0.0,0.0,0.0,0.0,0.0,0.0,0.0,0.0,-4.8421,-4.9386,-5.049,0.0,0.0,0.0,0.0,0.0,0.0,-4.9948,-4.9561,0.0,0.0,0.0,0.0,0.0,0.0,0.0,0.0,0.0,0.0,0.0,0.0,0.0,0.0,0.0,0.0,0.0,0.0,0.0,0.0,0.0,0.0,0.0,0.0,0.0,0.0,0.0,0.0,0.0,0.0,0.0,0.0,0.0,0.0,0.0,0.0,0.0,0.0,0.0,0.0,0.0,0.0,0.0,0.0,0.0,0.0,0.0,0.0,0.0,0.0,0.0,0.0,0.0,0.0,0.0,0.166,0.8168,1.3426,1.7362,1.8329,2.4601,3.6456,2.8062,2.2491,0.0,0.0,0.0,0.0,0.0,0.0,0.0,0.0,0.0,0.0,0.0,0.0,0.0,0.0,0.0,0.0,0.0,0.0,0.0,0.0,0.0,0.0,0.0,0.0,0.0,0.0,0.0,0.0,0.0,0.0,0.0,0.0,0.0,0.0,0.0,0.0,0.0,0.0,0.0,0.0,0.0,-5.1749,-5.2225,-5.2115,0.0,0.0,0.0,0.0,-5.2064,-5.2069,0.0,0.0,0.0,0.0,0.0,0.0,0.0,0.0,0.0,0.0,0.0,0.0,0.0,0.0,0.0,0.0,0.0,0.0,0.0,0.0,0.0,0.0,0.0,0.0,0.0,0.0,0.0,0.0,0.0,0.0,0.0,0.0,0.0,0.0,0.0,0.0,0.0,0.0,0.0,0.0,0.0,0.0,0.0,0.0,0.0,0.0,0.0,0.0,0.0,0.0,0.0,0.0,0.0,0.0,0.0,0.0,0.1858,1.1054,1.7576,2.1529,2.8255,3.3728,3.7154,2.498,1.7275,0.0,0.0,0.0,0.0,0.0,0.0,0.0,0.0,0.0,0.0,0.0,0.0,0.0,0.0,0.0,0.0,0.0,0.0,0.0,0.0,0.0,0.0,0.0,0.0,0.0,0.0,0.0,0.0,0.0,0.0,0.0,0.0,0.0,0.0,0.0,0.0,0.0,0.0,0.0,0.0,0.0,-5.3222,-5.4216,-5.4669,-5.4444,0.0,0.0,-5.4476,-5.5033,-5.5036,0.0,0.0,0.0,0.0,0.0,0.0,0.0,0.0,0.0,0.0,0.0,0.0,0.0,0.0,0.0,0.0,0.0,0.0,0.0,0.0,0.0,0.0,0.0,0.0,0.0,0.0,0.0,0.0,0.0,0.0,0.0,0.0,0.0,0.0,0.0,0.0,0.0,0.0,0.0,0.0,0.0,0.0,0.0,0.0,0.0,0.0,0.0,0.0,0.0,0.0,0.0,0.0,0.0,0.0,0.0,-1.35,-0.8567,-0.1621,0.3825,0.7592,1.0737,1.4158,1.7841,0.7121,0.0547,0.0,0.0,0.0,0.0,0.0,0.0,0.0,0.0,0.0,0.0,0.0,0.0,0.0,0.0,0.0,0.0,0.0,0.0,0.0,0.0,0.0,0.0,0.0,0.0,0.0,0.0,0.0,0.0,0.0,0.0,0.0,0.0,0.0,0.0,0.0,0.0,0.0,0.0,0.0,0.0,0.0,0.0,-5.4256,-5.5461,0.0,0.0,0.0,-5.5865,-5.6573,0.0,0.0,0.0,0.0,0.0,0.0,0.0,0.0,0.0,0.0,0.0,0.0,0.0,0.0,0.0,0.0,0.0,0.0,0.0,0.0,0.0,0.0,0.0,0.0,0.0,0.0,0.0,0.0,0.0,0.0,0.0,0.0,0.0,0.0,0.0,0.0,0.0,0.0,0.0,0.0,0.0,0.0,0.0,0.0,0.0,0.0,0.0,0.0,0.0,0.0,0.0,0.0,0.0,0.0,0.0,0.0,0.0,-1.7154,-1.2123,-0.7568,-0.3653,-0.3615,-0.1921,0.1616,-0.7698,0.0,0.0,0.0,0.0,0.0,0.0,0.0,0.0,0.0,0.0,0.0,0.0,0.0,0.0,0.0,0.0,0.0,0.0,0.0,0.0,0.0,0.0,0.0,0.0,0.0,0.0,0.0,-4.5096,0.0,0.0,0.0,0.0,0.0,0.0,0.0,0.0,0.0,0.0,0.0,0.0,0.0,0.0,-5.4982,-5.4733,-5.6496,-5.758,0.0,0.0,-5.7333,-5.7377,-5.6652,-5.5658,0.0,0.0,0.0,0.0,0.0,0.0,0.0,0.0,0.0,0.0,0.0,0.0,0.0,0.0,0.0,0.0,0.0,0.0,0.0,0.0,0.0,0.0,0.0,0.0,0.0,0.0,0.0,0.0,0.0,0.0,0.0,0.0,0.0,0.0,0.0,0.0,0.0,0.0,0.0,0.0,0.0,0.0,0.0,0.0,0.0,0.0,0.0,0.0,0.0,0.0,0.0,0.0,0.0,0.0,-2.4363,-1.874,-1.3433,-0.8791,-0.4236,-0.2788,-0.1869,-0.1398,-1.2205,-1.8234,0.0,0.0,0.0,0.0,0.0,0.0,0.0,0.0,0.0,0.0,0.0,0.0,0.0,0.0,0.0,0.0,0.0,0.0,0.0,0.0,0.0,0.0,0.0,0.0,0.0,0.0,0.0,0.0,0.0,0.0,0.0,0.0,0.0,0.0,0.0,0.0,0.0,0.0,0.0,0.0,0.0,-5.5643,-5.6648,-5.8414,-5.9336,0.0,-5.9381,-5.9367,-5.7446,-5.8436,-5.8063,-5.3896,0.0,0.0,0.0,0.0,0.0,0.0,0.0,0.0,0.0,0.0,0.0,0.0,0.0,0.0,0.0,0.0,0.0,0.0,0.0,0.0,0.0,0.0,0.0,0.0,0.0,0.0,0.0,0.0,0.0,0.0,0.0,0.0,0.0,0.0,0.0,0.0,0.0,0.0,0.0,0.0,0.0,0.0,0.0,0.0,0.0,0.0,0.0,0.0,0.0,0.0,0.0,0.0,0.0,-3.149,-2.9614,-2.7865,-2.6367,-2.5285,-2.5602,-2.6023,-2.639,-3.0743,-3.2968,0.0,0.0,0.0,0.0,0.0,0.0,0.0,0.0,0.0,0.0,0.0,0.0,0.0,0.0,0.0,0.0,0.0,0.0,0.0,0.0,0.0,0.0,0.0,0.0,0.0,0.0,0.0,0.0,-4.4883,-4.4557,-4.4498,0.0,0.0,0.0,0.0,0.0,0.0,0.0,0.0,0.0,0.0,-5.5815,-5.6857,-5.8606,0.0,0.0,-5.9905,-6.0094,-5.969,-5.8847,-5.7618,-5.5683,-5.4078,0.0,0.0,0.0,0.0,0.0,0.0,0.0,0.0,0.0,0.0,0.0,0.0,0.0,0.0,0.0,0.0,0.0,0.0,0.0,0.0,0.0,0.0,0.0,0.0,0.0,0.0,0.0,0.0,0.0,0.0,0.0,0.0,0.0,0.0,0.0,0.0,0.0,0.0,0.0,0.0,0.0,0.0,0.0,0.0,0.0,0.0,0.0,0.0,0.0,0.0,0.0,0.0,-3.6024,-3.6696,-3.7076,-3.7897,-3.9166,-4.0346,-4.1359,-4.2172,-4.2058,-4.1737,0.0,0.0,0.0,0.0,0.0,0.0,0.0,0.0,0.0,0.0,0.0,0.0,0.0,0.0,0.0,0.0,0.0,0.0,0.0,0.0,0.0,0.0,0.0,0.0,0.0,0.0,0.0,0.0,-4.5279,-4.5051,-4.4825,0.0,0.0,0.0,0.0,0.0,0.0,0.0,0.0,0.0,0.0,-5.6299,-5.7562,-5.9086,-6.0268,-6.065,-6.0643,-6.0593,-6.0651,-5.9106,-5.7552,-5.6446,0.0,0.0,0.0,0.0,0.0,0.0,0.0,0.0,0.0,0.0,0.0,0.0,0.0,0.0,0.0,0.0,0.0,0.0,0.0,0.0,0.0,0.0,0.0,0.0,0.0,0.0,0.0,0.0,0.0,0.0,-3.9295,0.0,0.0,0.0,0.0,0.0,0.0,0.0,0.0,0.0,0.0,0.0,0.0,0.0,0.0,0.0,0.0,0.0,0.0,0.0,0.0,0.0,0.0,-3.6789,-3.7652,-3.7782,-3.8874,-4.0889,-4.1303,-4.1952,-4.2852,-4.2101,-4.1354,-4.0766,0.0,0.0,0.0,0.0,0.0,0.0,0.0,0.0,0.0,0.0,0.0,0.0,0.0,0.0,0.0,0.0,0.0,0.0,0.0,0.0,0.0,0.0,0.0,0.0,0.0,0.0,-4.567,-4.6612,-4.707,0.0,0.0,0.0,0.0,0.0,0.0,0.0,0.0,0.0,0.0,-5.5403,-5.7354,-5.9115,-6.0222,-6.1273,-6.2336,-6.19,-6.0995,-5.9709,-5.934,-5.829,0.0,0.0,0.0,0.0,0.0,0.0,0.0,0.0,0.0,0.0,0.0,0.0,0.0,0.0,0.0,0.0,0.0,0.0,0.0,0.0,0.0,0.0,0.0,0.0,0.0,0.0,0.0,-4.2874,-4.2391,0.0,0.0,0.0,0.0,0.0,0.0,0.0,0.0,0.0,0.0,0.0,-4.907,-4.9462,0.0,0.0,0.0,0.0,0.0,0.0,0.0,0.0,0.0,0.0,0.0,0.0,-3.6593,-3.739,-3.7267,-3.7796,-3.9093,-4.0358,-4.118,-4.1527,-4.154,-4.1497,-4.1376,0.0,0.0,0.0,0.0,0.0,0.0,0.0,0.0,0.0,0.0,0.0,0.0,0.0,0.0,0.0,0.0,0.0,0.0,0.0,0.0,0.0,0.0,0.0,0.0,0.0,-4.5866,0.0,0.0,0.0,0.0,0.0,0.0,0.0,0.0,0.0,0.0,0.0,-5.3225,-5.558,-5.7431,-5.9246,-6.1111,-6.1718,-6.212,0.0,0.0,0.0,0.0,0.0,0.0,0.0,0.0,0.0,0.0,0.0,0.0,0.0,0.0,-5.6788,-5.5002,-5.4641,-5.4491,-5.4155,0.0,0.0,0.0,0.0,0.0,0.0,0.0,0.0,0.0,0.0,0.0,0.0,0.0,0.0,-4.4676,0.0,-4.4988,0.0,0.0,0.0,0.0,0.0,0.0,0.0,0.0,-4.9746,-5.0481,-5.066,-5.0574,-5.039,0.0,-4.7712,-4.5889,0.0,0.0,0.0,0.0,0.0,0.0,0.0,0.0,-3.6928,-3.7817,-3.7513,-3.7768,-3.8806,-3.9965,-4.058,-4.058,-4.0758,-4.0845,-4.0849,-3.9966,-3.97,0.0,0.0,0.0,0.0,0.0,0.0,0.0,0.0,0.0,0.0,0.0,0.0,0.0,0.0,0.0,0.0,0.0,0.0,0.0,0.0,0.0,0.0,0.0,-4.6563,0.0,0.0,0.0,0.0,0.0,0.0,0.0,0.0,0.0,-5.2307,-5.3641,-5.5423,-5.7155,-5.8611,-6.0085,-6.1677,0.0,0.0,0.0,0.0,0.0,0.0,0.0,-5.9507,-5.9007,-5.8951,-5.9375,-6.0514,-6.1636,-6.2102,-6.1311,0.0,0.0,-5.7757,-5.7283,-5.7135,-5.675,-5.6592,-5.6294,-5.5512,-5.4689,-5.3785,0.0,0.0,0.0,0.0,0.0,0.0,0.0,0.0,-4.4316,-4.4171,0.0,-4.4883,0.0,0.0,0.0,0.0,0.0,-4.779,0.0,0.0,-5.078,-5.1451,-5.1939,-5.0755,-5.0168,-4.9931,-4.7017,-4.5158,-4.4389,-4.3185,0.0,0.0,0.0,0.0,0.0,0.0,-3.7852,-3.8939,-3.8488,-3.8806,-3.9919,-4.0054,-4.0121,-4.0154,-3.9894,-3.9703,-3.9429,-3.9372,-3.9203,-3.9032,-3.9373,0.0,0.0,0.0,0.0,0.0,0.0,0.0,0.0,0.0,0.0,0.0,0.0,0.0,0.0,0.0,0.0,0.0,0.0,0.0,0.0,-4.7001,0.0,0.0,0.0,0.0,0.0,0.0,0.0,0.0,0.0,0.0,-5.5847,-5.602,-5.6656,-5.8021,0.0,0.0,0.0,0.0,-6.139,-6.2512,-6.1777,-6.1002,-6.0648,-6.0441,-6.0013,-5.9108,0.0,0.0,-6.2798,-6.3533,-6.3686,-6.2954,-6.2184,-6.1147,-5.9374,-5.8923,-5.883,-5.8622,-5.8404,-5.8233,-5.754,-5.6191,-5.5042,-4.7464,0.0,0.0,0.0,0.0,-4.604,-4.6571,-4.6862,-4.8086,-4.7587,-4.5994,-4.6852,0.0,0.0,0.0,0.0,0.0,0.0,-4.8876,-4.9756,-5.1095,-5.1696,-5.16,-5.1376,-5.098,-5.0343,-4.732,-4.543,-4.4548,-4.2607,-4.1305,-4.0787,0.0,0.0,0.0,0.0,-3.874,-3.9225,-3.8925,-3.8757,-3.8687,-3.9632,-4.0286,-4.0655,-4.0701,-4.1016,-4.168,-4.1121,-4.0722,-4.0615,-4.0155,0.0,0.0,0.0,0.0,0.0,0.0,0.0,0.0,0.0,0.0,0.0,0.0,0.0,0.0,0.0,0.0,0.0,0.0,0.0,-4.6258,-4.7004,-4.7756,0.0,0.0,0.0,0.0,0.0,0.0,0.0,0.0,0.0,-5.8706,-5.8838,-5.922,0.0,0.0,-6.1965,-6.2883,-6.2506,-6.2178,-6.2373,-6.1596,0.0,0.0,-5.9296,-5.9062,-5.8157,-5.9841,-6.1852,-6.3379,-6.3873,-6.3968,-6.3676,-6.2584,-6.1143,-5.9494,-5.9002,-5.8781,-5.8421,-5.8269,-5.7968,-5.713,-5.616,-5.4825,-4.7255,-4.6235,-4.6244,-4.5813,-4.5303,-4.6262,-4.6679,-4.6765,-4.7598,-4.7267,-4.6153,-4.706,-4.6456,-4.4825,-4.5738,0.0,0.0,0.0,-4.909,-5.0179,-5.0816,-5.1201,-5.1288,-5.0303,-4.9508,-4.8798,-4.5993,-4.4223,-4.3519,-4.1838,-4.0948,-4.0853,0.0,0.0,-4.0451,-3.9895,-3.9664,-3.9834,-3.9681,-3.9394,-3.9059,-3.9834,-4.0483,-4.0967,-4.1258,-4.1846,-4.2655,-4.2067,-4.1719,-4.1701,-4.0658,-3.993,0.0,0.0,0.0,0.0,0.0,0.0,0.0,0.0,0.0,0.0,0.0,-4.5855,-4.6264,0.0,0.0,0.0,-4.6262,-4.6386,-4.6695,-4.7498,0.0,0.0,0.0,0.0,0.0,0.0,0.0,-5.7402,-5.8296,-5.9174,-6.0097,-6.0409,-6.0738,-6.1193,-6.1606,-6.2066,-6.2654,0.0,-6.1422,-6.0968,-6.0205,-5.9087,-5.7498,-5.7573,-5.7802,-5.7793,-5.9125,-6.0965,-6.286,-6.3431,-6.3438,-6.2984,-6.201,-6.0528,-5.8445,-5.8002,-5.7854,-5.7544,-5.7712,-5.7546,-5.652,-5.5675,-5.4406,-4.5716,-4.482,-4.4917,-4.4791,-4.4542,-4.5075,-4.5018,-4.4517,-4.4572,-4.4542,-4.4587,-4.587,-4.603,-4.546,-4.6428,0.0,-4.8143,-4.8411,-4.9258,-5.0708,-4.994,-5.0005,-5.0656,-4.8046,-4.66,-4.617,-4.36,-4.2168,-4.1827,-4.1057,-4.0697,-4.0714,-4.0583,-4.0534,-4.0534,-4.0468,-4.0485,-4.0534,-4.0468,-4.0468,-4.0485,-4.0466,-4.0655,-4.1168,-4.1648,-4.2157,-4.2714,-4.2468,-4.2258,-4.2176,-4.0845,-4.0075,-3.9981,0.0,0.0,0.0,0.0,0.0,0.0,0.0,0.0,0.0,0.0,0.0,0.0,0.0,0.0,0.0,-4.6202,0.0,-4.7205,-4.8167,0.0,0.0,0.0,-5.3306,-5.4975,-5.5933,-5.7106,-5.8762,0.0,0.0,-6.0241,-6.0824,-6.1186,-6.1023,-6.0926,-6.0865,-6.09,-6.0321,-5.9562,-5.881,-5.8131,-5.7115,-5.5542,-5.5386,-5.5951,-5.7157,-5.8027,-5.9153,-6.1265,-6.2082,-6.2035,-6.1495,-6.0686,-5.9431,-5.6938,-5.653,-5.6329,-5.6132,-5.6771,-5.6946,-5.5667,-5.5026,-5.4034,-4.203,-4.1637,-4.2621,-4.3811,-4.5329,-4.6482,-4.6436,-4.5516,-4.5845,-4.5422,-4.4509,-4.468,-4.4671,-4.4523,-4.4798,-4.5535,-4.6712,-4.6749,-4.7129,-4.7723,-4.7531,-4.7126,-4.6543,-4.5512,-4.4861,-4.4378,-4.288,-4.204,-4.1908,-4.1202,-4.084,-4.084,-4.084,-4.0728,-4.0631,-4.0534,-4.0534,-4.0648,-4.0534,-4.0485,-4.0517,-4.0065,-4.0464,-4.175,-4.2015,-4.248,-4.3286,-4.3245,-4.2619,-4.1479,-4.102,-4.0312,-3.9172,-3.9703,0.0,0.0,0.0,0.0,0.0,0.0,0.0,0.0,0.0,-4.5829,-4.6053,0.0,-4.5746,0.0,-4.5969,-4.6033,-4.6192,-4.7534,0.0,0.0,-5.1761,-5.3625,-5.4692,-5.5586,-5.6528,-5.7543,-5.7834,-5.8198,-5.8804,-5.9552,-5.9894,-5.9528,-5.9958,-6.0123,-5.9457,-5.8911,-5.8185,-5.7265,-5.6885,-5.6106,-5.4128,-5.3014,-5.304,-5.4484,-5.5478,-5.6777,-5.8806,-5.9277,-5.9481,-5.9778,-5.8987,-5.7741,-5.6475,-5.5862,-5.5272,-5.4697,-5.5157,-5.5458,-5.449,-5.4442,-5.4116,-3.978,-4.0094,-4.1471,-4.2792,-4.4,-4.4966,-4.4934,-4.4235,-4.4221,-4.3805,-4.319,-4.3634,-4.3987,-4.423,-4.4713,-4.5231,-4.5855,-4.5986,-4.609,-4.6151,-4.545,-4.4915,-4.444,-4.335,-4.2822,-4.2739,-4.1933,-4.1492,-4.1474,-4.1078,-4.0871,-4.0871,-4.0871,-4.0888,-4.0793,-4.0745,-4.0728,-4.0793,-4.0728,-4.068,-4.0662,-4.038,-4.0756,-4.1937,-4.2074,-4.2519,-4.3428,-4.3463,-4.3059,-4.2231,-4.1827,-4.1273,-4.0423,-4.056,-4.1189,0.0,0.0,0.0,0.0,0.0,0.0,0.0,0.0,0.0,0.0,0.0,-4.5172,-4.5592,-4.5626,-4.5951,-4.6797,-4.7713,-4.8754,-4.9961,-5.2053,-5.3688,-5.4559,-5.5781,-5.6846,-5.7677,-5.7795,-5.7796,-5.7871,-5.8527,-5.8654,-5.7829,-5.8201,-5.8508,-5.8349,-5.7687,-5.663,-5.5304,-5.4964,-5.416,-5.2096,-5.0917,-5.0712,-5.2136,-5.2934,-5.403,-5.6028,-5.6787,-5.7262,-5.7748,-5.7378,-5.65,-5.5313,-5.486,-5.4242,-5.3215,-5.3445,-5.3936,-5.3943,-5.433,-5.4226,-3.8517,-3.9553,-4.1058,-4.1945,-4.2186,-4.2395,-4.2412,-4.2144,-4.148,-4.1262,-4.1432,-4.2705,-4.3569,-4.4044,-4.5078,-4.539,-4.5234,-4.5491,-4.5403,-4.4957,-4.3623,-4.3062,-4.3081,-4.1484,-4.092,-4.1257,-4.0957,-4.084,-4.0871,-4.0871,-4.0871,-4.0871,-4.0871,-4.0871,-4.0871,-4.0871,-4.0871,-4.0871,-4.0871,-4.0871,-4.0871,-4.0935,-4.1255,-4.1948,-4.2032,-4.2458,-4.334,-4.3394,-4.3391,-4.3314,-4.269,-4.2249,-4.2139,-4.1618,-4.1791,0.0,-4.309,0.0,0.0,0.0,0.0,0.0,0.0,0.0,0.0,-4.4383,-4.4259,-4.5168,-4.5245,-4.5951,-4.7687,-4.7915,-4.8694,-5.0414,-5.1991,-5.33,-5.4284,-5.5731,-5.6925,-5.7697,-5.7796,-5.7447,-5.6695,-5.7232,-5.716,-5.6054,-5.5945,-5.6215,-5.6781,-5.6079,-5.4861,-5.3189,-5.2584,-5.1784,-5.0321,-4.9252,-4.9198,-5.0344,-5.0878,-5.1486,-5.3398,-5.4458,-5.5132,-5.5443,-5.5564,-5.5201,-5.3786,-5.3701,-5.3286,-5.2152,-5.2417,-5.2956,-5.3525,-5.4096,-5.4012,-3.7923,-3.8847,-4.1029,-4.2342,-4.2951,-4.2017,-4.1626,-4.1496,-4.0931,-4.0641,-4.0767,-4.2121,-4.2732,-4.2879,-4.3638,-4.4071,-4.4112,-4.4152,-4.3592,-4.2466,-4.2196,-4.1452,-4.037,-4.0036,-4.0087,-4.0492,-4.0472,-4.06,-4.0871,-4.0871,-4.0871,-4.0871,-4.0871,-4.0871,-4.0871,0.0,0.0,0.0,-4.0871,-4.0871,-4.0918,-4.0982,-4.1318,-4.1881,-4.2074,0.0,-4.3214,-4.334,-4.3118,-4.258,-4.2378,0.0,0.0,0.0,0.0,0.0,0.0,0.0,0.0,0.0,0.0,0.0,-4.4263,-4.4367,-4.4687,-4.4559,-4.4564,-4.4862,-4.495,-4.5213,-4.5801,-4.6433,-4.7543,-4.9226,-5.0301,-5.1449,-5.2943,-5.3464,-5.3717,-5.3851,-5.3905,-5.3866,-5.3813,-5.4369,-5.4577,-5.383,-5.3668,-5.3512,-5.3031,-5.3261,-5.2754,-5.125,-5.0451,-4.9962,-4.9566,-4.8803,-4.8421,-4.915,-4.9842,-5.0459,-5.119,-5.201,-5.2618,-5.2991,-5.3149,-5.3396,-5.3362,-5.3049,-5.2738,-5.3253,-5.2944,-5.2693,-5.2778,-5.3195,-5.3346,-3.8339,0.0,-4.1555,-4.2467,0.0,-4.1941,-4.1264,-4.0815,-3.9879,-3.9305,-3.9043,-4.0047,-4.0524,-4.0572,-4.1586,-4.2228,-4.26,-4.2795,-4.2732,-4.2319,-4.1535,-4.0753,-4.0012,-3.9553,-3.9418,-3.9661,-4.0087,-4.0404,-4.06,-4.084,-4.0871,-4.0871,-4.0871,-4.0871,-4.0871,-4.0871,-4.0871,-4.0871,-4.0871,-4.0871,-4.0871,-4.0935,-4.1198,-4.1657,0.0,0.0,0.0,0.0,0.0,0.0,0.0,0.0,0.0,0.0,0.0,-4.3249,-4.3763,-4.3893,-4.361,-4.3975,-4.405,-4.3647,-4.3844,-4.406,-4.4213,-4.4125,-4.4154,-4.4374,-4.4546,-4.494,-4.5635,-4.6186,-4.7016,-4.8334,-4.9557,-5.0684,-5.1486,-5.2308,-5.2785,-5.2747,-5.2442,-5.2193,-5.2212,-5.2556,-5.2627,-5.2137,-5.2271,-5.1918,-5.0693,-5.0857,-5.062,-4.9025,-4.8153,-4.7826,-4.8137,-4.7626,-4.7518,-4.8309,-4.8568,-4.8916,-4.957,-5.0396,-5.1115,-5.1594,-5.1827,-5.2008,-5.1934,-5.147,-5.1081,-5.1211,-5.0967,-5.0855,-5.1176,-5.229,-5.2937,-3.9137,-4.114,-4.2063,-4.251,-4.2546,-4.1866,-4.0979,-4.0036,0.0,0.0,0.0,-3.812,-3.8489,-3.8581,-3.975,-4.0651,-4.1139,-4.1504,-4.1917,-4.2264,-4.0989,-4.0313,-4.0075,-3.9266,-3.8898,-3.9061,-3.9713,-4.0154,-4.0319,-4.0662,-4.084,-4.0888,-4.0871,-4.0871,-4.0918,-4.0948,-4.1012,-4.0995,-4.0935,-4.0965,-4.1134,-4.1088,-4.1209,-4.1578,-4.1948,-4.236,-4.2788,-4.3178,-4.3446,-4.3513,-4.36,-4.3615,-4.3634,-4.3719,-4.3851,-4.3961,-4.3974,-4.3708,-4.3148,-4.3664,-4.3695,-4.2952,-4.3481,-4.3786,-4.3771,-4.36,-4.3649,-4.3974,-4.425,-4.4821,-4.5786,-4.6119,-4.6634,-4.7494,-4.8793,-4.9652,-4.992,-5.1181,-5.1945,-5.1888,-5.1372,-5.1162,-5.1123,-5.1123,-5.1084,-5.0865,-5.0934,-5.038,-4.867,-4.855,-4.8489,-4.7222,-4.658,-4.6269,-4.6636,-4.6471,-4.6471,-4.7518,-4.7426,-4.7427,-4.8177,-4.9117,-4.9859,-4.9984,-5.048,-5.0484,-5.0122,-4.9705,-4.9174,-4.8642,-4.8587,-4.8759,-4.9397,-5.0928,-5.1889,-3.9677,-4.0064,-4.203,-4.2576,-4.1955,-4.1334,-4.0277,-3.8928,-3.8537,-3.7701,-3.6615,-3.7916,-3.8489,-3.8521,-3.9309,-3.9936,-4.0462,-4.0522,-4.0383,0.0,-3.9877,-3.9414,-3.8683,-3.8545,-3.8662,-3.8999,-3.9135,-3.9562,-4.024,-4.0366,-4.0551,-4.0871,-4.0871,-4.0871,-4.0918,-4.1237,-4.1401,-4.1401,-4.1088,-4.1255,-4.2008,-4.1735,-4.1839,-4.232,-4.2616,-4.2882,-4.3123,-4.3305,-4.3446,-4.3582,-4.3582,-4.3667,-4.3753,-4.3804,-4.3804,-4.3837,-4.3883,-4.3873,-4.3781,-4.3936,-4.3936,-4.3749,-4.3828,-4.38,-4.3667,-4.36,-4.3716,-4.3974,-4.425,-4.4557,-4.4946,-4.5319,-4.5831,-4.6557,-4.6901,-4.7322,-4.8124,-4.9079,-4.948,-4.885,-4.9086,-4.9468,-4.9522,-4.9468,-4.9568,-4.9724,-4.9277,-4.7897,-4.6242,-4.5938,-4.6287,-4.6104,-4.5975,-4.5957,-4.6012,-4.5993,-4.5993,-4.6158,-4.6728,-4.682,-4.6579,-4.7629,-4.8198,-4.7322,-4.8063,-4.8399,-4.817,-4.8202,-4.8183,-4.8121,-4.8234,-4.8269,-4.7786,-4.8466,-4.9333,-3.9567,-4.033,-4.1942,-4.2045,-4.1053,-4.0492,-3.9677,-3.8702,-3.8478,-3.7667,-3.6596,-3.7146,-3.7198,-3.6938,-3.7932,-3.8705,-3.9345,-3.9914,-4.0312,-4.0476,-4.0042,-3.9585,-3.9072,-3.8795,-3.8623,-3.8684,-3.9222,-3.9645,-3.9968,-4.04,-4.0745,-4.0888,-4.0871,-4.0871,-4.0918,-4.1283,-4.1604,-4.1846,-4.1709,-4.1796,-4.2216,-4.2032,-4.2074,-4.2338,-4.2711,-4.292,-4.305,-4.3339,-4.3532,-4.36,-4.3701,-4.38,-4.3851,-4.3865,-4.3897,-4.3897,-4.3929,-4.3961,-4.3961,-4.3974,-4.3974,-4.3942,-4.3961,-4.3897,-4.3749,-4.3667,-4.3649,-4.3781,-4.4162,-4.4438,-4.4572,-4.5019,-4.547,-4.5854,-4.6275,-4.6736,-4.7216,-4.7982,-4.8326,-4.7963,-4.7811,-4.7965,-4.8441,-4.8058,-4.8015,-4.85,-4.7678,-4.6258,-4.4869,-4.4634,-4.4634,-4.4634,-4.4599,-4.48,-4.5131,-4.4837,-4.5001,-4.5681,-4.5792,-4.5847,-4.5809,-4.6636,-4.6744,-4.6517,-4.6842,-4.696,-4.6675,-4.6796,-4.6873,-4.6584,-4.6757,-4.6651,-4.6532,-4.7039,-4.7864,-3.9305,-4.0224,-4.1459,-4.1346,-4.039,-4.0035,-3.9536,-3.9028,-3.8858,-3.8057,-3.6971,-3.6626,-3.6193,-3.5874,-3.6739,-3.755,-3.8308,-3.9267,-4.0064,-4.0581,-4.0031,-3.96,-3.9455,-3.9011,-3.8694,-3.8583,-3.9398,-3.9765,-3.9817,-4.0563,-4.0948,-4.1059,-4.1059,-4.1059,-4.1134,-4.1534,-4.1924,-4.2333,-4.2458,-4.248,-4.248,-4.2418,-4.2418,-4.2519,-4.2864,-4.3069,-4.3069,-4.3444,-4.3667,-4.3701,-4.3832,-4.3915,-4.3929,-4.3992,-4.4005,-4.4005,-4.4005,-4.4005,-4.4005,-4.4005,-4.4005,-4.4005,-4.4005,-4.3974,-4.3929,-4.3828,-4.373,-4.3716,-4.4143,-4.4438,-4.4519,-4.4981,-4.5359,-4.5437,-4.5935,-4.628,-4.6454,-4.7202,-4.7604,-4.7413,-4.6991,-4.703,-4.7393,-4.7085,-4.6946,-4.7171,-4.6422,-4.545,-4.4623,-4.395,-4.3637,-4.36,-4.3566,-4.3807,-4.4305,-4.4009,-4.4154,-4.5348,-4.5093,-4.5037,-4.5349,-4.5606,-4.5734,-4.5771,-4.5941,-4.5935,-4.5576,-4.564,-4.5684,-4.5451,-4.5609,-4.568,-4.5859,-4.6317,-4.707,-3.8917,-3.9166,-4.0306,-4.0735,-4.0454,-4.0416,-4.0146,-3.9889,-3.9819,-3.9214,-3.8123,-3.6985,-3.6462,-3.6445,-3.6471,-3.6952,-3.7555,-3.8164,-3.877,-3.9199,-3.9101,-3.9029,-3.8936,-3.8838,-3.8772,-3.8832,-3.9385,-3.9834,-4.0124,-4.0728,-4.1163,-4.1515,-4.1515,-4.1631,-4.1796,-4.2198,-4.2552,-4.2853,-4.3196,-4.3356,-4.3375,-4.3032,-4.2995,-4.3356,-4.3479,-4.3548,-4.3513,-4.3704,-4.3837,-4.3865,-4.3915,-4.3929,-4.3974,-4.4005,-4.4005,-4.4005,-4.4005,-4.4005,-4.4005,-4.4005,-4.4005,-4.4005,-4.4005,-4.4005,-4.4005,-4.4151,-4.4091,-4.3974,-4.4279,-4.4572,-4.4617,-4.5052,-4.54,-4.54,-4.5515,-4.5515,-4.5688,-4.6282,-4.6512,-4.5707,-4.634,-4.6781,-4.68,-4.6743,-4.6543,-4.6165,-4.5866,-4.5195,-4.4188,-4.3796,-4.3667,-4.3719,-4.3753,-4.3738,-4.3731,-4.3658,-4.3815,-4.4235,-4.4512,-4.4536,-4.4583,-4.5049,-4.5552,-4.4554,-4.4753,-4.5072,-4.4824,-4.4726,-4.5062,-4.523,-4.5342,-4.5541,-4.567,-4.5852,-4.643,-3.8601,-3.8356,-3.9224,-3.9778,-3.9965,-3.9879,-3.9895,-4.0011,-3.9839,-3.9531,-3.8856,-3.7614,-3.6836,-3.6514,-3.6847,-3.7131,-3.7472,-3.8439,-3.8969,-3.9148,-3.9164,-3.9094,-3.8969,-3.9023,-3.9023,-3.8936,-3.9629,-4.0118,-4.0295,-4.0984,-4.1453,-4.1604,-4.1604,-4.1719,-4.199,-4.2418,-4.275,-4.2995,-4.3463,-4.3686,-4.3652,-4.3444,-4.3391,-4.3548,-4.3686,-4.3719,-4.3719,-4.3818,-4.3883,-4.3897,-4.3929,-4.3974,-4.4005,-4.4005,-4.4005,-4.4005,-4.4005,-4.4005,-4.4005,-4.4005,-4.4005,-4.4005,-4.4005,-4.403,-4.424,-4.4318,-4.4346,-4.4411,-4.465,-4.4843,-4.4872,-4.5161,-4.5419,-4.5438,-4.5457,-4.5457,-4.5532,-4.584,-4.5859,-4.559,-4.5839,-4.6088,-4.6051,-4.6032,-4.5797,-4.5281,-4.5086,-4.4718,-4.3952,-4.3786,-4.3767,-4.3818,-4.4005,-4.3986,-4.3749,-4.3686,-4.3786,-4.3892,-4.3977,-4.3925,-4.3996,-4.4021,-4.4176,-4.3605,-4.4147,-4.4476,-4.4237,-4.4516,-4.4868,-4.5068,-4.5237,-4.5419,-4.5455,-4.5536,-4.5984,-3.8332,-3.8054,-3.8751,-3.9364,-3.9895,-3.9753,-3.9824,-4.0036,-3.9713,-3.9425,-3.9092,-3.7803,-3.6978,-3.6616,-3.7141,-3.7354,-3.7531,-3.8733,-3.9288,-3.9288,-3.9288,-3.9202,-3.9094,-3.9218,-3.9148,-3.9131,-4.0003,-4.0577,-4.0814,-4.1418,-4.178,-4.178,-4.1762,-4.1917,-4.2175,-4.2577,-4.2904,-4.3173,-4.3579,-4.3786,-4.3767,-4.3734,-4.3667,-4.3667,-4.3753,-4.3837,-4.3818,-4.3897,-4.3929,-4.391,-4.3974,-4.4005,-4.4005,-4.4005,-4.4005,-4.4005,-4.4005,-4.4005,-4.4005,-4.4005,-4.4005,-4.4005,-4.4048,-4.4192,-4.4355,-4.4546,-4.4701,-4.4872,-4.5074,-4.514,-4.5074,-4.5302,-4.5457,-4.5513,-4.5513,-4.555,-4.5586,-4.5586,-4.5605,-4.5586,-4.5624,-4.5586,-4.5586,-4.5569,-4.538,-4.4849,-4.4681,-4.4495,-4.4079,-4.4005,-4.4036,-4.4067,-4.4318,-4.4279,-4.3929,-4.4005,-4.3992,-4.3992,-4.4042,-4.4023,-4.3942,-4.3923,-4.3828,-4.403,-4.4091,-4.4192,-4.4383,-4.4676,-4.4868,-4.4957,-4.5132,-4.5317,-4.532,-4.5381,-4.5438,-3.7948,-3.8048,-3.9177,-3.9895,-4.0455,-4.0355,-4.0316,-4.0139,-3.9474,-3.9063,-3.8566,-3.7323,-3.664,-3.6565,-3.7141,-3.7354,-3.7546,-3.8733,-3.9288,-3.9288,-3.9288,-3.9288,-3.9272,-3.9288,-3.9288,-3.9309,-4.0269,-4.1202,-4.2044,-4.2205,-4.2287,-4.2246,-4.2246,-4.2351,-4.2534,-4.2826,-4.3104,-4.3299,-4.3656,-4.3818,-4.3795,-4.3865,-4.3832,-4.3786,-4.3851,-4.3897,-4.3897,-4.3942,-4.4005,-4.4005,-4.4005,-4.4005,-4.4005,-4.4005,-4.4005,-4.4005,-4.4005,-4.4005,-4.4005,-4.4005,-4.4005,-4.4067,-4.4221,-4.4383,-4.4493,-4.4849,-4.5115,-4.5161,-4.54,-4.5438,-4.5263,-4.5419,-4.5568,-4.5586,-4.5586,-4.5586,-4.5586,-4.5586,-4.5586,-4.5586,-4.5586,-4.5586,-4.5586,-4.5586,-4.5361,-4.4941,-4.4739,-4.4626,-4.4421,-4.4318,-4.4402,-4.4617,-4.4695,-4.4565,-4.4036,-4.421,-4.4511,-4.4493,-4.4419,-4.4553,-4.4707,-4.4751,-4.4553,-4.4438,-4.4438,-4.4519,-4.4701,-4.4843,-4.5023,-4.5132,-4.5216,-4.5298,-4.53,-4.5298,-4.5339,-3.7919,-3.7976,-3.8782,-3.9451,-3.992,-3.9495,-3.9367,-3.9528,-3.8855,-3.8378,-3.7918,-3.7104,-3.6595,-3.6514,-3.7141,-3.7354,-3.7546,-3.8733,-3.9288,-3.9288,-3.9288,-3.9288,-3.9288,-3.9288,-3.9288,-3.9468,-4.0319,-4.1328,-4.2187,-4.2287,-4.2287,-4.2287,-4.2287,-4.2432,-4.2691,-4.2957,-4.3266,-4.3483,-4.3758,-4.391,-4.3942,-4.3942,-4.3961,-4.3929,-4.3961,-4.3942,-4.3992,-4.3974,-4.4005,-4.4005,-4.4005,-4.4005,-4.4005,-4.4005,-4.4005,-4.4005,-4.4005,-4.4005,-4.4005,-4.4005,-4.4079,-4.425,-4.4346,-4.4572,-4.4853,-4.5096,-4.5282,-4.5438,-4.5513,-4.555,-4.5513,-4.5531,-4.5586,-4.5586,-4.5586,-4.5586,-4.5586,-4.5586,-4.5586,-4.5586,-4.5586,-4.5586,-4.5586,-4.5586,-4.5454,-4.5151,-4.5042,-4.491,-4.472,-4.4624,-4.4676,-4.4795,-4.4938,-4.4938,-4.4538,-4.4591,-4.4732,-4.4724,-4.4687,-4.4662,-4.4754,-4.4787,-4.4631,-4.4657,-4.4682,-4.48,-4.4938,-4.5049,-4.5197,-4.526,-4.5361,-4.5341,-4.5341,-4.5341,-4.5359,-3.8198,-3.8292,-3.8987,-3.9595,-3.9874,-3.9152,-3.907,-3.9183,-3.8274,-3.7694,-3.7389,-3.6682,-3.6396,-3.658,-3.7108,-3.7546,-3.778,-3.8788,-3.9288,-3.9288,-3.9288,-3.9288,-3.9288,-3.9288,-3.9288,-3.9484,-4.0319,-4.1328,-4.2187,-4.2287,-4.2287,-4.2287,-4.2287,-4.2391,-4.2613,-4.2995,-4.3286,-4.3495,-4.3828,-4.4005,-4.4005,-4.4005,-4.4005,-4.4005,-4.4005,-4.4005,-4.4005,-4.4005,-4.4005,-4.4005,-4.4005,-4.4005,-4.4005,-4.4005,-4.4005,-4.4005,-4.4005,-4.4005,-4.4036,-4.4079,-4.4221,-4.4383,-4.4572,-4.4849,-4.5161,-4.5282,-4.5419,-4.5568,-4.5586,-4.5586,-4.5586,-4.5586,-4.5586,-4.5586,-4.5586,-4.5586,-4.5586,-4.5586,-4.5586,-4.5586,-4.5586,-4.5586,-4.5586,-4.5586,-4.5473,-4.5227,-4.5186,-4.5118,-4.4966,-4.4938,-4.4985,-4.5033,-4.5222,-4.5243,-4.5074,-4.5096,-4.503,-4.4995,-4.5042,-4.496,-4.4916,-4.4862,-4.4877,-4.4919,-4.4966,-4.5052,-4.5137,-4.5281,-4.5361,-4.54,-4.54,-4.5381,-4.54,-4.54,-4.54,-3.8797,-3.8943,-4.0005,-4.0355,-4.027,-3.9625,-3.9395,-3.9072,-3.782,-3.7075,-3.6884,-3.6133,-3.6113,-3.6461,-3.7163,-3.7764,-3.8294,-3.8969,-3.9288,-3.9288,-3.9288,-3.9288,-3.9288,-3.9288,-3.9379,-3.952,-4.0368,-4.1311,-4.2246,-4.2287,-4.2287,-4.2287,-4.2287,-4.2328,-4.2346,-4.29,-4.3214,-4.3339,-4.373,-4.4005,-4.4005,-4.4005,-4.4005,-4.4005,-4.4005,-4.4005,-4.4005,-4.4005,-4.4005,-4.4005,-4.4005,-4.4005,-4.4005,-4.4005,-4.4005,-4.4005,-4.4005,-4.4005,-4.4067,-4.425,-4.4374,-4.4546,-4.4896,-4.5159,-4.5262,-4.5438,-4.5568,-4.5586,-4.5586,-4.5586,-4.5586,-4.5586,-4.5643,-4.5605,-4.5682,-4.5605,-4.5682,-4.5605,-4.5586,-4.5586,-4.5586,-4.5586,-4.5586,-4.5586,-4.5513,-4.5321,-4.5241,-4.5243,-4.5222,-4.5201,-4.5322,-4.5457,-4.5513,-4.5438,-4.5513,-4.5568,-4.5419,-4.5322,-4.54,-4.54,-4.5343,-4.5323,-4.5283,-4.5283,-4.5243,-4.5322,-4.5282,-4.54,-4.5419,-4.5457,-4.5419,-4.5438,-4.5457,-4.5477,-4.5438,-3.9379,-3.9523,-4.0176,-4.0247,-3.977,-3.9108,-3.8585,-3.8061,-3.6947,-3.6453,-3.6359,-3.6335,-3.643,-3.6662,-3.7531,-3.8108,-3.8351,-3.8952,-3.9288,-3.9288,-3.9288,-3.9288,-3.9288,-3.9342,-3.9661,-4.0319,-4.0955,-4.1622,-4.2187,-4.2287,-4.2287,-4.2287,-4.2287,-4.2287,-4.2328,-4.29,-4.3214,-4.3268,-4.373,-4.4005,-4.4005,-4.4005,-4.4005,-4.4005,-4.4005,-4.4005,-4.4005,-4.4005,-4.4005,-4.4005,-4.4005,-4.4005,-4.4005,-4.4005,-4.4005,-4.4005,-4.4005,-4.4091,-4.425,-4.4374,-4.4599,-4.4872,-4.5118,-4.5283,-4.5438,-4.5531,-4.5586,-4.5586,-4.5586,-4.5586,-4.5586,-4.5586,-4.5836,-4.6413,-4.597,-4.5836,-4.6182,-4.5913,-4.5643,-4.5586,-4.5586,-4.5586,-4.5586,-4.5586,-4.555,-4.5477,-4.5457,-4.5457,-4.5457,-4.5438,-4.5495,-4.5586,-4.5586,-4.5586,-4.5586,-4.5586,-4.5513,-4.5438,-4.5531,-4.5586,-4.5586,-4.5586,-4.5586,-4.5568,-4.5531,-4.5513,-4.5476,-4.5476,-4.5495,-4.5513,-4.5513,-4.5531,-4.5531,-4.5513,-4.5476,-3.9681,-3.9722,-3.9971,-3.9871,-3.9364,-3.8488,-3.7843,-3.7238,-3.6438,-3.6148,-3.6336,-3.6507,-3.6768,-3.7175,-3.7994,-3.8407,-3.8701,-3.9131,-3.9288,-3.9288,-3.9288,-3.9288,-3.9325,-3.9504,-4.007,-4.0926,-4.1356,-4.177,-4.2287,-4.2287,-4.2287,-4.2287,-4.2287,-4.2287,-4.2369,-4.29,-4.3214,-4.3268,-4.373,-4.4005,-4.4005,-4.4005,-4.4005,-4.4005,-4.4005,-4.4005,-4.4005,-4.4302,-4.4321,-4.4079,-4.4005,-4.4005,-4.4005,-4.4005,-4.4005,-4.4036,-4.4109,-4.4221,-4.4402,-4.458,-4.4825,-4.514,-4.5283,-4.5419,-4.5568,-4.5586,-4.5586,-4.5586,-4.5586,-4.5586,-4.5586,-4.5586,-4.599,-4.6778,-4.6105,-4.5893,-4.624,-4.5951,-4.5643,-4.5586,-4.5586,-4.5586,-4.5586,-4.5586,-4.5586,-4.5586,-4.5586,-4.5586,-4.5586,-4.5586,-4.5586,-4.5586,-4.5586,-4.5586,-4.5586,-4.5586,-4.5586,-4.5568,-4.5586,-4.5586,-4.5586,-4.5586,-4.5586,-4.5586,-4.5568,-4.5568,-4.555,-4.555,-4.5531,-4.5586,-4.5586,-4.5586,-4.5568,-4.5568,-4.5531,-3.9737,-3.9617,-3.9574,-3.9388,-3.8932,-3.8008,-3.7441,-3.6907,-3.6374,-3.6383,-3.6662,-3.6707,-3.7191,-3.8051,-3.8351,-3.8717,-3.9218,-3.9272,-3.9288,-3.9288,-3.9342,-3.9325,-3.9451,-3.9919,-4.0625,-4.1338,-4.1516,-4.1856,-4.2287,-4.2287,-4.2287,-4.2287,-4.2287,-4.2328,-4.2472,-4.2938,-4.3196,-4.3339,-4.373,-4.4005,-4.4005,-4.4005,-4.4005,-4.4005,-4.4005,-4.4061,-4.4302,-4.4915,-4.4952,-4.4228,-4.4191,-4.4153,-4.4042,-4.4005,-4.4005,-4.4048,-4.4279,-4.4411,-4.4546,-4.4872,-4.518,-4.5282,-4.5438,-4.5586,-4.5586,-4.5586,-4.5586,-4.5586,-4.5586,-4.5603,-4.562,-4.5603,-4.5988,-4.6528,-4.6182,-4.5855,-4.5624,-4.5605,-4.5586,-4.5586,-4.5586,-4.5586,-4.5586,-4.5586,-4.5586,-4.5586,-4.5586,-4.5586,-4.5586,-4.5586,-4.5586,-4.5586,-4.5586,-4.5586,-4.5586,-4.5586,-4.5586,-4.5457,-4.5513,-4.5586,-4.5586,-4.5586,-4.5586,-4.5586,-4.5586,-4.5586,-4.5586,-4.5586,-4.5586,-4.5586,-4.5586,-4.5586,-4.5586,-4.5586,-4.5549,-3.9747,-3.9267,-3.9656,-3.9009,-3.7791,-3.7745,-3.7502,-3.6925,-3.6647,-3.6845,-3.731,-3.7706,-3.7937,-3.8351,-3.8843,-3.9148,-3.9272,-3.9288,-3.9288,-3.9288,-3.9288,-3.9504,-3.9969,-4.0672,-4.1248,-4.1516,-4.1899,-4.2187,-4.2287,-4.2287,-4.2287,-4.2287,-4.2328,-4.2432,-4.2652,-4.3013,-4.3304,-4.3477,-4.3795,-4.4005,-4.4005,-4.4005,-4.4005,-4.4005,-4.4005,-4.4339,-4.4915,-4.5727,-4.5783,-4.5026,-4.4952,-4.4636,-4.4135,-4.4061,-4.4147,-4.426,-4.4374,-4.4599,-4.4919,-4.5118,-4.5302,-4.5476,-4.555,-4.5586,-4.5586,-4.5586,-4.5586,-4.5586,-4.5603,-4.5635,-4.5696,-4.5671,-4.5794,-4.5932,-4.6259,-4.624,-4.574,-4.5586,-4.5586,-4.5586,-4.5586,-4.5586,-4.5586,-4.5586,-4.5586,-4.5586,-4.5586,-4.5586,-4.5586,-4.5568,-4.5531,-4.5586,-4.5586,-4.5586,-4.5586,-4.5586,-4.5531,-4.5362,-4.5419,-4.5568,-4.5586,-4.5586,-4.5586,-4.5586,-4.5586,-4.5586,-4.5586,-4.5586,-4.5586,-4.5586,-4.5586,-4.5586,-4.5586,-4.5586,-4.5531,-3.9893,-3.9388,-3.9525,-3.8682,-3.7395,-3.7785,-3.751,-3.6862,-3.7011,-3.737,-3.7879,-3.8181,-3.8479,-3.8772,-3.9148,-3.9288,-3.9288,-3.9288,-3.9288,-3.9362,-3.9747,-4.0087,-4.0514,-4.1157,-4.1622,-4.1856,-4.2145,-4.2287,-4.2287,-4.2287,-4.2351,-4.2454,-4.2472,-4.2613,-4.292,-4.3214,-4.3426,-4.3612,-4.386,-4.4005,-4.4005,-4.4005,-4.4005,-4.4005,-4.4042,-4.4506,-4.5658,-4.6564,-4.662,-4.6006,-4.5765,-4.543,-4.4687,-4.4643,-4.4624,-4.4477,-4.4599,-4.4896,-4.5159,-4.5302,-4.5438,-4.5568,-4.5586,-4.5586,-4.5586,-4.5586,-4.5603,-4.5684,-4.5684,-4.5737,-4.5822,-4.5757,-4.5861,-4.6219,-4.6605,-4.6547,-4.5701,-4.5586,-4.5586,-4.5586,-4.5586,-4.5586,-4.5603,-4.5603,-4.5603,-4.5586,-4.5586,-4.5586,-4.5586,-4.5513,-4.5438,-4.5419,-4.5361,-4.5263,-4.5243,-4.5243,-4.5264,-4.5142,-4.5118,-4.5322,-4.5495,-4.5514,-4.5531,-4.5531,-4.5568,-4.5586,-4.5531,-4.5531,-4.5586,-4.5586,-4.5586,-4.5531,-4.5495,-4.5495,-4.5457,-3.9849,-3.9667,-3.9167,-3.8387,-3.7607,-3.7756,-3.7406,-3.6862,-3.7354,-3.7937,-3.8351,-3.8407,-3.8772,-3.9288,-3.9272,-3.9288,-3.9288,-3.9288,-3.9379,-3.9661,-4.0187,-4.0737,-4.0943,-4.1401,-4.1874,-4.2187,-4.2287,-4.2287,-4.2328,-4.2328,-4.2454,-4.2634,-4.2711,-4.2939,-4.3214,-4.3461,-4.3579,-4.3697,-4.3892,-4.4005,-4.4005,-4.4005,-4.4005,-4.4042,-4.4488,-4.5101,-4.629,-4.7218,-4.7478,-4.6791,-4.6675,-4.6211,-4.5579,-4.5615,-4.5482,-4.5047,-4.5252,-4.5409,-4.5416,-4.5611,-4.5682,-4.5778,-4.5701,-4.5682,-4.5759,-4.572,-4.5654,-4.5771,-4.58,-4.5815,-4.5866,-4.5887,-4.6244,-4.6696,-4.6932,-4.6644,-4.597,-4.572,-4.5719,-4.562,-4.562,-4.5601,-4.562,-4.562,-4.562,-4.5586,-4.5586,-4.555,-4.5476,-4.5381,-4.5262,-4.5159,-4.503,-4.4868,-4.4849,-4.4849,-4.49,-4.4881,-4.4806,-4.4938,-4.5258,-4.536,-4.5419,-4.5438,-4.5322,-4.5302,-4.5362,-4.54,-4.5457,-4.5513,-4.5438,-4.5362,-4.5302,-4.5322,-4.5302,-3.9078,-3.8022,-3.8397,-3.7812,-3.6901,-3.7261,-3.7653,-3.7879,-3.8051,-3.8479,-3.8969,-3.9077,-3.9148,-3.9288,-3.9288,-3.9288,-3.9325,-3.9325,-3.9468,-3.9935,-4.0466,-4.1019,-4.1356,-4.1856,-4.2145,-4.2287,-4.2287,-4.2287,-4.2328,-4.2494,-4.2652,-4.275,-4.3032,-4.3214,-4.3495,-4.3597,-4.3712,-4.386,-4.3974,-4.4023,-4.4079,-4.4023,-4.4005,-4.4116,-4.5194,-4.6011,-4.6661,-4.7868,-4.8519,-4.8296,-4.7742,-4.7073,-4.6466,-4.6487,-4.6544,-4.6467,-4.6287,-4.6317,-4.6378,-4.6011,-4.5893,-4.6413,-4.6047,-4.5874,-4.6528,-4.6028,-4.5767,-4.5771,-4.5822,-4.5887,-4.5873,-4.6492,-4.6834,-4.7092,-4.7507,-4.7566,-4.6855,-4.6623,-4.6328,-4.5924,-4.5742,-4.5757,-4.5757,-4.5727,-4.57,-4.5637,-4.555,-4.5476,-4.538,-4.5239,-4.5071,-4.4896,-4.4751,-4.4599,-4.4599,-4.4599,-4.4606,-4.4568,-4.4527,-4.4511,-4.4833,-4.5019,-4.5026,-4.5007,-4.4962,-4.5007,-4.5118,-4.5074,-4.5096,-4.5201,-4.5263,-4.518,-4.5118,-4.5118,-4.503,-3.8582,-3.7967,-3.8243,-3.7791,-3.714,-3.7872,-3.83,-3.8391,-3.8645,-3.8969,-3.9255,-3.9288,-3.9288,-3.9288,-3.9288,-3.9288,-3.9379,-3.954,-3.9731,-4.0153,-4.0737,-4.1248,-4.1534,-4.2002,-4.2287,-4.2287,-4.2287,-4.2369,-4.2494,-4.2634,-4.2846,-4.3105,-4.3321,-4.3529,-4.3763,-4.3763,-4.3878,-4.3974,-4.4023,-4.4153,-4.4525,-4.4191,-4.4005,-4.4321,-4.5565,-4.6513,-4.6624,-4.8036,-4.8742,-4.8816,-4.8484,-4.7909,-4.7318,-4.7432,-4.754,-4.7271,-4.736,-4.705,-4.6856,-4.6528,-4.6432,-4.6874,-4.6451,-4.6797,-4.7163,-4.699,-4.6684,-4.6518,-4.6441,-4.6368,-4.6053,-4.6674,-4.7184,-4.7782,-4.8369,-4.8659,-4.8226,-4.7503,-4.6642,-4.6037,-4.58,-4.58,-4.58,-4.5752,-4.568,-4.5586,-4.5362,-4.5302,-4.518,-4.5049,-4.4795,-4.4599,-4.4484,-4.4374,-4.4374,-4.4327,-4.4327,-4.4299,-4.4231,-4.4221,-4.4374,-4.4495,-4.4538,-4.4617,-4.4745,-4.4819,-4.4896,-4.4819,-4.4795,-4.4919,-4.4988,-4.4943,-4.4872,-4.4776,-4.4624,-3.8272,-3.8117,-3.8089,-3.7843,-3.7639,-3.8464,-3.873,-3.86,-3.904,-3.9272,-3.9288,-3.9288,-3.9288,-3.9288,-3.9288,-3.9288,-3.9415,-3.9782,-4.0003,-4.0302,-4.1047,-4.1472,-4.1753,-4.2103,-4.2369,-4.2369,-4.2409,-4.2494,-4.2634,-4.2808,-4.3142,-4.3511,-4.3664,-4.3763,-4.3923,-4.4005,-4.4103,-4.4302,-4.4358,-4.4711,-4.5287,-4.4878,-4.4581,-4.4599,-4.5639,-4.6475,-4.6828,-4.7943,-4.889,-4.889,-4.889,-4.8571,-4.8306,-4.834,-4.8431,-4.7782,-4.8133,-4.8049,-4.7645,-4.7278,-4.7144,-4.7201,-4.7105,-4.749,-4.8048,-4.8047,-4.7703,-4.7514,-4.7334,-4.7233,-4.6649,-4.7164,-4.79,-4.8507,-4.9291,-4.9505,-4.9259,-4.8031,-4.682,-4.6267,-4.5944,-4.58,-4.5737,-4.5692,-4.5616,-4.5513,-4.5302,-4.5096,-4.4985,-4.4825,-4.4572,-4.4374,-4.425,-4.421,-4.421,-4.4192,-4.4162,-4.4132,-4.406,-4.4079,-4.4067,-4.417,-4.4308,-4.4457,-4.4591,-4.4643,-4.4617,-4.4538,-4.4565,-4.4676,-4.4726,-4.4701,-4.4572,-4.4411,-4.4279,-3.7778,-3.6791,-3.682,-3.7039,-3.7427,-3.7662,-3.8327,-3.9056,-3.9218,-3.9288,-3.9288,-3.9288,-3.9288,-3.9288,-3.9288,-3.9288,-3.9415,-3.9833,-4.0252,-4.0642,-4.1311,-4.1709,-4.2103,-4.2269,-4.2432,-4.2613,-4.2673,-4.2711,-4.2884,-4.3178,-4.3442,-4.3631,-4.3846,-4.3974,-4.3974,-4.4042,-4.4358,-4.4822,-4.4952,-4.5379,-4.603,-4.6085,-4.5491,-4.5119,-4.5992,-4.6494,-4.6847,-4.798,-4.889,-4.889,-4.889,-4.8967,-4.9071,-4.9353,-4.9386,-4.9277,-4.9171,-4.9029,-4.8702,-4.8259,-4.8374,-4.8586,-4.8298,-4.8355,-4.8779,-4.8529,-4.8172,-4.7995,-4.8066,-4.8191,-4.83,-4.8018,-4.8662,-4.9165,-4.8962,-4.8681,-4.8449,-4.7724,-4.6975,-4.6681,-4.6247,-4.5737,-4.5607,-4.547,-4.5362,-4.5243,-4.5052,-4.4849,-4.4701,-4.4572,-4.4402,-4.424,-4.4048,-4.4036,-4.4036,-4.4067,-4.4079,-4.4079,-4.4036,-4.4017,-4.4036,-4.4005,-4.4109,-4.4279,-4.4279,-4.424,-4.421,-4.424,-4.4308,-4.443,-4.4457,-4.4438,-4.4374,-4.4289,-4.4221,-3.7045,-3.6528,-3.6481,-3.68,-3.7401,-3.778,-3.8423,-3.9218,-3.9288,-3.9288,-3.9288,-3.9288,-3.9288,-3.9288,-3.9288,-3.9288,-3.9451,-4.0137,-4.0514,-4.0943,-4.1534,-4.2002,-4.2292,-4.2396,-4.2573,-4.2788,-4.2958,-4.3142,-4.3178,-4.3442,-4.3646,-4.3828,-4.3974,-4.4005,-4.4005,-4.4023,-4.4506,-4.5119,-4.5379,-4.5937,-4.6995,-4.7107,-4.6364,-4.5417,-4.6178,-4.681,-4.6828,-4.8054,-4.8956,-4.9123,-4.9152,-4.9356,-4.9589,-4.983,-4.9993,-4.9992,-5.0019,-4.9836,-4.949,-4.897,-4.899,-4.9221,-4.899,-4.924,-4.9586,-4.9317,-4.8486,-4.7796,-4.7204,-4.7222,-4.7096,-4.7709,-4.8039,-4.8361,-4.8347,-4.8385,-4.815,-4.738,-4.6993,-4.6767,-4.6098,-4.5543,-4.5322,-4.5188,-4.5082,-4.4966,-4.4843,-4.4669,-4.4465,-4.4421,-4.4355,-4.4288,-4.4188,-4.4128,-4.4116,-4.4085,-4.4036,-4.4005,-4.4005,-4.4005,-4.4005,-4.4005,-4.4005,-4.4079,-4.4005,-4.4005,-4.4036,-4.4109,-4.414,-4.4181,-4.421,-4.4221,-4.4192,-4.4132,-4.4121,-3.6417,-3.6304,-3.625,-3.6662,-3.7429,-3.7879,-3.8535,-3.9202,-3.9288,-3.9288,-3.9288,-3.9288,-3.9288,-3.9288,-3.9255,-3.9276,-3.9249,-4.008,-4.0461,-4.0626,-4.1223,-4.177,-4.2083,-4.2261,-4.2366,-4.2521,-4.3123,-4.3545,-4.3563,-4.3664,-4.3795,-4.391,-4.4005,-4.4005,-4.4005,-4.4283,-4.4729,-4.5305,-4.5788,-4.6568,-4.7571,-4.7664,-4.6754,-4.4878,-4.6568,-4.7218,-4.6438,-4.7961,-4.8762,-4.9058,-4.9277,-4.9518,-4.9841,-5.0087,-5.0249,-5.0336,-5.0565,-5.0317,-5.0164,-4.999,-5.0164,-5.0529,-5.0087,-5.0337,-5.0356,-4.9894,-4.8794,-4.7476,-4.6917,-4.6881,-4.7356,-4.7264,-4.7617,-4.7883,-4.8169,-4.8037,-4.7661,-4.7034,-4.6244,-4.5917,-4.5572,-4.5342,-4.5145,-4.5061,-4.4985,-4.491,-4.4758,-4.4655,-4.4495,-4.4486,-4.4449,-4.444,-4.4383,-4.4325,-4.4237,-4.4147,-4.4085,-4.4005,-4.4005,-4.4005,-4.4005,-4.4005,-4.4005,-4.4005,-4.4005,-4.4005,-4.4005,-4.4005,-4.4067,-4.4079,-4.4036,-4.4036,-4.4079,-4.4079,-4.4048,-3.6163,-3.5624,-3.5599,-3.6336,-3.731,-3.7488,-3.8197,-3.9202,-3.9272,-3.9288,-3.9272,-3.9239,-3.9206,-3.9123,-3.9139,-3.8841,-3.8822,-3.9401,-3.9922,-4.0071,-4.0376,-4.0895,-4.1217,-4.1234,-4.1861,-4.2305,-4.2995,-4.3355,-4.3597,-4.3828,-4.3942,-4.4005,-4.4005,-4.4005,-4.4092,-4.4519,-4.5547,-4.629,-4.7047,-4.7828,-4.8423,-4.807,-4.7215,-4.6708,-4.7047,-4.7248,-4.6462,-4.7839,-4.881,-4.8585,-4.912,-4.9628,-5.0054,-5.0183,-5.038,-5.0544,-5.076,-5.0952,-5.1318,-5.1337,-5.1548,-5.1798,-5.1741,-5.1702,-5.099,-5.001,-4.8835,-4.8299,-4.7835,-4.7753,-4.7966,-4.8293,-4.8716,-4.8184,-4.7494,-4.7133,-4.6731,-4.632,-4.5566,-4.5379,-4.5132,-4.5113,-4.5007,-4.4953,-4.4895,-4.4796,-4.4712,-4.4605,-4.4551,-4.4551,-4.4524,-4.4524,-4.444,-4.4383,-4.4314,-4.4226,-4.4116,-4.4036,-4.4005,-4.4005,-4.4005,-4.4005,-4.4005,-4.4005,-4.4005,-4.4005,-4.4005,-4.4005,-4.4005,-4.4005,-4.4005,-4.4005,-4.4005,-4.4005,-4.4005,-3.5759,-3.5504,-3.5489,-3.6037,-3.6784,-3.6845,-3.7546,-3.8535,-3.8717,-3.8969,-3.9172,-3.8808,-3.846,-3.8195,-3.8046,-3.8129,-3.837,-3.916,-3.9646,-3.9857,-4.0193,-4.0695,-4.1078,-4.1343,-4.1738,-4.2322,-4.3012,-4.3458,-4.3646,-4.3828,-4.4005,-4.4005,-4.4023,-4.4067,-4.424,-4.4568,-4.5525,-4.6676,-4.7884,-4.8538,-4.8576,-4.852,-4.8097,-4.7049,-4.8041,-4.7885,-4.7627,-4.8247,-4.922,-4.9208,-4.966,-4.9967,-5.035,-5.0485,-5.0565,-5.0682,-5.1222,-5.1588,-5.1818,-5.1952,-5.2279,-5.2318,-5.2088,-5.1472,-5.0528,-4.9295,-4.8121,-4.7222,-4.7165,-4.728,-4.7183,-4.6627,-4.6682,-4.6546,-4.6502,-4.6205,-4.5742,-4.5273,-4.4843,-4.48,-4.4815,-4.4965,-4.5071,-4.5003,-4.489,-4.4719,-4.4693,-4.4667,-4.4613,-4.4613,-4.4613,-4.4632,-4.4524,-4.4383,-4.4344,-4.4255,-4.4147,-4.4036,-4.4005,-4.4005,-4.4005,-4.4005,-4.4005,-4.4005,-4.4005,-4.4005,-4.4005,-4.4005,-4.4005,-4.4005,-4.4005,-4.4005,-4.4005,-4.4036,-4.4036,-3.5489,-3.5489,-3.5489,-3.5846,-3.6368,-3.643,-3.7131,-3.8222,-3.8334,-3.8619,-3.8718,-3.8261,-3.7615,-3.7235,-3.7201,-3.7418,-3.782,-3.8914,-3.9416,-3.9774,-4.0299,-4.078,-4.106,-4.1381,-4.1731,-4.2441,-4.3086,-4.3458,-4.3646,-4.3892,-4.4116,-4.4085,-4.4414,-4.4524,-4.4688,-4.5129,-4.6012,-4.7327,-4.8621,-4.899,-4.8814,-4.9157,-4.8597,-4.8343,-4.8589,-4.9042,-4.8207,-4.8796,-4.9351,-4.8929,-4.9482,-4.9817,-5.0182,-5.049,-5.0875,-5.1145,-5.1702,-5.2281,-5.2666,-5.2877,-5.2626,-5.2414,-5.1548,-5.0721,-4.8875,-4.7869,-4.73,-4.6552,-4.6533,-4.618,-4.5741,-4.5669,-4.5767,-4.5774,-4.5309,-4.5076,-4.4962,-4.4943,-4.4881,-4.484,-4.4978,-4.5287,-4.5313,-4.5122,-4.4938,-4.4697,-4.464,-4.4693,-4.4693,-4.464,-4.4632,-4.4578,-4.4468,-4.4354,-4.4314,-4.4255,-4.4147,-4.4067,-4.4036,-4.4005,-4.4005,-4.4005,-4.4005,-4.4005,-4.4055,-4.4005,-4.4005,-4.4005,-4.4005,-4.4005,-4.4005,-4.4005,-4.4005,-4.4048,-4.4048,-3.5489,-3.5489,-3.5489,-3.5846,-3.6368,-3.643,-3.7131,-3.8222,-3.8278,-3.827,-3.816,-3.7533,-3.7119,-3.6986,-3.6904,-3.6935,-3.6979,-3.8094,-3.8937,-3.9421,-3.9802,-4.0517,-4.0935,-4.1207,-4.1396,-4.1935,-4.2741,-4.332,-4.3646,-4.3986,-4.4158,-4.4341,-4.4696,-4.5252,-4.564,-4.5998,-4.6759,-4.7878,-4.8931,-4.9439,-4.9348,-4.9456,-4.9248,-4.8867,-4.9105,-4.8846,-4.672,-4.8169,-4.8762,-4.7949,-4.8914,-4.9621,-5.01,-5.0505,-5.1026,-5.172,-5.2144,-5.2935,-5.3764,-5.3995,-5.4284,-5.3703,-5.2064,-4.9662,-4.7836,-4.6967,-4.65,-4.6431,-4.6325,-4.6557,-4.6694,-4.6876,-4.5845,-4.557,-4.5214,-4.5223,-4.5211,-4.5255,-4.5174,-4.5016,-4.5299,-4.5842,-4.6038,-4.5949,-4.5514,-4.5274,-4.4731,-4.4745,-4.4632,-4.4578,-4.4524,-4.4487,-4.4354,-4.4285,-4.4285,-4.4177,-4.4085,-4.4036,-4.4005,-4.4005,-4.4005,-4.4005,-4.4109,-4.4104,-4.4153,-4.4055,-4.4067,-4.417,-4.4229,-4.4067,-4.4036,-4.414,-4.421,-4.4308,-4.421,-3.5489,-3.5489,-3.5489,-3.5619,-3.5846,-3.6258,-3.689,-3.7706,-3.8092,-3.7976,-3.7483,-3.6771,-3.6174,-3.5974,-3.6178,-3.6686,-3.742,-3.8468,-3.9268,-3.9933,-4.0476,-4.0802,-4.1092,-4.1234,-4.1421,-4.2031,-4.2718,-4.3158,-4.349,-4.4005,-4.4306,-4.459,-4.5002,-4.4899,-4.5415,-4.6609,-4.7418,-4.7985,-4.8947,-4.9693,-4.9769,-4.9895,-4.9904,-4.9797,-4.9858,-4.9899,-4.9215,-4.9475,-4.9426,-4.9317,-4.9623,-4.9926,-5.0229,-5.0636,-5.1331,-5.2219,-5.2719,-5.3703,-5.4436,-5.4351,-5.3498,-5.1895,-5.016,-4.8485,-4.7254,-4.6755,-4.6307,-4.6177,-4.6315,-4.6681,-4.5672,-4.5476,-4.5104,-4.5243,-4.5401,-4.5495,-4.5609,-4.5754,-4.595,-4.6013,-4.6353,-4.6859,-4.6942,-4.6923,-4.6392,-4.5855,-4.5275,-4.4738,-4.4605,-4.4487,-4.4401,-4.4344,-4.4237,-4.4177,-4.4147,-4.4085,-4.4005,-4.4005,-4.4005,-4.4005,-4.4036,-4.424,-4.4298,-4.4296,-4.4344,-4.4412,-4.443,-4.4476,-4.4439,-4.4327,-4.4298,-4.4365,-4.4457,-4.4565,-4.443,-3.5489,-3.5474,-3.5458,-3.5552,-3.5846,-3.618,-3.6906,-3.7616,-3.7867,-3.7535,-3.6738,-3.5992,-3.5492,-3.5282,-3.5778,-3.6655,-3.7909,-3.9025,-3.9926,-4.0583,-4.1149,-4.1413,-4.1466,-4.1556,-4.1846,-4.2338,-4.2727,-4.3123,-4.3699,-4.4207,-4.4834,-4.5237,-4.5386,-4.558,-4.601,-4.7136,-4.8003,-4.8193,-4.9007,-4.986,-4.9906,-5.012,-5.0268,-5.0327,-5.0449,-5.0298,-5.0046,-4.9951,-4.9797,-4.9756,-4.9982,-5.0308,-5.0632,-5.1073,-5.1752,-5.2638,-5.3544,-5.445,-5.4813,-5.4126,-5.2705,-5.1144,-4.9581,-4.8305,-4.7346,-4.6801,-4.6702,-4.6542,-4.6649,-4.6456,-4.5603,-4.6248,-4.6123,-4.641,-4.6348,-4.6424,-4.6505,-4.6644,-4.6897,-4.7087,-4.7491,-4.7776,-4.7605,-4.751,-4.6758,-4.6044,-4.5146,-4.4681,-4.444,-4.4344,-4.4237,-4.4177,-4.4116,-4.4055,-4.4005,-4.4005,-4.4005,-4.4005,-4.4005,-4.4005,-4.4079,-4.4279,-4.4428,-4.439,-4.4471,-4.4713,-4.49,-4.5014,-4.4833,-4.4584,-4.4629,-4.4738,-4.4669,-4.4726,-4.4624,-3.5504,-3.5464,-3.5384,-3.5769,-3.6322,-3.6399,-3.7037,-3.7786,-3.742,-3.6816,-3.6125,-3.5394,-3.5265,-3.565,-3.635,-3.7352,-3.837,-3.9656,-4.0647,-4.122,-4.1765,-4.2126,-4.2203,-4.2203,-4.2167,-4.2356,-4.293,-4.3578,-4.4107,-4.5036,-4.5791,-4.6419,-4.6768,-4.7042,-4.7453,-4.8932,-4.933,-4.8894,-4.9481,-4.983,-5.0012,-5.0221,-5.0361,-5.0488,-5.0681,-5.0574,-5.0281,-5.0146,-4.9898,-4.9547,-5.0066,-5.0352,-5.0465,-5.1718,-5.2705,-5.3704,-5.4475,-5.5252,-5.5874,-5.4436,-5.2616,-5.0836,-4.9333,-4.8417,-4.7175,-4.6896,-4.7207,-4.7042,-4.7636,-4.8147,-4.8299,-4.8242,-4.7534,-4.7231,-4.715,-4.7302,-4.7409,-4.7742,-4.8034,-4.8193,-4.8439,-4.8609,-4.8363,-4.7977,-4.714,-4.6248,-4.5143,-4.4627,-4.4483,-4.4226,-4.4116,-4.4085,-4.4055,-4.4055,-4.4005,-4.4005,-4.4005,-4.4005,-4.4036,-4.4017,-4.4151,-4.4374,-4.4444,-4.4461,-4.4759,-4.5094,-4.5328,-4.554,-4.5662,-4.5779,-4.5214,-4.5124,-4.5033,-4.4915,-4.48,-3.6085,-3.6087,-3.5993,-3.6369,-3.6842,-3.6397,-3.6501,-3.6772,-3.6558,-3.6239,-3.5975,-3.5529,-3.5424,-3.596,-3.7111,-3.8161,-3.9041,-4.0192,-4.1194,-4.1895,-4.2198,-4.231,-4.2405,-4.2445,-4.2481,-4.2789,-4.3337,-4.4086,-4.4726,-4.5786,-4.6552,-4.7192,-4.7859,-4.7863,-4.7813,-4.8515,-4.8856,-4.8875,-4.9432,-4.9959,-5.0095,-5.0291,-5.0446,-5.0567,-5.0808,-5.0716,-5.0442,-5.0403,-5.0171,-4.9997,-5.0674,-5.1177,-5.1463,-5.2678,-5.3619,-5.4258,-5.4758,-5.401,-5.3843,-5.2759,-5.1805,-5.0488,-4.9547,-4.8687,-4.7522,-4.7314,-4.7384,-4.7491,-4.7908,-4.8117,-4.7738,-4.7757,-4.739,-4.7529,-4.7631,-4.8086,-4.8382,-4.8913,-4.9273,-4.9311,-4.9481,-4.9349,-4.914,-4.8545,-4.7727,-4.6883,-4.5876,-4.5185,-4.4922,-4.4358,-4.4073,-4.4055,-4.4005,-4.4005,-4.4042,-4.424,-4.4116,-4.4005,-4.4048,-4.4102,-4.426,-4.4616,-4.4909,-4.5157,-4.533,-4.5496,-4.6186,-4.68,-4.7087,-4.7066,-4.6617,-4.6077,-4.5889,-4.5519,-4.5007,-3.6583,-3.6395,-3.6532,-3.6654,-3.6712,-3.6314,-3.6097,-3.6095,-3.6273,-3.6257,-3.6073,-3.6232,-3.652,-3.7065,-3.8164,-3.9206,-3.9994,-4.0984,-4.1627,-4.2269,-4.2346,-4.2405,-4.2463,-4.258,-4.2817,-4.3156,-4.3772,-4.451,-4.5088,-4.6475,-4.7529,-4.8332,-4.878,-4.8799,-4.8704,-4.8969,-4.9216,-4.933,-4.9754,-4.9986,-5.0144,-5.0336,-5.0507,-5.0663,-5.0825,-5.0867,-5.0906,-5.0906,-5.0925,-5.1157,-5.1641,-5.226,-5.2643,-5.3475,-5.433,-5.4747,-5.4599,-5.3785,-5.3204,-5.2933,-5.2092,-5.0846,-5.001,-4.9152,-4.8438,-4.834,-4.8124,-4.8098,-4.806,-4.8193,-4.823,-4.8155,-4.8174,-4.8325,-4.8477,-4.8977,-4.9148,-4.9614,-4.9728,-4.9841,-4.986,-4.9803,-4.9595,-4.9067,-4.8351,-4.7495,-4.6634,-4.6022,-4.5406,-4.4891,-4.4501,-4.4563,-4.4693,-4.4898,-4.4842,-4.4662,-4.4495,-4.4061,-4.4214,-4.4514,-4.4908,-4.5349,-4.5594,-4.5977,-4.6434,-4.6972,-4.7643,-4.8143,-4.8375,-4.8414,-4.8181,-4.7606,-4.6973,-4.6143,-4.5335,-3.699,-3.6479,-3.6966,-3.6869,-3.6319,-3.6291,-3.6146,-3.6059,-3.6771,-3.6671,-3.6157,-3.7242,-3.767,-3.8463,-3.9687,-4.0345,-4.0748,-4.1582,-4.1943,-4.2169,-4.2205,-4.2323,-4.2427,-4.2566,-4.2897,-4.3498,-4.4183,-4.4909,-4.5409,-4.7101,-4.8532,-4.9372,-4.9576,-4.9557,-4.9557,-4.9595,-4.9671,-4.9728,-4.9811,-5.0012,-5.0188,-5.0313,-5.0445,-5.0606,-5.0754,-5.0841,-5.0874,-5.089,-5.089,-5.1196,-5.1718,-5.2221,-5.2961,-5.4071,-5.4749,-5.5048,-5.4917,-5.4299,-5.3611,-5.3323,-5.284,-5.1727,-5.0991,-5.0038,-4.9419,-4.9314,-4.9131,-4.906,-4.9098,-4.9432,-4.9652,-4.9576,-4.9519,-4.9576,-4.9576,-4.9728,-4.9728,-4.986,-4.986,-4.9879,-4.9879,-4.9746,-4.9386,-4.8943,-4.888,-4.84,-4.7623,-4.688,-4.6296,-4.569,-4.5438,-4.5592,-4.5761,-4.601,-4.5898,-4.5611,-4.5527,-4.5322,-4.5153,-4.5345,-4.5722,-4.6201,-4.6565,-4.7085,-4.7799,-4.8333,-4.8638,-4.9103,-4.9606,-4.9529,-4.9083,-4.8464,-4.7599,-4.6428,-4.5583,-3.7923,-3.777,-3.7899,-3.7785,-3.7538,-3.7044,-3.6521,-3.6141,-3.6771,-3.6936,-3.6854,-3.748,-3.8051,-3.8108,-3.9256,-3.9884,-4.0321,-4.0749,-4.1098,-4.1401,-4.1788,-4.1941,-4.221,-4.2508,-4.2868,-4.3625,-4.4487,-4.533,-4.6085,-4.7698,-4.8945,-4.9768,-4.9879,-4.9879,-4.9879,-4.9879,-4.9879,-4.9879,-4.9879,-5.0012,-5.0158,-5.024,-5.038,-5.0507,-5.0663,-5.0736,-5.0754,-5.0839,-5.0871,-5.1045,-5.1757,-5.2434,-5.3378,-5.4297,-5.4947,-5.4983,-5.4831,-5.4501,-5.373,-5.3517,-5.3227,-5.2572,-5.1817,-5.1164,-5.0504,-5.0099,-4.998,-4.9835,-4.972,-4.9884,-4.9906,-4.9879,-4.9879,-4.9879,-4.9879,-4.9879,-4.9879,-4.9879,-4.9879,-4.9879,-4.9879,-4.9803,-4.9405,-4.9397,-4.9334,-4.9051,-4.8614,-4.7864,-4.7205,-4.6619,-4.6383,-4.6536,-4.6821,-4.7102,-4.6974,-4.6732,-4.6709,-4.6664,-4.6379,-4.6353,-4.6957,-4.7379,-4.7661,-4.8126,-4.8776,-4.9099,-4.929,-4.9757,-5.0163,-4.9886,-4.9472,-4.8888,-4.8166,-4.7017,-4.6266,-3.83,-3.8292,-3.8517,-3.8477,-3.8195,-3.803,-3.7549,-3.7052,-3.7367,-3.7549,-3.7633,-3.837,-3.8652,-3.8899,-3.9723,-4.0164,-4.0198,-4.0637,-4.0896,-4.1036,-4.1248,-4.1604,-4.1966,-4.2405,-4.3134,-4.3971,-4.4889,-4.5674,-4.6489,-4.7627,-4.8908,-4.9852,-4.9879,-4.9879,-4.9879,-4.9879,-4.9879,-4.9879,-4.9933,-5.0012,-5.0114,-5.0188,-5.0287,-5.0383,-5.0528,-5.0567,-5.0606,-5.0735,-5.0839,-5.0955,-5.1689,-5.2627,-5.3652,-5.4667,-5.5065,-5.5056,-5.4826,-5.4619,-5.4213,-5.4097,-5.371,-5.3249,-5.2756,-5.2104,-5.1299,-5.0673,-5.0382,-5.013,-5.0051,-4.9986,-4.9933,-4.9879,-4.9879,-4.9879,-4.9879,-4.9879,-4.9879,-4.9879,-4.9879,-4.9879,-4.9879,-4.9879,-4.9841,-4.9843,-4.975,-4.9476,-4.9267,-4.8955,-4.8288,-4.7704,-4.7496,-4.757,-4.79,-4.8202,-4.8022,-4.7829,-4.7669,-4.7529,-4.7251,-4.7395,-4.8081,-4.8508,-4.876,-4.92,-4.9714,-4.9869,-4.9928,-5.0144,-5.0412,-5.009,-4.9835,-4.9453,-4.8764,-4.7704,-4.7181,-3.8231,-3.8272,-3.899,-3.8891,-3.8444,-3.8924,-3.8825,-3.8328,-3.8295,-3.8311,-3.8482,-3.9395,-3.975,-3.9665,-4.0131,-4.0377,-4.0343,-4.048,-4.0514,-4.0707,-4.0955,-4.1276,-4.1735,-4.2187,-4.2983,-4.4375,-4.5385,-4.5797,-4.6554,-4.7516,-4.8571,-4.9711,-4.9879,-4.9974,-5.0201,-4.9955,-4.9993,-5.0239,-5.0058,-4.9959,-5.0089,-5.0188,-5.024,-5.0298,-5.0368,-5.0392,-5.0469,-5.0606,-5.0789,-5.112,-5.1718,-5.2715,-5.3906,-5.4907,-5.5161,-5.5316,-5.5103,-5.4871,-5.4793,-5.4755,-5.4583,-5.4235,-5.3906,-5.2818,-5.1798,-5.0851,-5.0412,-5.0212,-5.0108,-5.0005,-4.9925,-4.9906,-4.9879,-4.9879,-4.9879,-4.9879,-4.9879,-4.9879,-4.9879,-4.9879,-4.9879,-4.9879,-4.9898,-4.9843,-4.9862,-4.9712,-4.9579,-4.9466,-4.9315,-4.869,-4.8551,-4.8537,-4.8871,-4.9131,-4.9106,-4.8881,-4.8575,-4.834,-4.8214,-4.8466,-4.9162,-4.9548,-4.9854,-5.0045,-5.0236,-5.0411,-5.0528,-5.0488,-5.0361,-5.023,-5.0024,-5.0,-4.9311,-4.838,-4.8201,-3.7841,-3.8362,-3.9011,-3.9172,-3.9056,-3.9206,-3.9172,-3.9023,-3.9023,-3.8974,-3.9093,-3.9315,-3.9556,-3.9713,-3.9867,-3.9969,-4.002,-4.0104,-4.0003,-4.0237,-4.0497,-4.103,-4.1499,-4.2008,-4.2817,-4.3581,-4.4587,-4.5812,-4.6652,-4.7346,-4.7895,-4.87,-4.9268,-4.9928,-5.0561,-5.0239,-5.0107,-5.0467,-5.0172,-4.9925,-4.9986,-4.9986,-4.9993,-5.0095,-5.013,-5.0287,-5.0501,-5.1034,-5.1293,-5.16,-5.2312,-5.3222,-5.4265,-5.4879,-5.5337,-5.5589,-5.5586,-5.5296,-5.5028,-5.5011,-5.484,-5.3975,-5.3263,-5.2666,-5.1872,-5.0945,-5.0377,-5.0212,-5.0108,-5.0005,-4.9925,-4.9906,-4.9879,-4.9879,-4.9879,-4.9879,-4.9879,-4.9879,-4.9879,-4.9879,-4.9879,-4.9898,-4.9871,-4.9871,-4.9862,-4.9788,-4.9665,-4.9646,-4.9898,-4.9632,-4.9492,-4.951,-4.9794,-4.9991,-4.9972,-4.9901,-4.9543,-4.9663,-4.9683,-4.9971,-5.0202,-5.024,-5.0277,-5.0451,-5.0605,-5.0587,-5.0446,-5.023,-5.0106,-5.0095,-5.0089,-4.9959,-4.9933,-4.9238,-4.9275,-3.7472,-3.8351,-3.9023,-3.9288,-3.9272,-3.8952,-3.8843,-3.8827,-3.8882,-3.8952,-3.9007,-3.9255,-3.9432,-3.959,-3.9606,-3.9642,-3.9729,-3.9729,-3.9781,-3.9901,-4.0302,-4.0844,-4.1348,-4.1948,-4.2813,-4.3583,-4.4621,-4.5742,-4.6489,-4.6762,-4.7125,-4.807,-4.8994,-4.9655,-5.0458,-5.0182,-5.0126,-5.0523,-5.0107,-4.9936,-4.9879,-4.9879,-4.9879,-4.9978,-5.0024,-5.0215,-5.0767,-5.1324,-5.1706,-5.2296,-5.3133,-5.3701,-5.4516,-5.5112,-5.5569,-5.5838,-5.5857,-5.5606,-5.5107,-5.484,-5.4651,-5.3552,-5.2624,-5.2022,-5.166,-5.0807,-5.0325,-5.0163,-5.0163,-5.0063,-4.9933,-4.9879,-4.9879,-4.9879,-4.9879,-4.9879,-4.9879,-4.9879,-4.9879,-4.9879,-4.9879,-4.9879,-4.9879,-4.9887,-4.9887,-4.9922,-4.9795,-4.9955,-5.0174,-5.0245,-5.021,-5.0195,-5.0306,-5.0469,-5.041,-5.0471,-5.047,-5.0698,-5.0812,-5.0624,-5.0433,-5.0567,-5.0682,-5.0547,-5.0446,-5.0361,-5.0183,-4.9993,-4.9981,-5.0012,-4.9959,-4.9906,-4.9879,-4.9879,-4.9784,-3.6917,-3.8222,-3.8969,-3.9218,-3.9077,-3.859,-3.8294,-3.8294,-3.8463,-3.8574,-3.8739,-3.9309,-3.959,-3.9694,-3.9729,-3.9729,-3.9764,-3.9833,-3.9781,-4.0054,-4.04,-4.103,-4.1525,-4.2008,-4.2889,-4.3653,-4.4476,-4.5033,-4.5608,-4.5844,-4.6453,-4.7697,-4.8367,-4.8842,-4.9664,-4.9955,-5.0069,-5.0258,-5.0107,-4.9917,-4.9879,-4.9879,-4.9879,-4.9879,-4.9955,-5.0353,-5.0947,-5.154,-5.1993,-5.2805,-5.3732,-5.4334,-5.4747,-5.5266,-5.5574,-5.588,-5.5959,-5.5305,-5.4592,-5.44,-5.3762,-5.2909,-5.2075,-5.1561,-5.1228,-5.0773,-5.0316,-5.0139,-5.0139,-5.0108,-4.9978,-4.9955,-4.9955,-4.9917,-4.9917,-4.9879,-4.9879,-4.9906,-4.9906,-4.9906,-4.9933,-4.9933,-4.9974,-4.9955,-4.9987,-5.0012,-5.0111,-5.0294,-5.0402,-5.0339,-5.0298,-5.0256,-5.0278,-5.0445,-5.0683,-5.0721,-5.0793,-5.0812,-5.0794,-5.0701,-5.0606,-5.0446,-5.0342,-5.0252,-5.0159,-5.01,-5.0006,-4.983,-4.9841,-4.9925,-4.9906,-4.9879,-4.9879,-4.9879,-4.9879,-3.5907,-3.7648,-3.8788,-3.9023,-3.8535,-3.8495,-3.8254,-3.7895,-3.8423,-3.8772,-3.8974,-3.9487,-3.9849,-3.9849,-3.9833,-3.9884,-3.9969,-4.002,-4.0336,-4.0611,-4.0832,-4.1348,-4.1846,-4.2234,-4.3001,-4.3523,-4.3824,-4.3828,-4.4545,-4.4894,-4.5577,-4.6805,-4.7927,-4.8945,-5.0506,-5.0477,-5.0052,-5.0222,-5.0071,-4.9824,-4.9871,-4.9898,-4.9879,-4.9879,-4.9898,-5.0467,-5.1101,-5.184,-5.2646,-5.3375,-5.4053,-5.4722,-5.511,-5.5306,-5.5459,-5.5557,-5.5654,-5.4688,-5.401,-5.3774,-5.3069,-5.1916,-5.1285,-5.1255,-5.0881,-5.0442,-5.0119,-5.0005,-5.0005,-5.0081,-5.0031,-5.0163,-5.0201,-5.005,-4.9993,-4.9917,-4.9879,-4.9952,-4.9978,-5.0038,-5.0139,-5.0169,-5.0249,-5.023,-5.023,-5.0275,-5.0298,-5.0445,-5.0464,-5.0404,-5.0342,-5.0275,-5.023,-5.0507,-5.0739,-5.0721,-5.0757,-5.0794,-5.0816,-5.0777,-5.0569,-5.0087,-4.9981,-5.0392,-5.0069,-4.9863,-4.974,-4.9948,-4.9816,-4.99,-4.9898,-4.9879,-4.9898,-4.9936,-4.9974]}]]